[[{"header":{"parameterUnit":"m.s-1","parameterCategory":1,"la1":30.6,"la2":29.2853,"lo1":-89.7004,"lo2":-87.6739,"dy":0.0162,"dx":0.0183,"nx":112,"ny":82,"refTime":"2023-06-30T00:00:00:Z","depth":0,"parameterNumber":2,"parameterNumberName":"U-component_of_WINDS"},"data":[0.0,0.0,0.0,0.0,0.0,0.0,0.0,0.0,0.0,0.0,0.0,0.0,0.0,0.0,0.0,0.0,0.0,0.0,0.0,0.0,0.0,0.0,0.0,0.0,0.0,0.0,0.0,0.0,0.0,0.0,0.0,0.0,0.0,0.0,0.0,0.0,0.0,0.0,0.0,0.0,0.0,0.0,0.0,0.0,0.0,0.0,0.0,0.0,0.0,0.0,0.0,0.0,0.0,0.0,0.0,0.0,0.0,0.0,0.0,0.0,0.0,0.0,0.0,0.0,0.0,0.0,0.0,0.0,0.0,0.0,0.0,0.0,0.0,0.0,0.0,0.0,0.0,0.0,0.0,0.0,0.0,0.0,0.0,0.0,0.0,0.0,0.0,0.0,0.0,0.0,0.0,-2.6549,-2.8702,-2.992,-2.9781,-2.9152,-2.7954,-2.6092,0.0,0.0,0.0,0.0,0.0,0.0,0.0,0.0,0.0,0.0,0.0,0.0,0.0,0.0,0.0,0.0,0.0,0.0,0.0,0.0,0.0,0.0,0.0,0.0,0.0,0.0,0.0,0.0,0.0,0.0,0.0,0.0,0.0,0.0,0.0,0.0,0.0,0.0,0.0,0.0,0.0,0.0,0.0,0.0,0.0,0.0,0.0,0.0,0.0,0.0,0.0,0.0,0.0,0.0,0.0,0.0,0.0,0.0,0.0,0.0,0.0,0.0,0.0,0.0,0.0,0.0,0.0,0.0,0.0,0.0,0.0,0.0,0.0,0.0,0.0,0.0,0.0,0.0,0.0,0.0,0.0,0.0,0.0,0.0,0.0,0.0,0.0,0.0,0.0,0.0,0.0,0.0,0.0,0.0,0.0,0.0,0.0,0.0,0.0,0.0,0.0,0.0,0.0,0.0,-2.5973,-2.9696,-3.1013,-3.1343,-3.0586,-3.0424,-2.907,-2.6022,0.0,0.0,0.0,0.0,0.0,0.0,0.0,0.0,0.0,0.0,0.0,0.0,0.0,0.0,0.0,0.0,0.0,0.0,0.0,0.0,0.0,0.0,0.0,0.0,0.0,0.0,0.0,0.0,0.0,0.0,0.0,0.0,0.0,0.0,0.0,0.0,0.0,0.0,0.0,0.0,0.0,0.0,0.0,0.0,0.0,0.0,0.0,0.0,0.0,0.0,0.0,0.0,0.0,0.0,0.0,0.0,0.0,0.0,0.0,0.0,0.0,0.0,0.0,0.0,0.0,0.0,0.0,0.0,0.0,0.0,0.0,0.0,0.0,0.0,0.0,0.0,0.0,0.0,0.0,0.0,0.0,0.0,0.0,0.0,0.0,0.0,0.0,0.0,0.0,0.0,0.0,0.0,0.0,0.0,0.0,0.0,0.0,0.0,0.0,0.0,0.0,0.0,0.0,-2.4884,-2.7246,-3.0309,-3.1366,-3.1688,-3.1282,-3.0838,-2.9412,-2.6621,-2.4313,0.0,0.0,0.0,0.0,0.0,0.0,0.0,0.0,0.0,0.0,0.0,0.0,0.0,0.0,0.0,0.0,0.0,0.0,0.0,0.0,0.0,0.0,0.0,0.0,0.0,0.0,0.0,0.0,0.0,0.0,0.0,0.0,0.0,0.0,0.0,0.0,0.0,0.0,0.0,0.0,0.0,0.0,0.0,0.0,0.0,0.0,0.0,0.0,0.0,0.0,0.0,0.0,0.0,0.0,0.0,0.0,0.0,0.0,0.0,0.0,0.0,0.0,0.0,0.0,0.0,0.0,0.0,0.0,0.0,0.0,0.0,0.0,0.0,0.0,0.0,0.0,0.0,0.0,0.0,0.0,0.0,0.0,0.0,0.0,0.0,0.0,0.0,0.0,0.0,0.0,0.0,0.0,0.0,0.0,0.0,0.0,0.0,0.0,0.0,0.0,0.0,0.0,-2.6376,-2.8174,-3.0279,-3.1385,-3.1903,-3.1706,-3.0957,-2.9494,-2.7152,-2.4789,0.0,0.0,0.0,0.0,0.0,0.0,0.0,0.0,0.0,0.0,0.0,0.0,0.0,0.0,0.0,0.0,0.0,0.0,0.0,0.0,0.0,0.0,0.0,0.0,0.0,0.0,0.0,0.0,0.0,0.0,0.0,0.0,0.0,0.0,0.0,0.0,0.0,0.0,0.0,0.0,0.0,0.0,0.0,0.0,0.0,0.0,0.0,0.0,0.0,0.0,0.0,0.0,0.0,0.0,0.0,0.0,0.0,0.0,0.0,0.0,0.0,0.0,0.0,0.0,0.0,0.0,0.0,0.0,0.0,0.0,0.0,0.0,0.0,0.0,0.0,0.0,0.0,0.0,0.0,0.0,0.0,0.0,0.0,0.0,0.0,0.0,0.0,0.0,0.0,0.0,0.0,0.0,0.0,0.0,0.0,0.0,0.0,0.0,0.0,0.0,0.0,0.0,-2.7165,-2.8731,-3.0332,-3.1885,-3.2507,-3.176,-3.0957,-2.9494,-2.7152,-2.4789,0.0,0.0,0.0,0.0,0.0,0.0,0.0,0.0,0.0,0.0,0.0,0.0,0.0,0.0,0.0,0.0,0.0,0.0,0.0,0.0,0.0,0.0,0.0,0.0,0.0,0.0,0.0,0.0,0.0,0.0,0.0,0.0,0.0,0.0,0.0,0.0,0.0,0.0,0.0,0.0,0.0,0.0,0.0,0.0,0.0,0.0,0.0,0.0,0.0,0.0,0.0,0.0,0.0,0.0,0.0,0.0,0.0,0.0,0.0,0.0,0.0,0.0,0.0,0.0,0.0,0.0,0.0,0.0,0.0,0.0,0.0,0.0,0.0,0.0,0.0,0.0,0.0,0.0,0.0,0.0,0.0,0.0,0.0,0.0,0.0,0.0,0.0,0.0,0.0,0.0,0.0,0.0,0.0,0.0,0.0,0.0,0.0,0.0,0.0,0.0,0.0,0.0,-2.721,-2.8784,0.0,-3.1938,-3.2775,-3.2472,-3.1242,-2.9711,-2.7857,0.0,0.0,0.0,0.0,0.0,0.0,0.0,0.0,0.0,0.0,0.0,0.0,0.0,0.0,0.0,0.0,0.0,0.0,0.0,0.0,0.0,0.0,0.0,0.0,0.0,0.0,0.0,0.0,0.0,0.0,0.0,0.0,0.0,0.0,0.0,0.0,0.0,0.0,0.0,0.0,0.0,0.0,0.0,0.0,0.0,0.0,0.0,0.0,0.0,0.0,0.0,0.0,0.0,0.0,0.0,0.0,0.0,0.0,0.0,0.0,0.0,0.0,0.0,0.0,0.0,0.0,0.0,0.0,0.0,0.0,0.0,0.0,0.0,0.0,0.0,0.0,0.0,0.0,0.0,0.0,0.0,0.0,0.0,0.0,0.0,0.0,0.0,0.0,0.0,0.0,0.0,0.0,0.0,0.0,0.0,0.0,0.0,0.0,0.0,0.0,0.0,0.0,-2.5426,-2.7429,-2.9069,0.0,-3.1938,-3.29,-3.29,-3.1421,-2.9836,-2.8303,0.0,0.0,0.0,0.0,0.0,0.0,0.0,0.0,0.0,0.0,0.0,0.0,0.0,0.0,0.0,0.0,0.0,0.0,0.0,0.0,0.0,0.0,0.0,0.0,0.0,0.0,0.0,0.0,0.0,0.0,0.0,0.0,0.0,0.0,0.0,0.0,0.0,0.0,0.0,0.0,0.0,0.0,0.0,0.0,0.0,0.0,0.0,0.0,0.0,0.0,0.0,0.0,0.0,0.0,0.0,0.0,0.0,0.0,0.0,0.0,0.0,0.0,0.0,0.0,0.0,0.0,0.0,0.0,0.0,0.0,0.0,0.0,0.0,0.0,0.0,0.0,0.0,0.0,0.0,0.0,0.0,0.0,0.0,0.0,0.0,0.0,0.0,0.0,0.0,0.0,0.0,0.0,0.0,0.0,0.0,0.0,0.0,0.0,0.0,0.0,0.0,0.0,-2.5515,-2.7924,-2.969,-3.0422,-3.1938,-3.29,-3.29,-3.1421,-2.9836,0.0,0.0,0.0,0.0,0.0,0.0,0.0,0.0,0.0,0.0,0.0,0.0,0.0,0.0,0.0,0.0,0.0,0.0,0.0,0.0,0.0,0.0,0.0,0.0,0.0,0.0,0.0,0.0,0.0,0.0,0.0,0.0,0.0,0.0,0.0,0.0,0.0,0.0,0.0,0.0,0.0,0.0,0.0,0.0,0.0,0.0,0.0,0.0,0.0,0.0,0.0,0.0,0.0,0.0,0.0,0.0,0.0,0.0,0.0,0.0,0.0,0.0,0.0,0.0,0.0,0.0,0.0,0.0,0.0,0.0,0.0,0.0,0.0,0.0,0.0,0.0,0.0,0.0,0.0,0.0,0.0,0.0,0.0,0.0,0.0,0.0,0.0,0.0,0.0,0.0,0.0,0.0,0.0,0.0,0.0,0.0,0.0,0.0,0.0,0.0,0.0,0.0,0.0,-2.5515,-2.7924,-2.969,-3.0422,-3.1938,-3.29,-3.29,-3.1421,-2.9836,-2.8303,0.0,0.0,0.0,0.0,0.0,0.0,0.0,0.0,0.0,0.0,0.0,0.0,0.0,0.0,0.0,0.0,0.0,0.0,0.0,0.0,0.0,0.0,0.0,0.0,0.0,0.0,0.0,0.0,0.0,0.0,0.0,0.0,0.0,0.0,0.0,0.0,0.0,0.0,0.0,0.0,0.0,0.0,0.0,0.0,0.0,0.0,0.0,0.0,0.0,0.0,0.0,0.0,0.0,0.0,0.0,0.0,0.0,0.0,0.0,0.0,0.0,0.0,0.0,0.0,0.0,0.0,0.0,0.0,0.0,0.0,0.0,0.0,0.0,0.0,0.0,0.0,0.0,0.0,0.0,0.0,0.0,0.0,0.0,0.0,0.0,0.0,0.0,0.0,0.0,0.0,0.0,0.0,0.0,0.0,0.0,0.0,0.0,0.0,0.0,0.0,0.0,0.0,-2.5551,-2.8156,-3.0011,-3.0443,-3.1938,-3.29,-3.29,-3.1421,-2.9979,-2.8748,0.0,0.0,0.0,0.0,0.0,0.0,0.0,0.0,0.0,0.0,0.0,0.0,0.0,0.0,0.0,0.0,0.0,0.0,0.0,0.0,0.0,0.0,0.0,0.0,0.0,0.0,0.0,0.0,0.0,0.0,0.0,0.0,0.0,0.0,0.0,0.0,0.0,0.0,0.0,0.0,0.0,0.0,0.0,0.0,0.0,0.0,0.0,0.0,0.0,0.0,0.0,0.0,0.0,0.0,0.0,0.0,0.0,0.0,0.0,0.0,0.0,0.0,0.0,0.0,0.0,0.0,0.0,0.0,0.0,0.0,0.0,0.0,0.0,0.0,0.0,0.0,0.0,0.0,0.0,0.0,0.0,0.0,0.0,0.0,0.0,0.0,0.0,0.0,0.0,0.0,0.0,0.0,0.0,0.0,0.0,0.0,0.0,0.0,0.0,0.0,0.0,0.0,-2.5711,-2.8602,-3.0529,-3.06,-3.1974,-3.29,-3.29,-3.1492,-3.0264,-2.9444,0.0,0.0,0.0,0.0,0.0,0.0,0.0,0.0,0.0,0.0,0.0,0.0,0.0,0.0,0.0,0.0,0.0,0.0,0.0,0.0,0.0,0.0,0.0,0.0,0.0,0.0,0.0,0.0,0.0,0.0,0.0,0.0,0.0,0.0,0.0,0.0,0.0,0.0,0.0,0.0,0.0,0.0,0.0,0.0,0.0,0.0,0.0,0.0,0.0,0.0,0.0,0.0,0.0,0.0,0.0,0.0,0.0,0.0,0.0,0.0,-3.0283,0.0,0.0,0.0,0.0,0.0,0.0,0.0,0.0,0.0,0.0,0.0,0.0,0.0,0.0,0.0,0.0,0.0,0.0,0.0,0.0,0.0,0.0,0.0,0.0,0.0,0.0,0.0,0.0,0.0,0.0,0.0,0.0,0.0,0.0,0.0,0.0,0.0,0.0,0.0,0.0,0.0,-2.655,-2.8941,-3.0743,-3.1385,-3.2329,-3.29,-3.29,-3.1963,-3.0777,-2.9422,0.0,0.0,0.0,0.0,0.0,0.0,0.0,0.0,0.0,0.0,0.0,0.0,0.0,0.0,0.0,0.0,0.0,0.0,0.0,0.0,0.0,0.0,0.0,0.0,0.0,0.0,0.0,0.0,0.0,0.0,0.0,0.0,0.0,0.0,0.0,0.0,0.0,0.0,0.0,0.0,0.0,0.0,0.0,0.0,0.0,0.0,0.0,0.0,0.0,0.0,0.0,0.0,0.0,0.0,0.0,0.0,0.0,0.0,0.0,0.0,0.0,-3.2048,0.0,0.0,0.0,0.0,0.0,0.0,0.0,0.0,0.0,0.0,0.0,0.0,0.0,0.0,0.0,0.0,0.0,0.0,0.0,0.0,0.0,0.0,0.0,0.0,0.0,0.0,0.0,0.0,0.0,0.0,0.0,0.0,0.0,0.0,0.0,0.0,0.0,0.0,0.0,0.0,-2.7335,-2.9283,-3.0814,-3.1599,-3.2418,-3.2884,-3.2836,-3.2076,-3.1087,-2.9849,-2.8655,0.0,0.0,0.0,0.0,0.0,0.0,0.0,0.0,0.0,0.0,0.0,0.0,0.0,0.0,0.0,0.0,0.0,0.0,0.0,0.0,0.0,0.0,0.0,0.0,0.0,0.0,0.0,0.0,0.0,0.0,0.0,0.0,0.0,0.0,0.0,0.0,0.0,0.0,0.0,0.0,0.0,0.0,0.0,0.0,0.0,0.0,0.0,0.0,0.0,0.0,0.0,0.0,0.0,0.0,0.0,-4.0453,-4.0453,-4.0453,-4.0303,-3.753,-3.5991,-3.5476,0.0,0.0,0.0,0.0,0.0,0.0,0.0,0.0,0.0,0.0,0.0,0.0,0.0,0.0,0.0,0.0,0.0,0.0,0.0,0.0,0.0,0.0,0.0,0.0,0.0,-2.9786,-2.9244,0.0,0.0,0.0,0.0,0.0,0.0,0.0,0.0,0.0,0.0,0.0,0.0,-2.8142,-2.9747,-3.1028,-3.1813,-3.2507,-3.2868,-3.2823,-3.2168,-3.141,-3.0535,-2.9145,-2.7377,0.0,0.0,0.0,0.0,0.0,0.0,0.0,0.0,0.0,0.0,0.0,0.0,0.0,0.0,0.0,0.0,0.0,0.0,0.0,0.0,0.0,0.0,0.0,0.0,0.0,0.0,0.0,0.0,0.0,0.0,0.0,0.0,-2.8477,-2.8629,0.0,0.0,0.0,0.0,0.0,0.0,0.0,0.0,0.0,0.0,0.0,0.0,0.0,0.0,-4.0416,-4.1003,-4.177,-4.2748,-4.3378,-4.3731,-4.3844,-4.3844,-4.3844,-4.3825,-4.3375,0.0,-3.8932,-3.8932,0.0,0.0,0.0,0.0,0.0,0.0,0.0,0.0,0.0,0.0,0.0,0.0,0.0,0.0,0.0,0.0,0.0,0.0,0.0,0.0,0.0,0.0,-3.2084,-3.2131,-3.2669,-3.2863,0.0,-2.985,-2.8038,-2.7058,0.0,0.0,0.0,0.0,0.0,0.0,0.0,0.0,-2.9105,-3.0582,-3.1849,-3.2668,-3.2829,-3.2868,-3.2823,-3.2601,-3.2094,-3.1217,-3.0326,-2.9066,-2.7344,-2.5284,0.0,0.0,0.0,0.0,0.0,0.0,0.0,0.0,0.0,0.0,0.0,0.0,0.0,0.0,0.0,0.0,0.0,0.0,0.0,0.0,0.0,0.0,0.0,0.0,0.0,0.0,0.0,0.0,0.0,-2.8664,-3.0111,-3.1446,-3.1952,-3.2338,0.0,0.0,0.0,0.0,0.0,0.0,0.0,0.0,0.0,-4.0195,-4.138,-4.2844,-4.4511,-4.4737,-4.5515,-4.683,-4.7158,-4.7312,-4.7312,-4.7312,-4.7312,-4.7312,-4.7312,-4.6223,-4.4284,-4.2444,-4.0947,-3.9821,0.0,0.0,0.0,0.0,0.0,-3.7254,-3.7255,0.0,0.0,0.0,0.0,0.0,0.0,0.0,0.0,0.0,0.0,0.0,0.0,0.0,0.0,-3.4559,-3.4945,-3.5064,-3.457,-3.3601,-3.2047,0.0,-2.8505,-2.8087,-2.7622,0.0,0.0,0.0,0.0,0.0,-3.0529,-3.1278,-3.2025,-3.2811,-3.287,-3.2787,-3.2706,-3.2607,-3.2154,-3.1296,-3.0911,-2.9808,-2.7771,-2.675,-2.545,0.0,0.0,0.0,0.0,0.0,0.0,0.0,0.0,0.0,0.0,0.0,0.0,0.0,0.0,0.0,0.0,0.0,0.0,0.0,0.0,0.0,0.0,0.0,0.0,0.0,0.0,0.0,0.0,-3.0569,-3.2142,-3.3921,-3.4693,-3.5285,0.0,0.0,0.0,0.0,0.0,0.0,-3.9941,-4.2337,-4.3682,-4.3682,-4.5199,-4.6687,-4.8131,-4.802,-4.8698,-5.0109,-5.0109,-5.0109,-5.0109,-5.0109,-5.0109,-5.0109,-5.0109,-4.9753,-4.8908,-4.581,-4.3914,-4.2887,-4.2299,-4.1548,0.0,-4.0622,-4.0446,-4.028,-4.009,-3.9935,-3.9672,-3.8831,0.0,-3.6891,-3.6309,0.0,0.0,0.0,0.0,-3.4761,-3.5294,0.0,-3.5793,-3.645,-3.6762,-3.6791,-3.6389,-3.6304,-3.5271,0.0,-3.0898,-3.0473,-2.9649,0.0,0.0,0.0,0.0,-3.0475,-3.1829,-3.2188,-3.2616,-3.3384,-3.3425,-3.3272,-3.2941,-3.284,-3.2438,-3.1562,-3.13,-3.0422,-2.8667,-2.8017,-2.6908,-2.5204,0.0,0.0,0.0,0.0,0.0,0.0,0.0,0.0,0.0,0.0,0.0,0.0,0.0,0.0,0.0,0.0,0.0,0.0,0.0,0.0,0.0,0.0,0.0,0.0,0.0,0.0,0.0,0.0,0.0,-3.5025,-3.71,0.0,0.0,0.0,0.0,-4.0866,-4.1681,-4.2526,-4.3398,-4.5805,-4.715,-4.715,-4.8694,-4.993,-5.0715,-5.064,-5.0996,-5.178,-5.178,-5.178,-5.178,-5.178,-5.178,-5.178,-5.178,-5.1762,-5.1518,-4.8983,-4.6993,-4.551,-4.5472,-4.4965,-4.4144,-4.3407,-4.2987,-4.2712,-4.1932,-4.159,-4.1363,-4.0546,-3.9157,-3.7819,-3.7782,-3.7219,0.0,0.0,-3.6421,-3.6371,-3.6339,-3.6838,-3.7382,-3.7437,-3.801,-3.8313,-3.7356,-3.7143,-3.6604,0.0,-3.3737,-3.2958,-3.2162,0.0,-3.0693,-3.0729,-3.1222,-3.1885,-3.2721,-3.3508,-3.4258,-3.5025,-3.5011,-3.464,-3.3808,-3.367,-3.3283,-3.2388,-3.1616,-3.1158,-3.1019,-2.8877,-2.7648,-2.7526,-2.5362,0.0,0.0,0.0,0.0,0.0,0.0,0.0,0.0,0.0,0.0,0.0,0.0,0.0,0.0,0.0,0.0,0.0,0.0,0.0,0.0,0.0,0.0,0.0,0.0,0.0,0.0,0.0,0.0,-3.8147,-3.9555,0.0,0.0,-4.2185,-4.2924,-4.4308,-4.516,-4.5994,-4.6866,-4.878,-4.986,-4.986,-5.0851,-5.2042,-5.341,-5.3252,-5.3849,-5.517,-5.5138,-5.4822,-5.4279,-5.4279,-5.4015,-5.3508,-5.3508,-5.3226,-5.2679,-5.1778,-5.0109,-4.8082,-4.7519,-4.6824,-4.6058,-4.5791,-4.554,-4.5331,-4.5051,-4.4534,-4.3763,-4.2389,-4.1181,-4.0271,-4.0271,-4.0067,-3.983,-3.9667,-3.9608,-3.9564,-3.9448,-3.9622,-3.9827,-3.9827,-4.0047,-4.0111,-3.9619,-3.9112,-3.8553,-3.7827,-3.62,-3.4844,-3.4555,-3.4143,-3.382,-3.382,-3.3892,-3.4062,-3.4347,-3.4633,-3.4901,-3.5169,-3.5101,-3.4925,-3.4606,-3.397,-3.3442,-3.3125,-3.2388,-3.1739,-3.1212,-3.0387,-2.9228,-2.7719,-2.6908,-2.5858,0.0,0.0,0.0,0.0,0.0,0.0,0.0,0.0,0.0,0.0,0.0,0.0,0.0,0.0,0.0,0.0,0.0,0.0,0.0,0.0,0.0,0.0,0.0,0.0,0.0,0.0,-3.8574,-4.0728,-4.1924,-4.3106,-4.445,-4.5059,-4.5956,-4.734,-4.8211,-4.9045,-4.9898,-5.1547,-5.2456,-5.2456,-5.3474,-5.4546,-5.5631,-5.55,-5.5965,-5.699,-5.6939,-5.6622,-5.6042,-5.6042,-5.5592,-5.4803,-5.4803,-5.4352,-5.3599,-5.3599,-5.2475,-5.0654,-4.979,-4.8964,-4.8213,-4.795,-4.7544,-4.7105,-4.6762,-4.6238,-4.5472,-4.4079,-4.3076,-4.2352,-4.2092,-4.1813,-4.156,-4.1357,-4.1292,-4.128,-4.1126,-4.1095,-4.1095,-4.1095,-4.1095,-4.1027,-4.0842,-4.0371,-3.9973,-3.9802,-3.7848,-3.62,-3.62,-3.582,-3.5491,-3.5491,-3.5323,-3.5293,-3.5578,-3.5614,-3.5721,-3.5989,-3.5865,-3.5668,-3.5385,-3.471,-3.4056,-3.3529,-3.3038,-3.2423,-3.1633,-3.1335,-3.0473,-2.8912,-2.8105,-2.7069,-2.5805,0.0,0.0,0.0,0.0,0.0,0.0,0.0,0.0,0.0,0.0,0.0,0.0,0.0,0.0,0.0,0.0,0.0,0.0,0.0,0.0,0.0,0.0,0.0,-3.647,-3.8754,-4.0941,-4.2581,-4.4184,-4.5487,-4.6333,-4.7827,-4.9078,-4.9931,-5.0789,-5.1628,-5.2442,-5.4048,-5.4958,-5.4977,-5.655,-5.739,-5.7348,-5.7332,-5.7251,-5.7101,-5.7065,-5.703,-5.6961,-5.6942,-5.6455,-5.5593,-5.5593,-5.5124,-5.4409,-5.4409,-5.3939,-5.3149,-5.2287,-5.1442,-5.0651,-4.9865,-4.8946,-4.7927,-4.6894,-4.6531,-4.6401,-4.5602,-4.4748,-4.3893,-4.3113,-4.2314,-4.1635,-4.1431,-4.1366,-4.1354,-4.1199,-4.1168,-4.1168,-4.1168,-4.1168,-4.1119,-4.0933,-4.0863,-4.0775,-4.0564,-3.8681,-3.7104,-3.7067,-3.6235,-3.5563,-3.5563,-3.5395,0.0,-3.6328,-3.6435,-3.672,-3.7505,-3.7428,-3.6978,-3.6199,-3.5925,-3.5161,-3.3669,-3.3529,-3.3178,-3.2458,-3.1651,-3.1246,-3.1194,-2.893,-2.742,-2.6704,0.0,0.0,0.0,0.0,0.0,0.0,0.0,0.0,0.0,0.0,0.0,0.0,0.0,0.0,0.0,0.0,0.0,0.0,0.0,0.0,0.0,0.0,-3.8131,-3.8294,-3.9966,-4.1991,-4.4249,-4.5422,-4.683,-4.8802,-4.9345,-5.0163,-5.1604,-5.2532,-5.3366,-5.4181,-5.5242,-5.6114,-5.6683,-5.7156,-5.7687,-5.8299,-5.8216,-5.8469,-5.9026,-5.8919,-5.8564,-5.7981,-5.7893,-5.7068,-5.5732,-5.5628,-5.5124,-5.4409,-5.4409,-5.4277,-5.3996,-5.3151,-5.2306,-5.1536,-5.133,-5.0598,-4.9517,-4.7917,-4.7367,-4.7237,-4.642,-4.5602,-4.4896,-4.4674,-4.4023,-4.3305,-4.3169,-4.3121,-4.307,-4.2887,-4.2837,-4.2837,-4.2837,-4.2837,-4.2785,-4.2575,-4.2084,-4.1612,-4.1397,-4.0383,-3.9352,-3.8685,-3.7842,-3.7199,-3.7111,0.0,0.0,-3.7238,-3.7274,-3.7326,-3.7431,-3.7372,-3.717,-3.6866,-3.6204,-3.5617,0.0,-3.4125,-3.3406,-3.3213,-3.2458,-3.1791,-3.1212,-3.0036,-2.9351,0.0,0.0,0.0,0.0,0.0,0.0,0.0,0.0,0.0,0.0,0.0,0.0,0.0,0.0,0.0,0.0,0.0,0.0,0.0,0.0,0.0,0.0,-3.8712,-4.0908,-4.1543,-4.2469,-4.3892,-4.6037,-4.6969,-4.8268,-5.038,-5.0819,-5.1509,-5.2854,-5.4067,-5.4958,-5.5413,-5.6588,-5.746,-5.7933,-5.8274,-5.8691,-5.92,-5.9117,-5.9332,-5.9809,-5.9723,-5.9405,-5.8899,-5.8828,-5.7887,0.0,-5.624,-5.5512,-5.4441,-5.4407,-5.4409,0.0,0.0,0.0,0.0,0.0,-5.0939,-5.0208,-4.877,-4.8255,-4.8073,-4.7256,-4.668,-4.6178,-4.5491,-4.4952,-4.4438,-4.3946,-4.3804,-4.3754,-4.3549,-4.3515,-4.3515,-4.3515,-4.3515,-4.3427,-4.3232,-4.2832,-4.245,-4.2249,0.0,0.0,-4.0221,-3.9175,-3.8367,-3.8223,-3.7864,-3.7595,0.0,-3.7595,-3.754,-3.7411,-3.7353,-3.7259,-3.7108,-3.6607,0.0,0.0,0.0,-3.4318,-3.4021,-3.36,0.0,0.0,0.0,-3.1511,0.0,0.0,0.0,0.0,-2.9446,-2.9658,0.0,0.0,0.0,0.0,0.0,0.0,0.0,0.0,0.0,0.0,0.0,0.0,0.0,0.0,0.0,0.0,-4.1586,-4.3704,-4.5222,-4.5613,-4.6271,-4.778,-4.8612,-4.9689,-5.137,-5.2161,-5.2949,-5.3916,-5.5356,-5.6285,-5.6474,0.0,0.0,0.0,0.0,-5.9902,-5.9902,-5.9902,-5.9872,-5.9826,-5.9826,-5.9757,-5.9614,-5.9633,-5.8765,-5.7255,-5.7079,-5.6122,-5.4653,-5.4478,-5.4409,-5.4409,-5.4409,-5.3958,-5.3132,-5.1476,-5.0738,0.0,0.0,0.0,0.0,-4.8073,-4.7776,-4.7423,-4.5992,-4.5509,-4.5217,-4.4239,-4.3933,-4.3865,-4.3584,-4.3515,-4.3515,-4.3515,-4.3479,-4.3445,-4.3232,-4.3178,-4.3123,-4.2957,-4.2321,-4.1776,-4.1568,-4.0254,-3.9157,-3.8921,-3.8239,0.0,-3.7613,-3.7595,-3.754,-3.7411,0.0,0.0,-3.7108,-3.7029,-3.6708,-3.5968,-3.5845,-3.5478,-3.4723,-3.4706,-3.4706,-3.4706,-3.3985,-3.3634,-3.3634,-3.3634,-3.3545,-3.3289,-3.1933,-3.1566,0.0,0.0,0.0,0.0,0.0,0.0,0.0,0.0,0.0,0.0,0.0,0.0,0.0,0.0,0.0,-4.1757,-4.3723,-4.5236,-4.6129,-4.7474,-4.8498,-4.8812,-4.9499,-5.0589,-5.222,-5.3071,-5.414,-5.5602,-5.6019,-5.6777,-5.8142,-5.8521,0.0,-5.9639,-5.9826,-5.9902,-5.9902,-5.9902,-5.9885,-5.9888,0.0,0.0,-5.9836,-5.9791,-5.919,-5.8205,-5.7425,-5.6526,-5.5565,-5.4804,-5.4458,-5.4409,-5.4409,-5.4296,-5.4035,-5.2938,-5.2066,-5.1325,-5.0401,-4.9553,-4.8872,-4.8723,-4.824,-4.7646,-4.733,-4.6773,0.0,-4.5119,-4.4814,-4.4583,-4.38,-4.3531,-4.3515,-4.3515,-4.3464,-4.3376,-4.3233,-4.316,-4.3068,-4.2938,-4.2755,-4.2608,-4.2415,-4.1026,-3.9713,-3.8953,-3.8665,-3.8326,-3.7684,-3.7595,-3.7539,-3.7334,-3.7297,-3.722,-3.7046,-3.7007,-3.6937,-3.6796,-3.6162,-3.5478,-3.4723,-3.4706,-3.4706,-3.4706,-3.4547,-3.446,-3.446,-3.446,-3.4367,-3.4161,-3.3848,-3.3701,0.0,0.0,0.0,0.0,0.0,0.0,0.0,0.0,0.0,0.0,0.0,-3.6507,0.0,0.0,-4.2456,-4.447,-4.6215,-4.742,-4.7753,-4.8888,-4.9538,-4.9148,-5.014,-5.1319,-5.2539,-5.3359,-5.4472,-5.6118,-5.66,-5.7346,-5.8631,-5.907,-5.9468,-5.9885,-5.9902,-5.9902,-5.9902,-5.9902,-5.9902,-5.9902,-5.9902,-5.9902,-5.9885,-5.9855,-5.9384,-5.8551,-5.7619,-5.6719,-5.5872,-5.4893,-5.4455,-5.4409,-5.4409,-5.4409,-5.4296,-5.342,-5.2527,-5.1619,-5.0693,-4.977,-4.8979,-4.8926,-4.863,-4.824,-4.7813,-4.7423,-4.6904,-4.5951,-4.5645,-4.5394,-4.4498,-4.4191,-4.3993,-4.3606,-4.3464,-4.3358,-4.3233,-4.3142,-4.3049,-4.2938,-4.2901,-4.2843,-4.2631,-4.1944,-4.1076,-4.0094,-3.9289,-3.8665,-3.8255,-3.7863,-3.7539,-3.7354,-3.7316,-3.7239,-3.705,-3.7009,-3.7007,-3.7007,-3.6619,-3.6233,-3.5883,-3.5848,-3.5848,-3.5848,-3.5848,-3.5848,-3.5848,-3.6215,-3.6311,-3.611,-3.6513,-3.5957,0.0,0.0,0.0,0.0,0.0,0.0,0.0,0.0,-3.6712,-3.8392,-3.8873,-3.9931,-4.3028,-4.4259,-4.532,-4.6925,-4.8323,-4.9231,-4.9331,-4.9882,-5.0111,-4.9633,-5.0866,-5.2069,-5.2876,-5.3628,-5.4757,-5.6434,-5.71,-5.787,-5.8894,-5.9541,-5.9902,-5.9902,-5.9902,-5.9902,-5.9902,-5.9902,-5.9902,-5.9902,-5.9902,-5.9902,-5.9902,-5.9902,-5.956,-5.8862,-5.7794,-5.6819,-5.5917,-5.4942,-5.4489,-5.4407,-5.4409,-5.4409,-5.4315,-5.3658,-5.2726,-5.1686,-5.0912,-4.9969,-4.9084,-4.8943,-4.8909,-4.8779,-4.8129,-4.7924,-4.774,-4.6837,-4.6494,-4.6243,-4.538,-4.5054,-4.4727,-4.392,-4.3666,-4.3523,-4.3269,-4.3142,-4.303,-4.2919,-4.2901,-4.2843,-4.2631,-4.2609,-4.2261,-4.1256,-4.0039,-3.9147,-3.8825,-3.8237,-3.7718,-3.7447,-3.7353,-3.7239,-3.7089,-3.7029,-3.7007,-3.7007,-3.7007,-3.7007,-3.7007,-3.7007,-3.7077,-3.7218,-3.7218,-3.7306,-3.7464,-3.8041,-3.8233,-3.8059,-3.8707,-3.7887,-3.3142,-3.3367,-3.3782,-3.3776,-3.5045,-3.6481,0.0,0.0,-3.9354,-4.1027,-4.1989,-4.3104,-4.4979,-4.6028,-4.7126,-4.867,-4.9071,-4.9441,-5.0065,-5.0245,-5.055,-5.1238,-5.2117,-5.2958,-5.3772,-5.4579,-5.5715,-5.7325,-5.7479,-5.8175,-5.977,-5.9877,-5.9902,-5.9902,-5.9902,-5.9902,-5.9902,-5.9902,-5.9902,-5.9902,-5.9902,-5.9902,-5.9902,-5.9902,-5.9847,-5.9677,-5.8085,-5.6848,-5.5917,-5.5044,-5.4606,-5.4489,-5.4424,-5.4409,-5.439,-5.4296,-5.3213,-5.178,-5.1602,-5.0473,-4.9084,-4.8943,-4.8909,-4.889,-4.8797,-4.8779,-4.8593,-4.7759,-4.7416,-4.7073,-4.6279,-4.5917,-4.5571,-4.4764,-4.4419,-4.409,-4.336,-4.305,-4.2919,-4.2901,-4.2901,-4.2843,-4.2631,-4.2609,-4.2261,-4.1256,-4.0949,-4.036,-3.8986,-3.8736,-3.8323,-3.7482,-3.7353,-3.722,-3.7029,-3.6989,-3.7007,-3.7007,-3.7007,-3.7007,-3.7007,-3.7007,-3.7323,-3.797,-3.7988,-3.8339,-3.9038,-3.9147,-3.9077,-3.8864,-3.8951,-3.8716,-3.5219,-3.583,0.0,0.0,-3.8046,-3.9142,-4.0008,-4.1258,-4.2547,-4.3758,-4.4701,-4.5817,-4.749,-4.8105,-4.8712,0.0,-4.9984,-5.0046,-5.0321,-5.0325,-5.0799,-5.2136,-5.2594,-5.3117,-5.3989,-5.4752,-5.5889,-5.7525,-5.7606,-5.8303,-5.9962,-6.0026,-6.001,-6.001,-5.9982,-5.9966,-5.9966,-5.9918,-5.9902,-5.9902,-5.9902,-5.9902,-5.9902,-5.9902,-5.9639,-5.9127,-5.7914,-5.6863,-5.5952,-5.5108,-5.4673,-5.4505,-5.4472,-5.4441,-5.4409,-5.4409,-5.3322,-5.1846,-5.1763,-5.0613,-4.9131,-4.9049,-4.8962,-4.8909,-4.8909,-4.8909,-4.8834,-4.85,-4.825,-4.7904,-4.711,-4.6745,-4.6287,-4.4984,-4.4547,-4.4181,-4.3379,-4.305,-4.2901,-4.2901,-4.2901,-4.2843,-4.2631,-4.2609,-4.2422,-4.1882,-4.1395,-4.0877,-4.0217,-3.9361,-3.843,-3.75,-3.7353,-3.7239,-3.7069,-3.7029,-3.7007,-3.7007,-3.7007,-3.72,-3.7619,-3.7637,-3.8006,-3.8796,-3.8813,-3.895,-3.9284,-3.9779,-3.9882,-3.966,-4.0078,-4.0157,-3.6909,0.0,0.0,-3.9477,-4.0439,-4.1489,-4.2604,-4.3797,-4.497,-4.6047,-4.6971,-4.7971,-4.9183,-4.9606,-4.9933,-5.0517,-5.0572,-5.05,-5.0412,-5.0558,-5.1204,-5.2633,-5.3015,-5.3492,-5.4371,-5.4944,-5.5935,-5.7633,-5.7677,-5.8377,-6.0072,-6.0118,-6.0099,-6.0099,-6.0057,-6.0026,-6.0026,-5.9979,-5.995,-5.9934,-5.9934,-5.9918,-5.9902,-5.9902,-5.9579,-5.8992,-5.8123,-5.7239,-5.6324,-5.5479,-5.4909,-5.4571,-5.4522,-5.4472,-5.4424,-5.4409,-5.3489,-5.2196,-5.1907,-5.0829,-4.9531,-4.921,-4.9032,-4.8962,-4.8909,-4.8909,-4.8909,-4.8909,-4.875,-4.8458,-4.7867,-4.7592,-4.7021,-4.5424,-4.4913,-4.4491,-4.3433,-4.3068,-4.2938,-4.2919,-4.2901,-4.2843,-4.2688,-4.2629,-4.255,-4.2387,-4.1826,-4.1341,-4.1127,-3.9753,-3.8538,-3.782,-3.7496,-3.7279,-3.7166,-3.7087,-3.7117,-3.7345,-3.7306,-3.7637,-3.8409,-3.8424,-3.8813,-3.9621,-3.9638,-3.9743,-3.9954,-4.0516,-4.067,-4.0421,-4.0965,-4.1071,-3.7752,-3.9169,-4.0439,-4.0458,-4.1739,-4.3451,-4.5114,-4.5518,-4.6037,-4.7682,-4.8721,-4.9336,-4.9394,-5.0087,-5.0654,-5.0613,-5.0593,-5.0562,-5.0424,-5.114,-5.1939,-5.2702,-5.355,-5.4409,0.0,-5.5384,-5.6091,-5.7772,-5.778,-5.8463,-6.0203,-6.0167,-6.0099,-6.0099,-6.0084,-6.0103,-6.0103,-6.0084,-6.0072,-5.9994,-5.9994,-5.9966,-5.9902,-5.9902,-5.9885,-5.9826,-5.8995,-5.8161,-5.7273,-5.6343,-5.5501,-5.4767,-5.4571,-5.4505,-5.4489,-5.4424,-5.3864,-5.3019,-5.213,-5.1256,-5.0399,-4.9413,-4.9101,-4.9084,-4.8926,-4.8909,-4.8909,-4.8909,-4.875,-4.8605,-4.8587,-4.8402,-4.7865,-4.625,-4.581,-4.5297,-4.3561,-4.3142,-4.3067,-4.2938,-4.2901,-4.2881,-4.2803,-4.2686,-4.2588,-4.2503,-4.2348,-4.1966,-4.1199,-3.9753,-3.8752,-3.8567,-3.7855,-3.7373,-3.7297,-3.7166,-3.7424,-3.8199,-3.8154,-3.8444,-3.9231,-3.9249,-3.9638,-4.045,-4.0467,-4.0836,-4.1534,-4.1552,-4.1418,-4.1174,-4.1192,-4.1071,-3.9284,-4.0489,-4.1623,-4.2739,-4.3902,-4.5047,-4.6201,-4.6874,-4.7413,-4.799,-4.8336,-4.8548,-4.8548,-4.924,-4.9837,-4.9817,-5.0258,-5.0582,-5.0551,-5.1204,-5.1989,-5.2769,-5.3593,0.0,0.0,0.0,0.0,-5.7772,-5.7859,-5.8571,-6.0284,-6.0313,-6.0299,-6.0299,-6.026,-6.0231,-6.0231,-6.0133,-6.0103,-6.0072,-6.0072,-6.0026,-5.9982,-5.9982,-5.995,-5.9864,-5.9051,-5.8199,-5.7327,-5.6481,-5.5602,-5.4783,-5.4736,-5.4622,-5.4505,-5.4472,-5.4272,-5.3789,-5.2367,-5.1305,-5.0453,-4.9524,-4.9183,-4.9084,-4.9049,-4.8979,-4.8909,-4.8909,-4.8821,-4.8715,-4.8623,-4.8532,-4.7996,-4.6305,-4.5847,-4.5315,-4.3579,-4.3142,-4.3049,-4.2938,-4.2901,-4.2881,-4.2822,-4.2688,-4.255,-4.2387,-4.2346,-4.2002,-4.1199,-4.0646,-4.0091,-3.9517,-3.9174,-3.8974,-3.8954,-3.8839,-3.8866,-3.9085,-3.9062,-3.9353,-4.0081,-4.0116,-4.0446,-4.12,-4.1218,-4.1341,-4.1604,-4.1604,-4.1453,-4.1209,-4.1209,-4.1071,-4.0585,-4.1816,-4.3028,-4.4412,-4.5413,-4.6297,-4.7144,-4.774,-4.8105,-4.8105,-4.8105,-4.8105,-4.8105,-4.8567,-4.9048,-4.9356,-4.9827,-5.0277,-5.0565,-5.1519,-5.2384,-5.2878,-5.391,0.0,0.0,0.0,0.0,-5.7791,-5.8173,-5.8937,-6.0332,-6.0403,-6.0403,-6.0403,-6.0366,-6.0337,-6.0337,-6.0241,-6.0212,-6.0167,-6.0133,-6.0087,-6.0041,-6.0041,-6.001,-5.9944,-5.94,-5.8511,-5.7392,-5.685,-5.5913,-5.4829,-5.4799,-5.472,-5.4587,-5.4538,-5.4472,-5.4253,-5.2848,-5.1785,-5.0914,-5.0054,-4.9473,-4.9133,-4.9101,-4.9015,-4.8909,-4.8909,-4.8839,-4.8769,-4.8623,-4.855,-4.8052,-4.6305,-4.5883,-4.5352,-4.3579,-4.3178,-4.3105,-4.2938,-4.2901,-4.29,-4.2842,-4.2707,-4.255,-4.2387,-4.2328,-4.2111,-4.1591,-4.127,-4.0895,-4.0396,-4.0034,-3.9834,-3.9834,-3.9738,-3.978,-4.0038,-3.9956,-4.0225,-4.0936,-4.0928,-4.1113,-4.1587,-4.1604,-4.1604,-4.1604,-4.1604,-4.1453,-4.1209,-4.1209,-4.1071,-4.1681,-4.3085,-4.4509,-4.5441,-4.6297,-4.7096,-4.7932,-4.8067,-4.8029,-4.799,-4.7952,-4.7894,0.0,0.0,-4.824,-4.9067,-4.9317,-4.9663,-5.044,-5.2014,-5.3067,0.0,0.0,0.0,0.0,0.0,0.0,-5.79,0.0,-5.9491,-6.0365,-6.0403,-6.0403,-6.0403,-6.0403,-6.0403,-6.0403,-6.0403,-6.038,-6.0294,-6.0182,-6.0099,-6.0118,-6.0118,-6.0118,-6.0103,-6.0026,-5.9083,-5.7563,-5.7449,-5.6436,-5.4962,-5.4848,-5.4799,-5.4767,-5.4587,-5.4522,-5.4392,-5.3558,-5.2679,-5.1764,-5.0895,-4.9971,-4.9197,-4.9135,-4.8996,-4.8909,-4.8909,-4.8839,-4.8787,-4.8642,-4.8514,-4.8016,-4.6324,-4.5865,-4.5352,-4.3597,-4.3196,-4.3142,-4.2957,-4.2901,-4.2901,-4.29,-4.2728,-4.2588,-4.2503,-4.2387,-4.2308,-4.2308,-4.1627,-4.1163,-4.1163,-4.0485,-4.0019,-4.0019,-3.9959,-4.0257,-4.1019,-4.0813,-4.1004,-4.1784,-4.167,-4.1604,-4.1604,-4.1604,-4.1604,-4.1604,-4.1604,-4.1453,-4.1209,-4.1209,-4.1111,-4.3085,-4.397,-4.4662,-4.6182,-4.674,-4.7096,-4.7932,-4.7644,-4.7028,-4.6374,-4.572,-4.5086,0.0,0.0,0.0,-4.6537,-4.8163,0.0,-4.9683,-5.168,0.0,-5.3067,0.0,-5.6534,-5.6757,-5.7845,0.0,0.0,-5.9002,-5.9491,-6.0365,-6.0403,-6.0403,-6.0403,-6.0403,-6.0403,-6.0403,-6.0403,-6.0389,-6.0361,-6.0347,-6.0304,-6.025,-6.025,-6.0182,-6.0099,-6.0068,-5.9467,-5.8418,-5.7757,-5.6839,-5.5811,-5.5117,-5.4845,-5.4783,-5.4752,-5.4638,-5.4468,-5.4244,-5.3163,-5.1762,-5.0938,-5.0049,-4.926,-4.9197,-4.9116,-4.9032,-4.8926,-4.8891,-4.8856,-4.8768,-4.8217,-4.7407,-4.6322,-4.5515,-4.4691,-4.3595,-4.3269,-4.3178,-4.3068,-4.2975,-4.2881,-4.2823,-4.2783,-4.2686,-4.2524,-4.2483,-4.2425,-4.2308,-4.2109,-4.1984,-4.1984,-4.1805,-4.168,-4.168,-4.166,-4.1709,-4.1801,-4.1708,-4.169,-4.1801,-4.167,-4.1604,-4.1604,-4.1604,-4.1604,-4.1604,-4.1604,-4.1498,-4.134,-4.1255,-4.1134,-4.3912,-4.4855,-4.5682,-4.6663,-4.7173,-4.7451,-4.7548,-4.6932,-4.6086,-4.5201,-4.4355,0.0,-4.3181,0.0,0.0,0.0,0.0,0.0,-4.9298,-5.1557,-5.3285,0.0,-5.5566,0.0,-5.7872,-5.8732,-5.9402,0.0,-5.9718,-5.9873,-6.037,-6.0403,-6.0403,-6.0403,-6.0403,-6.0403,-6.0403,-6.0403,-6.0403,-6.0403,-6.0403,-6.0375,-6.0337,-6.0337,-6.0304,-6.0241,0.0,-5.9691,-5.8847,-5.8296,-5.7343,-5.6194,-5.5674,-5.5212,-5.4845,-5.4799,-5.4736,-5.4622,-5.4538,-5.34,-5.1904,-5.1383,-5.0362,-4.9292,-4.9211,-4.9166,-4.9084,-4.8926,-4.8909,-4.8799,-4.8377,-4.7845,-4.7073,-4.5824,-4.511,-4.4453,-4.3594,-4.3286,-4.316,-4.3031,-4.2938,-4.29,-4.2861,-4.2822,-4.2745,-4.2645,-4.2564,-4.2483,-4.2405,-4.2346,-4.2308,-4.2308,-4.2308,-4.2308,-4.2308,-4.2308,-4.2267,-4.2187,-4.2072,-4.1984,-4.1884,-4.1692,-4.1604,-4.1604,-4.1604,-4.1604,-4.1604,-4.1604,-4.1538,-4.1403,-4.1318,-4.1221,-4.4449,-4.5661,-4.6912,-4.6912,-4.745,-4.7739,-4.6922,-4.6065,-4.5161,-4.4179,0.0,-4.2775,-4.2766,-4.2766,-4.3324,-4.4998,0.0,-4.7317,-4.899,-5.1414,-5.3395,-5.4376,-5.6025,-5.7712,-5.9257,-5.9458,-5.9792,-6.0559,-6.0499,-6.0431,-6.0431,-6.0417,-6.0403,-6.0403,-6.0403,-6.0403,-6.0403,-6.0403,-6.0403,-6.0403,-6.0403,-6.0403,-6.0403,-6.0403,-6.0403,-6.0389,0.0,0.0,-5.915,-5.8908,-5.7882,-5.6443,-5.6258,-5.5678,-5.4886,-5.4829,-5.4799,-5.4767,-5.4587,-5.3467,-5.2077,-5.1944,-5.0737,-4.9308,-4.923,-4.9166,-4.9083,-4.8943,-4.8909,-4.8706,-4.7857,-4.7419,-4.6851,-4.5215,-4.4687,-4.4342,-4.3594,-4.3286,-4.316,-4.2957,-4.2901,-4.2901,-4.2901,-4.2861,-4.2803,-4.2803,-4.2645,-4.2524,-4.2503,-4.2366,-4.2308,-4.2308,-4.2308,-4.2308,-4.2308,-4.2308,-4.2308,-4.2308,-4.2136,-4.2026,-4.2005,-4.1754,-4.1626,-4.1604,-4.1604,-4.1604,-4.1604,-4.1604,-4.1538,-4.1426,-4.1403,-4.1307,-4.5279,-4.6205,-4.6976,-4.6979,-4.7083,-4.6976,-4.6092,-4.5224,0.0,0.0,-4.1639,-4.1034,-4.1023,-4.1035,-4.1586,-4.3267,0.0,0.0,0.0,0.0,-5.2712,0.0,0.0,0.0,0.0,0.0,0.0,0.0,0.0,0.0,-6.0565,-6.0512,-6.0458,-6.0403,-6.0403,-6.0403,-6.0403,-6.0403,-6.0403,-6.0403,-6.0403,-6.0403,-6.0403,-6.0403,-6.0403,-6.0403,0.0,0.0,-6.0012,-5.92,-5.8251,-5.7222,-5.6486,-5.5678,-5.4901,-5.4886,-5.486,-5.4802,-5.4689,-5.355,-5.2077,-5.1944,-5.0788,-4.9424,-4.9262,-4.9197,-4.9148,-4.896,-4.8909,-4.8723,-4.7889,-4.7097,-4.6235,-4.5208,-4.4368,-4.3731,-4.3534,-4.3322,-4.3178,-4.3086,-4.2975,-4.2901,-4.2901,-4.29,-4.2862,-4.2803,-4.2782,-4.2685,-4.2524,-4.2366,-4.2308,-4.2308,-4.2308,-4.2308,-4.2308,-4.2308,-4.2308,-4.2308,-4.2163,-4.2055,-4.2005,-4.1841,-4.1714,-4.1604,-4.1604,-4.1604,-4.1604,-4.1604,-4.1582,-4.156,-4.1448,-4.138,-4.5476,-4.6336,-4.6896,-4.6433,-4.6664,-4.6645,-4.5325,0.0,0.0,0.0,-4.0561,-3.9841,-3.9383,-3.9665,0.0,-4.1605,-4.3599,0.0,0.0,0.0,0.0,0.0,0.0,0.0,0.0,0.0,0.0,0.0,0.0,0.0,-6.0604,-6.0565,-6.0539,-6.0512,-6.0499,-6.0499,-6.0499,-6.0499,-6.0485,-6.0444,-6.0444,-6.0431,-6.0403,-6.0403,-6.0403,-6.0403,0.0,0.0,-6.0313,-5.9826,-5.8819,-5.7509,-5.704,-5.6069,-5.4901,-5.4901,-5.4871,-5.4845,-5.4786,-5.3613,-5.214,-5.2027,-5.0855,-4.9474,-4.9311,-4.9228,-4.9181,-4.903,-4.8943,-4.863,-4.7386,-4.6687,-4.5973,-4.4689,-4.3962,-4.3532,-4.3445,-4.3376,-4.3269,-4.3123,-4.3049,-4.2975,-4.2901,-4.2901,-4.29,-4.2861,-4.2822,-4.2782,-4.2665,-4.2506,-4.2366,-4.2308,-4.2308,-4.2308,-4.2308,-4.2308,-4.2308,-4.2308,-4.2166,-4.2058,-4.2005,-4.1862,-4.1736,-4.1604,-4.1604,-4.1604,-4.1604,-4.1604,-4.1604,-4.1604,-4.1538,-4.1471,-4.5287,-4.6225,-4.6804,-4.5943,-4.6244,-4.6302,-4.4558,-4.3407,0.0,-4.0686,-3.956,-3.8711,-3.8202,-3.853,-3.925,0.0,-4.2445,-4.4509,0.0,0.0,0.0,0.0,0.0,0.0,0.0,0.0,0.0,0.0,0.0,0.0,0.0,-6.0629,-6.0617,-6.0604,-6.0604,-6.0604,-6.0604,-6.0604,-6.0578,-6.0525,-6.0525,-6.0485,-6.0417,-6.0417,-6.0417,-6.0403,0.0,0.0,0.0,-6.0323,-5.924,-5.7591,-5.7536,-5.6436,-5.4901,-5.4901,-5.4901,-5.4886,-5.4829,-5.3656,-5.2183,-5.2124,-5.092,-4.9474,-4.934,-4.926,-4.9181,-4.9118,-4.8996,-4.8537,-4.6921,-4.6426,-4.5916,-4.4208,-4.3669,-4.3497,-4.3429,-4.3412,-4.3359,-4.3196,-4.3123,-4.3067,-4.2957,-4.2919,-4.2901,-4.2901,-4.2861,-4.2822,-4.2803,-4.2665,-4.2506,-4.2369,-4.2328,-4.2308,-4.2308,-4.2308,-4.2308,-4.2308,-4.2205,-4.21,-4.203,-4.1905,-4.1776,-4.1648,-4.1604,-4.1604,-4.1604,-4.1604,-4.1604,-4.1604,-4.1604,-4.1538,-4.4684,-4.5863,-4.6876,-4.6005,-4.5851,-4.5464,-4.3775,0.0,-4.0745,-3.9798,-3.829,-3.735,-3.8054,-3.7603,-3.7881,-4.0214,-4.1461,-4.2984,0.0,0.0,0.0,0.0,0.0,0.0,0.0,0.0,0.0,0.0,0.0,0.0,0.0,-6.0685,-6.0648,-6.0604,-6.0604,-6.0604,-6.0604,-6.0604,-6.0591,-6.0591,-6.0591,-6.0552,-6.0485,-6.0485,-6.0458,-6.0403,0.0,0.0,0.0,-6.0323,-5.924,-5.7591,-5.7536,-5.6436,-5.4901,-5.4901,-5.4901,-5.4886,-5.4829,-5.3656,-5.2183,-5.2124,-5.092,-4.9474,-4.934,-4.926,-4.9181,-4.9118,-4.8996,-4.8537,-4.6921,-4.6494,-4.6036,-4.4225,-4.3684,-4.3565,-4.3515,-4.3446,-4.3394,-4.3376,-4.3233,-4.3086,-4.3086,-4.2975,-4.2901,-4.2901,-4.2882,-4.2862,-4.2803,-4.2783,-4.2725,-4.2589,-4.2409,-4.2308,-4.2308,-4.2308,-4.2308,-4.2308,-4.2287,-4.2225,-4.21,-4.203,-4.1923,-4.178,-4.1648,-4.1604,-4.1604,-4.1604,-4.1604,-4.1604,-4.1604,-4.1604,-4.4304,-4.5084,-4.551,-4.5162,-4.5084,-4.4639,-4.2918,0.0,-4.041,-3.9011,-3.7754,-3.6859,-3.6712,-3.6808,-3.7396,-3.8904,-4.0287,-4.2075,-4.4612,0.0,0.0,0.0,0.0,0.0,0.0,0.0,0.0,0.0,0.0,0.0,0.0,0.0,-6.0753,-6.0729,-6.0729,-6.0729,-6.0729,-6.0729,-6.0704,-6.0667,-6.0667,-6.0629,-6.0565,-6.0512,-6.0485,-6.0458,0.0,0.0,0.0,-6.0361,-5.9598,-5.8382,-5.7781,-5.6833,-5.5677,-5.5106,-5.4901,-5.4886,-5.4856,-5.3732,-5.2258,-5.2183,-5.0979,-4.9532,-4.944,-4.9311,-4.9179,-4.9164,-4.9029,-4.8537,-4.6921,-4.5718,-4.4744,-4.4031,-4.3734,-4.3582,-4.3565,-4.3515,-4.3446,-4.3412,-4.3341,-4.3251,-4.3123,-4.3067,-4.2994,-4.2901,-4.2901,-4.29,-4.2862,-4.2804,-4.2783,-4.2725,-4.2528,-4.2425,-4.2425,-4.2346,-4.2308,-4.2308,-4.2308,-4.2246,-4.2103,-4.2079,-4.1991,-4.1801,-4.1736,-4.167,-4.1604,-4.1604,-4.1604,-4.1604,-4.1604,-4.1604,-4.315,-4.3846,-4.4226,-4.4226,-4.402,-4.346,0.0,0.0,-3.9611,-3.8121,-3.7135,-3.6361,-3.58,-3.6168,-3.6917,-3.8014,-3.9399,-4.1228,-4.3781,-4.6333,0.0,0.0,0.0,0.0,0.0,0.0,0.0,0.0,0.0,0.0,0.0,0.0,-6.08,-6.08,-6.08,-6.08,-6.08,-6.08,-6.0777,-6.0722,-6.0722,-6.0685,-6.0629,-6.0591,-6.0539,0.0,0.0,0.0,0.0,-6.0403,-5.9845,-5.8916,-5.8006,-5.7101,-5.6196,-5.5283,-5.4916,-5.4901,-5.4901,-5.3758,-5.2303,-5.2228,-5.1021,-4.9593,-4.9521,-4.9377,-4.9228,-4.9214,-4.8708,-4.7924,-4.6791,-4.522,-4.3929,-4.3897,-4.38,-4.3666,-4.3599,-4.3565,-4.3515,-4.3446,-4.3394,-4.3359,-4.3215,-4.3141,-4.3067,-4.2975,-4.2938,-4.2901,-4.2901,-4.2861,-4.2823,-4.2823,-4.2685,-4.2564,-4.2503,-4.2425,-4.2346,-4.2308,-4.2308,-4.2267,-4.2166,-4.2124,-4.2019,-4.1888,-4.1884,-4.1819,-4.1732,-4.1732,-4.171,-4.1648,-4.1648,-4.1648,-4.0835,-4.2048,-4.3305,-4.3305,-4.2667,-4.1816,0.0,-3.9475,-3.798,-3.7096,-3.6265,-3.5704,-3.5704,-3.5704,-3.6265,-3.7922,-3.8934,-4.041,-4.2957,0.0,0.0,0.0,0.0,0.0,0.0,0.0,0.0,0.0,0.0,0.0,0.0,0.0,-6.08,-6.08,-6.08,-6.08,-6.08,-6.08,-6.08,-6.08,-6.08,-6.0757,-6.0697,-6.0697,0.0,0.0,0.0,0.0,0.0,-6.0403,-5.9845,-5.8916,-5.8101,-5.7178,-5.6196,-5.5322,-5.496,-5.4901,-5.4901,-5.3758,-5.2303,-5.2228,-5.1021,-4.9593,-4.9521,-4.9409,-4.9292,-4.9211,-4.7907,-4.6513,-4.6494,-4.5249,-4.3974,-4.3913,-4.3897,-4.3849,-4.3632,-4.3599,-4.3582,-4.3496,-4.3446,-4.3394,-4.3394,-4.3233,-4.3104,-4.3104,-4.2994,-4.2901,-4.2901,-4.2901,-4.2901,-4.2901,-4.2842,-4.2724,-4.2524,-4.2503,-4.2445,-4.2308,-4.2308,-4.2308,-4.2308,-4.2166,-4.2103,-4.2103,-4.203,-4.2005,-4.2005,-4.2005,-4.1923,-4.1801,-4.1801,-4.1714,-3.9752,-4.0306,-4.0705,-4.0705,-4.0529,-4.0134,-3.9287,-3.8197,-3.7306,-3.7035,-3.6279,-3.5698,-3.5697,-3.5697,-3.6248,-3.7928,-3.8934,-4.039,0.0,0.0,0.0,0.0,0.0,0.0,0.0,0.0,0.0,0.0,0.0,0.0,0.0,0.0,0.0,-6.08,-6.08,-6.08,-6.08,-6.08,-6.08,-6.08,-6.08,-6.0788,-6.0777,0.0,0.0,0.0,0.0,0.0,0.0,-6.0472,-6.0278,-5.9807,-5.8358,-5.7549,-5.701,-5.5527,-5.4975,-5.4901,-5.4901,-5.3787,-5.2361,-5.2303,-5.1095,-4.9667,-4.9593,-4.9437,-4.9292,-4.9211,-4.7921,-4.6557,-4.6557,-4.5297,-4.3989,-4.3974,-4.3929,-4.3881,-4.3816,-4.3701,-4.3582,-4.3565,-4.3515,-4.3445,-4.3412,-4.3269,-4.316,-4.3104,-4.2994,-4.2901,-4.2901,-4.2901,-4.2901,-4.2901,-4.2881,-4.2804,-4.2588,-4.2526,-4.2445,-4.2308,-4.2308,-4.2308,-4.2308,-4.2267,-4.2187,-4.2103,-4.2079,-4.2034,-4.2005,-4.2041,-4.2058,-4.1998,-4.1962,-4.1862,-3.8139,-3.88,-3.9055,-3.9055,-3.9085,0.0,-3.8015,-3.739,-3.6905,-3.6576,-3.6072,-3.5704,-3.5703,-3.5703,-3.6255,-3.7926,-3.8932,0.0,0.0,0.0,0.0,0.0,0.0,0.0,0.0,0.0,0.0,0.0,0.0,0.0,0.0,0.0,0.0,-6.0888,-6.0823,-6.08,-6.08,-6.08,-6.08,-6.08,-6.08,-6.08,-6.08,0.0,0.0,0.0,0.0,0.0,0.0,-6.0512,-6.0472,-6.0259,-5.8514,-5.7777,-5.7458,-5.5679,-5.5,-5.4927,-5.4901,-5.3802,-5.2385,-5.2313,-5.111,-4.9648,-4.9604,-4.9468,-4.9273,-4.9244,-4.7967,-4.6635,-4.6635,-4.536,-4.407,-4.407,-4.4008,-4.3929,-4.3915,-4.38,-4.3682,-4.3615,-4.3565,-4.3515,-4.3446,-4.3358,-4.3269,-4.3233,-4.3086,-4.2975,-4.2975,-4.2938,-4.2901,-4.2901,-4.2901,-4.2843,-4.2688,-4.2588,-4.2486,-4.2387,-4.2346,-4.2308,-4.2308,-4.2308,-4.2267,-4.2184,-4.2184,-4.2142,-4.2115,-4.209,-4.2087,-4.2087,-4.2062,-4.198,0.0,-3.7374,-3.804,-3.8117,0.0,-3.7904,-3.7104,-3.691,0.0,-3.5868,-3.5713,-3.5713,-3.5708,-3.5766,-3.6338,-3.7934,0.0,0.0,0.0,0.0,0.0,0.0,0.0,0.0,0.0,0.0,0.0,0.0,0.0,0.0,0.0,0.0,0.0,0.0,-6.088,-6.0812,-6.0812,-6.0812,-6.0812,-6.08,-6.08,-6.08,-6.08,0.0,0.0,0.0,0.0,0.0,0.0,-6.0539,-6.046,-6.025,-5.8563,-5.7827,-5.751,-5.5744,-5.5052,-5.4966,-5.4855,-5.3764,-5.2366,-5.2181,-5.0986,-4.9604,-4.9589,-4.9468,-4.9324,-4.9324,-4.8063,-4.6713,-4.6713,-4.5472,-4.4199,-4.4199,-4.4085,-4.3989,-4.3929,-4.3897,-4.3849,-4.3649,-4.3599,-4.3582,-4.3515,-4.3446,-4.3394,-4.3394,-4.3233,-4.3104,-4.3104,-4.2994,-4.2901,-4.2901,-4.2901,-4.2881,-4.2822,-4.2688,-4.2588,-4.2524,-4.2387,-4.2308,-4.2308,-4.2308,-4.2308,-4.2308,-4.2308,-4.2308,-4.2308,-4.2166,-4.2103,-4.2103,-4.2108,-4.208,-3.374,0.0,-3.5542,-3.6221,-3.639,-3.6321,0.0,-3.6088,-3.6011,-3.5817,-3.5778,-3.5773,-3.5775,-3.6318,-3.7109,-3.8107,0.0,0.0,0.0,0.0,0.0,0.0,0.0,0.0,0.0,0.0,0.0,0.0,0.0,0.0,0.0,0.0,0.0,0.0,-6.0967,-6.0933,-6.0888,-6.0888,-6.0846,-6.08,-6.08,-6.08,0.0,0.0,0.0,0.0,0.0,0.0,0.0,-6.0604,-6.015,-5.9408,-5.8314,-5.7445,-5.6671,-5.557,-5.5094,-5.4905,-5.4283,-5.3334,-5.2177,-5.0837,-5.01,-4.9736,-4.9619,-4.9532,-4.944,-4.944,-4.8197,-4.6843,-4.6843,-4.5567,-4.4255,-4.4214,-4.4184,-4.4119,-4.3989,-4.3945,-4.3883,-4.3769,-4.3667,-4.3582,-4.3515,-4.3446,-4.3394,-4.3394,-4.3269,-4.316,-4.3104,-4.3068,-4.3012,-4.2901,-4.2901,-4.2882,-4.2881,-4.2804,-4.2706,-4.257,-4.2506,-4.2445,-4.2445,-4.2346,-4.2308,-4.2308,-4.2308,-4.2308,-4.2308,-4.2267,-4.2267,-4.2246,-4.2243,-4.2255,-3.2365,-3.325,-3.4151,-3.4986,-3.5208,-3.5313,-3.5717,-3.5795,-3.5795,-3.5795,-3.5795,-3.5791,-3.5797,-3.652,-3.7482,0.0,0.0,0.0,0.0,0.0,0.0,0.0,0.0,0.0,0.0,0.0,0.0,0.0,0.0,0.0,0.0,0.0,0.0,0.0,0.0,-6.1009,-6.0944,-6.0922,-6.088,-6.0846,-6.0812,-6.08,-6.08,0.0,0.0,0.0,0.0,0.0,-6.0734,-6.066,-6.0099,-5.9173,-5.8291,-5.7365,-5.6439,-5.5521,-5.4934,-5.4457,-5.3964,-5.293,-5.1628,-5.0293,-4.9835,-4.9792,-4.9707,-4.9623,-4.9551,-4.9524,-4.8277,-4.6937,-4.6937,-4.5656,-4.4329,-4.4255,-4.4229,-4.415,-4.402,-4.3974,-4.3929,-4.3867,-4.3769,-4.3651,-4.3548,-4.348,-4.3446,-4.3446,-4.3358,-4.3287,-4.3251,-4.3178,-4.3105,-4.2994,-4.2994,-4.2975,-4.2919,-4.2862,-4.2804,-4.2706,-4.2588,-4.2546,-4.2546,-4.2488,-4.2409,-4.2387,-4.2387,-4.2366,-4.2308,-4.2308,-4.2308,-4.2308,-4.2308,-4.2302,-3.1472,-3.2307,-3.3157,-3.4229,-3.4501,-3.473,-3.56,-3.5795,-3.5795,-3.5795,-3.5911,-3.6008,-3.6008,-3.6828,0.0,0.0,0.0,0.0,0.0,0.0,0.0,0.0,0.0,0.0,0.0,0.0,0.0,0.0,0.0,0.0,0.0,0.0,0.0,0.0,0.0,0.0,-6.0825,-6.0888,-6.0914,-6.0911,-6.0835,-6.0812,-6.08,-6.08,0.0,0.0,0.0,0.0,-6.08,-6.0741,-6.0085,-5.9032,-5.8285,-5.736,-5.632,-5.5509,-5.472,-5.3937,-5.3555,-5.2356,-5.0897,-5.0139,-4.9857,-4.9821,-4.9807,-4.9721,-4.9585,-4.9386,-4.8194,-4.7012,-4.7012,-4.5711,-4.4397,-4.4329,-4.4255,-4.4165,-4.407,-4.402,-4.3974,-4.3913,-4.3851,-4.3769,-4.3615,-4.3548,-4.3496,-4.3515,-4.3464,-4.3394,-4.3412,-4.3305,-4.3196,-4.3105,-4.3104,-4.3049,-4.2938,-4.2901,-4.2881,-4.2822,-4.2688,-4.2629,-4.2609,-4.2609,-4.2568,-4.2524,-4.2524,-4.2465,-4.2328,-4.2328,-4.2308,-4.2308,-4.2308,-4.2308,-3.0657,-3.0987,-3.1646,-3.3938,-3.4501,-3.473,-3.56,-3.5795,-3.5795,-3.5795,-3.6397,-3.6906,-3.6906,-3.8227,-3.9601,0.0,0.0,0.0,0.0,0.0,0.0,0.0,0.0,0.0,0.0,0.0,0.0,0.0,0.0,0.0,0.0,0.0,0.0,0.0,0.0,0.0,0.0,-6.0674,-6.095,-6.0911,-6.088,-6.0846,-6.08,-6.08,-6.08,0.0,0.0,0.0,-6.08,-6.0741,-5.9758,-5.8277,-5.8055,-5.7015,-5.5575,-5.5428,-5.4797,-5.3784,-5.2224,-5.103,-5.0149,-4.9963,-4.9879,-4.9871,-4.9821,-4.9792,-4.9584,-4.8723,-4.777,-4.7012,-4.7012,-4.5758,-4.4473,-4.4397,-4.4329,-4.4255,-4.4199,-4.407,-4.3974,-4.3913,-4.3881,-4.3816,-4.3632,-4.3582,-4.3565,-4.3515,-4.3497,-4.3463,-4.3412,-4.3394,-4.3323,-4.3196,-4.3123,-4.3086,-4.3068,-4.2975,-4.29,-4.2881,-4.2804,-4.2725,-4.2609,-4.2609,-4.2589,-4.257,-4.257,-4.2548,-4.2463,-4.2463,-4.2425,-4.2308,-4.2308,-4.2308,-2.9881,-3.0349,-3.1218,-3.3313,-3.3856,-3.4187,-3.5503,-3.6164,-3.6498,-3.6498,-3.7197,-3.78,-3.78,0.0,-4.1063,-4.3297,0.0,0.0,0.0,0.0,0.0,0.0,0.0,0.0,0.0,0.0,0.0,0.0,0.0,0.0,0.0,0.0,0.0,0.0,0.0,0.0,0.0,-5.9533,-6.0123,-6.0955,-6.0922,-6.0858,-6.08,-6.08,-6.08,0.0,0.0,-6.08,-6.0762,-6.0258,-5.9307,-5.8103,-5.7562,-5.6549,-5.5301,-5.4345,-5.3417,-5.2463,-5.1174,-5.0393,-4.9986,-4.9946,-4.9939,-4.9879,-4.9857,-4.9532,-4.9041,-4.8494,-4.773,-4.6938,-4.6425,-4.5397,-4.4487,-4.4411,-4.4358,-4.427,-4.4214,-4.4085,-4.3989,-4.3958,-4.3929,-4.3865,-4.3783,-4.3666,-4.3582,-4.3548,-4.3513,-4.3497,-4.3464,-4.3445,-4.3429,-4.3323,-4.3269,-4.3215,-4.316,-4.305,-4.2975,-4.2901,-4.2464,-4.2191,-4.2116,-4.1701,-4.1664,-4.2039,-4.2077,-4.2235,-4.2548,-4.2524,-4.2463,-4.2405,-4.2328,-4.2308,-2.9334,-3.0035,-3.1121,-3.2866,-3.3293,-3.3798,-3.5678,-3.6615,-3.7159,-3.7353,-3.8091,-3.8756,0.0,-4.0519,0.0,0.0,0.0,0.0,0.0,0.0,0.0,0.0,0.0,0.0,0.0,0.0,0.0,0.0,0.0,0.0,0.0,0.0,0.0,0.0,0.0,0.0,0.0,-5.8294,-5.9002,-6.041,-6.055,-6.0572,-6.0535,-6.0716,-6.08,-6.08,-6.08,-6.0685,-6.0435,-5.9781,-5.8881,-5.7812,-5.7093,-5.6089,-5.4912,-5.3364,-5.2264,-5.1395,-5.0505,-5.0126,-5.0038,-5.0018,-4.9978,-4.9925,-4.9893,-4.9289,-4.8572,-4.8225,-4.7514,-4.6671,-4.5895,-4.5097,-4.4487,-4.4444,-4.4373,-4.4304,-4.4244,-4.4119,-4.4005,-4.4005,-4.3961,-4.3913,-4.3897,-4.3783,-4.3649,-4.3599,-4.3548,-4.3532,-4.3496,-4.3515,-4.348,-4.3429,-4.3412,-4.334,-4.3214,-4.316,-4.3086,-4.2975,-4.2176,-4.1705,-4.1705,-4.0926,-4.0782,-4.1323,-4.1522,-4.1862,-4.2379,-4.2516,-4.2546,-4.2506,-4.2387,-4.2328,-2.9179,-3.0044,-3.1121,-3.2866,-3.3293,-3.3954,-3.644,-3.7042,-3.7333,-3.8134,-3.9004,-3.9839,0.0,-4.2792,0.0,0.0,0.0,0.0,0.0,0.0,0.0,0.0,0.0,0.0,0.0,0.0,0.0,0.0,0.0,0.0,0.0,0.0,0.0,0.0,0.0,0.0,-5.7396,-5.7396,-5.7833,-5.8684,-5.9426,-5.974,-5.9705,-6.0458,-6.08,-6.08,-6.08,-6.0339,-5.9588,-5.9531,-5.8516,-5.6979,-5.6844,-5.5719,-5.4078,-5.3129,-5.2289,-5.1462,-5.0517,-5.0188,-5.0182,-5.0044,-5.0005,-4.9992,-4.9925,-4.933,-4.8501,-4.764,-4.6747,-4.6011,-4.5778,-4.5097,-4.4501,-4.4501,-4.4401,-4.43,-4.4285,-4.4147,-4.4005,-4.4005,-4.4005,-4.3974,-4.3913,-4.3881,-4.3816,-4.3615,-4.3599,-4.3565,-4.3515,-4.3515,-4.3497,-4.3497,-4.3446,-4.334,-4.3214,-4.3196,-4.3196,-4.3178,-4.225,-4.1705,-4.1705,-4.0926,-4.051,-4.0583,-4.1325,-4.1685,-4.1665,-4.2403,-4.2706,-4.2589,-4.2526,-4.243,-2.8497,-2.9625,-3.1122,-3.2862,-3.3682,-3.4575,-3.6634,-3.7528,-3.8305,-3.9664,-4.0655,-4.1684,-4.3063,0.0,0.0,0.0,0.0,0.0,0.0,0.0,0.0,0.0,0.0,0.0,0.0,0.0,0.0,0.0,0.0,0.0,0.0,0.0,0.0,0.0,0.0,0.0,0.0,-5.6487,-5.6633,-5.6963,-5.8307,-5.8895,-5.88,-5.9106,-5.9257,-5.9242,-5.9242,-5.9069,-5.8704,-5.8165,-5.7558,-5.6901,-5.6261,-5.4896,-5.3244,-5.2919,-5.1945,-5.0729,-5.0393,-5.0224,-5.0175,-5.0095,-5.0044,-4.9897,-4.9318,-4.8566,-4.7687,-4.6807,-4.5897,-4.5157,-4.5062,-4.4768,-4.4501,-4.4501,-4.443,-4.4358,-4.4314,-4.4211,-4.4104,-4.402,-4.4005,-4.3989,-4.3958,-4.3929,-4.3865,-4.38,-4.3666,-4.3582,-4.3565,-4.3532,-4.3515,-4.3515,-4.348,-4.341,-4.334,-4.3323,-4.3305,-4.3214,-4.2341,-4.1597,-4.1107,-4.0274,-3.9822,-3.9822,-4.0564,-4.118,-4.1668,-4.2443,-4.2764,-4.2725,-4.2607,-4.251,-2.8098,-2.9559,-3.1422,-3.2893,-3.4105,-3.5371,-3.71,-3.8382,-3.9587,-4.1024,-4.2209,-4.3394,-4.4579,0.0,0.0,0.0,0.0,0.0,0.0,0.0,0.0,0.0,0.0,0.0,0.0,0.0,0.0,0.0,0.0,0.0,0.0,0.0,0.0,0.0,0.0,0.0,0.0,-5.6012,-5.6012,-5.6003,-5.7156,-5.7806,-5.7967,-5.8226,-5.8319,-5.8303,-5.8303,-5.8138,-5.7838,-5.7253,-5.6838,-5.6459,-5.5493,-5.418,-5.2803,-5.253,-5.1525,-5.0302,-5.0302,-5.0278,-5.0231,-5.0133,-5.007,-4.9866,-4.8971,-4.8092,-4.7226,-4.6379,-4.5464,-4.4725,-4.4646,-4.4584,-4.4501,-4.4501,-4.444,-4.4383,-4.4344,-4.427,-4.4214,-4.4085,-4.407,-4.4055,-4.4005,-4.3958,-4.3929,-4.3897,-4.3783,-4.3666,-4.3599,-4.3548,-4.3513,-4.3496,-4.3515,-4.348,-4.3429,-4.3429,-4.3375,-4.3304,-4.2722,-4.1994,-4.114,-4.0035,-3.9421,-3.9421,-4.0147,-4.0764,-4.1325,-4.2336,-4.2823,-4.2823,-4.2725,-4.2647,-2.8097,-2.9955,-3.212,-3.299,-3.4516,-3.6261,-3.8018,-3.9703,-4.114,-4.2039,-4.3607,-4.4812,-4.4812,-4.5472,0.0,0.0,0.0,0.0,0.0,0.0,0.0,0.0,0.0,0.0,0.0,0.0,0.0,0.0,0.0,0.0,0.0,0.0,0.0,0.0,0.0,0.0,0.0,-5.6029,-5.6012,-5.6012,-5.5993,-5.6411,-5.7226,-5.8008,-5.8333,-5.828,-5.828,-5.7797,-5.6983,-5.6983,-5.644,-5.5519,-5.4637,-5.3736,-5.2786,-5.1931,-5.1047,-5.0302,-5.0302,-5.0302,-5.0278,-5.0145,-5.0095,-4.993,-4.8965,-4.8079,-4.7226,-4.6411,-4.5508,-4.477,-4.4725,-4.4605,-4.4501,-4.4501,-4.444,-4.4397,-4.4397,-4.4358,-4.427,-4.4214,-4.4199,-4.4169,-4.402,-4.4005,-4.3974,-4.3913,-4.3897,-4.3832,-4.3615,-4.3599,-4.3565,-4.3515,-4.3515,-4.3515,-4.3515,-4.3515,-4.3515,-4.3515,-4.3446,-4.2975,-4.2047,-4.0411,-3.9523,-3.9505,-4.0182,-4.051,-4.051,-4.2122,-4.2901,-4.29,-4.2823,-4.2803,-2.8093,-2.9969,-3.2253,-3.3742,-3.542,-3.7316,-3.9621,-4.0538,-4.149,-4.3607,-4.4889,-4.5633,-4.5633,0.0,0.0,0.0,0.0,0.0,0.0,0.0,0.0,0.0,0.0,0.0,0.0,0.0,0.0,0.0,0.0,0.0,0.0,0.0,0.0,0.0,0.0,0.0,0.0,0.0,-5.6037,-5.5993,-5.5432,-5.558,-5.6357,-5.6599,-5.6676,-5.6608,-5.6558,-5.6393,-5.6151,-5.6109,-5.5882,-5.5519,-5.4637,-5.3736,-5.2786,-5.1931,-5.1047,-5.0302,-5.0302,-5.0302,-5.0278,-5.0145,-5.0095,-4.9816,-4.8263,-4.7605,-4.7093,-4.5672,-4.5054,-4.4802,-4.4789,-4.4672,-4.457,-4.4515,-4.4487,-4.4473,-4.4411,-4.4383,-4.4358,-4.427,-4.4229,-4.4184,-4.4135,-4.407,-4.3989,-4.3974,-4.3929,-4.3867,-4.3753,-4.3667,-4.3582,-4.3565,-4.3532,-4.3515,-4.3515,-4.3515,-4.3515,-4.3515,-4.348,-4.3061,-4.2188,-4.1573,-4.0975,-4.036,-4.1106,-4.1434,-4.1343,-4.2393,-4.2901,-4.2901,-4.2881,-4.2842,-2.8046,-3.0184,-3.2754,-3.4123,-3.6027,-3.8336,-4.1272,-4.2209,-4.2986,0.0,-4.5672,-4.6002,-4.6002,0.0,0.0,0.0,0.0,0.0,0.0,0.0,0.0,0.0,0.0,0.0,0.0,0.0,0.0,0.0,0.0,0.0,0.0,0.0,0.0,0.0,0.0,0.0,0.0,0.0,0.0,-5.5515,-5.4686,-5.4544,-5.5021,-5.5369,-5.5497,-5.5441,-5.5682,-5.5797,-5.5767,-5.5388,-5.5201,-5.5053,-5.3785,-5.2962,-5.2342,-5.1426,-5.076,-5.0302,-5.0302,-5.0302,-5.0278,-5.0145,-5.0095,-4.9759,-4.796,-4.7397,-4.7055,-4.5369,-4.4858,-4.4821,-4.4815,-4.4751,-4.4659,-4.4551,-4.4528,-4.4501,-4.444,-4.4426,-4.4411,-4.434,-4.43,-4.4255,-4.4244,-4.415,-4.407,-4.407,-4.3976,-4.3899,-4.3835,-4.3753,-4.3667,-4.3667,-4.36,-4.3531,-4.3531,-4.3532,-4.3515,-4.3515,-4.3515,-4.326,-4.2749,-4.2316,-4.1844,-4.1318,-4.1704,-4.1851,-4.1778,-4.2521,-4.2901,-4.2901,-4.2901,-4.2881,-2.7972,-3.0485,-3.3311,-3.4279,-3.661,-3.95,-4.2743,-4.4171,-4.5025,-4.5827,0.0,-4.6002,0.0,0.0,0.0,0.0,0.0,0.0,0.0,0.0,0.0,0.0,0.0,0.0,0.0,0.0,0.0,0.0,0.0,0.0,0.0,0.0,0.0,0.0,0.0,0.0,0.0,0.0,0.0,0.0,-5.3793,-5.339,-5.3401,-5.4271,-5.4633,-5.4619,-5.5278,-5.5566,-5.5517,-5.4705,-5.4376,-5.4212,-5.2472,-5.1796,-5.1689,-5.0673,-5.0302,-5.0302,-5.0302,-5.0302,-5.0278,-5.0145,-5.0095,-4.9759,-4.796,-4.7397,-4.7055,-4.5369,-4.4895,-4.4902,-4.4821,-4.4796,-4.4757,-4.4646,-4.4551,-4.4515,-4.4501,-4.4501,-4.4487,-4.4411,-4.4397,-4.4368,-4.4314,-4.4259,-4.4199,-4.4199,-4.4042,-4.3913,-4.3913,-4.3851,-4.3804,-4.382,-4.3701,-4.3615,-4.3599,-4.3566,-4.3515,-4.3515,-4.3496,-4.3515,-4.3515,-4.2749,-4.2313,-4.2295,-4.2121,-4.2014,-4.2032,-4.2631,-4.2919,-4.2919,-4.2919,-4.2901,-2.7817,-3.0003,-3.2643,-3.485,-3.8408,-4.1727,-4.3111,-4.4136,-4.5025,-4.5827,-4.6002,0.0,0.0,0.0,0.0,0.0,0.0,0.0,0.0,0.0,0.0,0.0,0.0,0.0,0.0,0.0,0.0,0.0,0.0,0.0,0.0,0.0,0.0,0.0,0.0,0.0,-5.4239,-5.4031,-5.3873,0.0,-5.2953,-5.2524,-5.2519,-5.3382,-5.3743,-5.3692,-5.3792,-5.3841,-5.3822,-5.3569,-5.3491,-5.3365,-5.2242,-5.1796,-5.1689,-5.0673,-5.0302,-5.0302,-5.0302,-5.0302,-5.0278,-5.0145,-5.0095,-4.9759,-4.796,-4.7397,-4.7055,-4.5369,-4.4895,-4.4895,-4.487,-4.4833,-4.4783,-4.4757,-4.4672,-4.4565,-4.4515,-4.4501,-4.4501,-4.4487,-4.4444,-4.4397,-4.4368,-4.4329,-4.4274,-4.4199,-4.4169,-4.4089,-4.3989,-4.3915,-4.3899,-4.3961,-4.3881,-4.3786,-4.3684,-4.3617,-4.3582,-4.3582,-4.3513,-4.3515,-4.3515,-4.3332,-4.3207,-4.3137,-4.3103,-4.3031,-4.2923,-4.3014,-4.3049,-4.3049,-4.2938,-4.2901,-2.7755,-2.9863,-3.2633,-3.607,-3.9259,-4.1748,-4.2599,-4.3804,-4.4868,-4.5295,0.0,0.0,0.0,0.0,0.0,0.0,0.0,0.0,0.0,0.0,0.0,0.0,0.0,0.0,0.0,0.0,0.0,0.0,0.0,0.0,0.0,0.0,0.0,0.0,0.0,0.0,-5.3702,-5.3295,-5.3035,-5.2954,-5.2085,-5.1641,-5.1602,-5.2472,-5.3083,-5.3436,-5.3337,-5.3291,-5.3263,-5.2771,-5.2577,-5.25,-5.1572,-5.1203,-5.1114,-5.0554,-5.0325,-5.0302,-5.0302,-5.0302,-5.029,-5.0182,-5.0133,-4.9778,-4.7985,-4.7422,-4.7055,-4.5369,-4.4895,-4.4895,-4.4895,-4.487,-4.4833,-4.4815,-4.4706,-4.4632,-4.4551,-4.4556,-4.4542,-4.4515,-4.4468,-4.4458,-4.4458,-4.4383,-4.4314,-4.4211,-4.4214,-4.415,-4.402,-4.3976,-4.3961,-4.4005,-4.3976,-4.3913,-4.3849,-4.3751,-4.3667,-4.3651,-4.3617,-4.3583,-4.3548,-4.3566,-4.3515,-4.3464,-4.3429,-4.3376,-4.3305,-4.3196,-4.3142,-4.3142,-4.3087,-4.305,-2.7495,-2.9858,-3.2962,-3.6878,-3.9212,0.0,-4.1673,-4.3117,-4.4336,0.0,0.0,0.0,0.0,0.0,0.0,0.0,0.0,0.0,0.0,0.0,0.0,0.0,0.0,0.0,0.0,0.0,0.0,0.0,0.0,0.0,0.0,0.0,0.0,0.0,0.0,-5.3267,-5.3267,-5.255,-5.2182,-5.2182,-5.137,-5.0971,-5.0933,-5.1641,-5.2376,-5.3053,-5.2921,-5.2866,-5.2818,-5.2011,-5.1692,-5.1615,-5.0892,-5.0572,-5.05,-5.0424,-5.0367,-5.0302,-5.0302,-5.0302,-5.029,-5.0212,-5.0151,-4.9784,-4.8036,-4.746,-4.7068,-4.5369,-4.4895,-4.4895,-4.4895,-4.4895,-4.4902,-4.4821,-4.477,-4.4725,-4.4632,-4.4619,-4.4592,-4.4556,-4.4528,-4.4515,-4.4501,-4.444,-4.4368,-4.4237,-4.424,-4.4192,-4.402,-4.4005,-4.4005,-4.4005,-4.4005,-4.4005,-4.4005,-4.3915,-4.3802,-4.3751,-4.3753,-4.3701,-4.3649,-4.3651,-4.3617,-4.3549,-4.3464,-4.3429,-4.3429,-4.3286,-4.3233,-4.3233,-4.3214,-4.3214,-2.6425,-2.9844,-3.3436,0.0,-3.7879,-3.9896,0.0,0.0,0.0,0.0,0.0,0.0,0.0,0.0,0.0,0.0,0.0,0.0,0.0,0.0,0.0,0.0,0.0,0.0,0.0,0.0,0.0,0.0,0.0,0.0,0.0,0.0,-5.1532,-5.1532,-5.1532,0.0,-5.1532,-5.1429,-5.1334,-5.127,-5.108,-5.1005,-5.0998,-5.1057,-5.113,-5.1246,-5.1164,-5.1129,-5.112,-5.0943,-5.0856,-5.0837,-5.0662,-5.0572,-5.05,-5.0424,-5.0367,-5.0302,-5.0302,-5.0302,-5.029,-5.0212,-5.0188,-4.9846,-4.8048,-4.7485,-4.7131,-4.5381,-4.4895,-4.4895,-4.4895,-4.4895,-4.4895,-4.4883,-4.487,-4.4833,-4.4725,-4.4699,-4.4667,-4.4685,-4.4632,-4.4565,-4.4515,-4.4501,-4.444,-4.4306,-4.4397,-4.4354,-4.4036,-4.4005,-4.4005,-4.4005,-4.4005,-4.4005,-4.4005,-4.3974,-4.3974,-4.3958,-4.3915,-4.3869,-4.3869,-4.3786,-4.3771,-4.3771,-4.3566,-4.3497,-4.3497,-4.3411,-4.3358,-4.3358,-4.3251,-4.3214,-2.7364,-2.9825,-3.2299,0.0,-3.6516,-3.7854,-3.966,0.0,0.0,0.0,0.0,0.0,0.0,0.0,0.0,0.0,0.0,0.0,0.0,0.0,0.0,0.0,0.0,0.0,0.0,0.0,0.0,0.0,0.0,0.0,0.0,-5.1202,-5.1202,-5.1202,-5.1202,0.0,-5.1202,-5.1202,-5.1165,-5.1095,-5.1062,-5.1046,-5.1005,-5.0921,-5.0898,-5.0898,-5.088,-5.0819,-5.0793,-5.072,-5.0693,-5.0702,-5.0663,-5.0613,-5.0562,-5.0478,-5.0404,-5.0348,-5.0314,-5.0302,-5.0302,-5.0267,-5.0243,-4.9883,-4.8134,-4.7603,-4.7193,-4.5442,-4.4962,-4.4943,-4.4907,-4.4895,-4.4895,-4.4895,-4.4895,-4.4883,-4.4821,-4.477,-4.4732,-4.4712,-4.464,-4.46,-4.456,-4.4524,-4.4487,-4.4426,-4.4454,-4.4458,-4.431,-4.4281,-4.4203,-4.402,-4.4005,-4.4005,-4.4005,-4.4005,-4.4005,-4.4005,-4.3976,-4.3947,-4.3899,-4.3867,-4.3853,-4.3804,-4.3634,-4.3548,-4.3548,-4.304,-4.2785,-4.2785,-4.2715,-4.2698,-2.748,0.0,-3.0844,-3.3606,-3.4999,-3.6182,0.0,0.0,0.0,0.0,0.0,0.0,0.0,0.0,0.0,0.0,0.0,0.0,0.0,0.0,0.0,0.0,0.0,0.0,0.0,0.0,0.0,0.0,0.0,0.0,-5.1202,-5.1202,-5.1202,-5.1202,-5.1202,-5.1202,-5.1202,-5.1202,-5.1171,-5.1127,-5.1101,-5.1067,-5.102,-5.0948,-5.0898,-5.0898,-5.0897,-5.0855,-5.0793,-5.072,-5.0692,-5.0712,-5.0712,-5.0653,-5.0593,-5.0532,-5.0468,-5.0401,-5.0337,-5.0314,-5.0302,-5.0302,-5.0267,-4.9907,-4.8205,-4.7674,-4.7265,-4.5532,-4.5033,-4.5003,-4.4931,-4.4938,-4.4919,-4.4895,-4.4895,-4.4895,-4.4895,-4.4858,-4.4815,-4.4738,-4.4693,-4.4648,-4.4635,-4.4565,-4.4501,-4.4501,-4.4501,-4.4501,-4.4501,-4.4501,-4.4397,-4.4158,-4.4128,-4.4097,-4.4005,-4.4005,-4.4005,-4.4005,-4.4005,-4.3974,-4.3929,-4.3929,-4.3897,-4.3851,-4.3734,-4.3684,-4.3651,-4.2791,-4.2336,-4.232,-4.2117,-4.2119,-2.5321,-2.7383,0.0,-3.0504,-3.3189,0.0,0.0,0.0,0.0,0.0,0.0,0.0,0.0,0.0,0.0,0.0,0.0,0.0,0.0,0.0,0.0,0.0,0.0,0.0,0.0,0.0,0.0,0.0,0.0,0.0,-5.1202,-5.1202,-5.1202,-5.1202,-5.1202,-5.1202,-5.1202,-5.1202,-5.1202,-5.1196,-5.1134,-5.1094,-5.1094,-5.0956,-5.0898,-5.0898,-5.0897,-5.0855,-5.0793,-5.072,-5.0692,-5.0712,-5.0712,-5.0653,-5.0603,-5.0593,-5.05,-5.0401,-5.0401,-5.0348,-5.0302,-5.0302,-5.0302,-4.9973,-4.8235,-4.7697,-4.7323,-4.559,-4.5084,-4.5091,-4.5003,-4.4991,-4.4967,-4.4926,-4.4895,-4.4895,-4.4895,-4.4895,-4.4858,-4.4821,-4.4776,-4.4764,-4.4712,-4.4578,-4.4501,-4.4501,-4.4501,-4.4501,-4.4501,-4.4501,-4.4501,-4.4487,-4.4468,-4.4354,-4.4036,-4.4005,-4.4005,-4.4005,-4.4005,-4.4005,-4.3989,-4.3989,-4.3989,-4.3989,-4.3929,-4.3851,-4.3788,-4.2904,-4.2465,-4.2382,-4.1609,-4.1634,0.0,0.0,0.0,-2.9943,-3.1391,-3.2745,0.0,0.0,0.0,0.0,0.0,0.0,0.0,0.0,0.0,0.0,0.0,0.0,0.0,0.0,0.0,0.0,0.0,0.0,0.0,0.0,0.0,0.0,0.0,0.0,-5.0367,-5.0891,-5.1202,-5.1202,-5.1202,-5.1202,-5.1202,-5.1202,-5.1202,-5.1202,-5.1134,-5.1101,-5.1074,-5.0433,-5.0132,-5.0105,-4.9537,-4.9892,-5.0855,-5.0793,-5.0739,-5.0692,-5.0702,-5.0692,-5.0653,-5.0613,-5.0532,-5.0457,-5.0412,-5.0367,-5.0302,-5.0302,-5.0302,-4.9985,-4.8281,-4.7766,-4.74,-4.5657,-4.517,-4.5148,-4.5091,-4.5026,-4.4979,-4.4926,-4.4895,-4.4895,-4.4895,-4.4895,-4.4883,-4.4877,-4.4865,-4.4865,-4.4821,-4.4802,-4.4699,-4.4528,-4.4501,-4.4501,-4.4501,-4.4501,-4.4501,-4.4501,-4.4501,-4.444,-4.434,-4.4325,-4.4325,-4.4325,-4.4248,-4.4188,-4.4192,-4.4192,-4.4162,-4.4135,-4.4104,-4.4011,-4.3867,-4.2432,-4.172,-4.167,-4.0858,-4.064,-2.4582,-2.5731,-2.7022,0.0,0.0,-3.0904,0.0,0.0,0.0,0.0,0.0,0.0,0.0,0.0,0.0,0.0,0.0,0.0,0.0,0.0,0.0,0.0,0.0,0.0,0.0,0.0,0.0,0.0,0.0,0.0,-4.946,-5.0017,-5.0328,-5.0328,-5.0328,-5.0328,-5.0328,-5.0328,-5.0328,-5.0328,-5.0261,-5.0221,-5.0202,-4.957,-4.9262,-4.9223,-4.8643,-4.9181,-5.0455,-5.0385,-5.0496,-5.0692,-5.0712,-5.0712,-5.0683,-5.0643,-5.0593,-5.0521,-5.0457,-5.0401,-5.0325,-5.0302,-5.0302,-4.9996,-4.8304,-4.7788,-4.7444,-4.5712,-4.5224,-4.5213,-4.5148,-4.5072,-4.5033,-4.4943,-4.4931,-4.4919,-4.4895,-4.4895,-4.4895,-4.4895,-4.4895,-4.4895,-4.4895,-4.4895,-4.4833,-4.4659,-4.457,-4.4501,-4.4501,-4.4501,-4.4501,-4.4501,-4.4501,-4.4501,-4.4501,-4.4501,-4.4487,-4.444,-4.435,-4.4292,-4.43,-4.43,-4.427,-4.4244,-4.4229,-4.4169,-4.3995,-4.2248,-4.1388,-4.1339,-4.0248,-3.9863,0.0,0.0,0.0,0.0,0.0,0.0,0.0,0.0,0.0,0.0,0.0,0.0,0.0,0.0,0.0,0.0,0.0,0.0,0.0,0.0,0.0,0.0,0.0,0.0,0.0,0.0,0.0,0.0,0.0,-4.8561,-4.8561,-4.858,-4.8599,-4.8599,-4.8599,-4.8599,-4.8599,-4.8599,-4.8599,-4.8599,-4.8535,-4.8496,-4.8496,-4.8409,-4.8353,-4.8353,-4.8333,-4.8775,-4.9528,-4.9478,-4.9947,-5.0653,-5.0673,-5.0673,-5.0712,-5.0712,-5.0653,-5.0593,-5.0521,-5.0457,-5.039,-5.0314,-5.0302,-4.9996,-4.8342,-4.7807,-4.7463,-4.5793,-4.5345,-4.5324,-4.529,-4.5205,-4.511,-4.5071,-4.501,-4.4979,-4.4907,-4.4895,-4.4895,-4.4895,-4.4895,-4.4895,-4.4895,-4.4895,-4.4895,-4.4895,-4.4685,-4.4515,-4.4515,-4.4496,-4.4501,-4.4501,-4.4501,-4.4501,-4.4501,-4.4501,-4.444,-4.4302,-4.4321,-4.4306,-4.43,-4.43,-4.43,-4.43,-4.43,-4.4255,-4.4199,-4.2471,-4.1598,-4.1508,-3.9808,-3.9408,-2.411,0.0,0.0,0.0,0.0,0.0,0.0,0.0,0.0,0.0,0.0,0.0,0.0,0.0,0.0,0.0,0.0,0.0,0.0,0.0,0.0,0.0,0.0,0.0,0.0,0.0,0.0,0.0,0.0,-4.7667,-4.7667,-4.8269,-4.8599,-4.8599,-4.8599,-4.8599,-4.8599,-4.8599,-4.8599,-4.8599,-4.8535,-4.8496,-4.8477,-4.7789,-4.7463,-4.7424,-4.6786,-4.6999,-4.7847,-4.8395,-4.9106,-4.9832,-4.9778,-5.0144,-5.0712,-5.0712,-5.0653,-5.0593,-5.0521,-5.0457,-5.039,-5.0314,-5.0302,-5.0111,-4.906,-4.8296,-4.7559,-4.6481,-4.6175,-4.6298,-4.6862,-4.6553,-4.6111,-4.6023,-4.5482,-4.4991,-4.4979,-4.4931,-4.4895,-4.4895,-4.4895,-4.4895,-4.4895,-4.4895,-4.4895,-4.4895,-4.4833,-4.4783,-4.4783,-4.4619,-4.4501,-4.4501,-4.4501,-4.4501,-4.4501,-4.4501,-4.4468,-4.444,-4.444,-4.444,-4.4444,-4.4444,-4.443,-4.4368,-4.4368,-4.4344,-4.427,-4.3118,-4.2508,-4.2396,-4.0762,-3.9783,-2.5144,-2.5216,-2.5423,0.0,0.0,0.0,0.0,-2.9044,0.0,0.0,0.0,0.0,0.0,0.0,0.0,0.0,0.0,0.0,0.0,0.0,0.0,0.0,0.0,0.0,0.0,0.0,0.0,0.0,-4.6288,-4.6754,-4.6754,-4.724,-4.7512,-4.7512,-4.7512,-4.7512,-4.7512,-4.7512,-4.7526,-4.7514,-4.7442,-4.743,-4.7391,-4.6814,-4.6561,-4.6542,-4.602,-4.6097,-4.6593,-4.7032,-4.7918,-4.9029,-4.9297,-4.9702,-5.0212,-5.0577,-5.0682,-5.0633,-5.0553,-5.05,-5.0435,-5.0359,-5.0314,-5.0149,-4.9328,-4.8754,-4.8162,-4.7302,-4.7043,-4.7158,-4.7621,-4.7113,-4.6492,-4.6454,-4.5742,-4.5061,-4.5007,-4.4955,-4.4895,-4.4895,-4.4895,-4.4895,-4.4895,-4.4895,-4.4895,-4.4895,-4.4895,-4.4895,-4.4895,-4.4757,-4.4619,-4.4515,-4.4501,-4.451,-4.4578,-4.4524,-4.4515,-4.4537,-4.4515,-4.4501,-4.4501,-4.4501,-4.4487,-4.444,-4.444,-4.4416,-4.4344,-4.3411,-4.2727,-4.2318,-4.1025,-4.0123,-2.6736,-2.6173,-2.5596,0.0,0.0,0.0,-2.6717,-2.7873,0.0,0.0,0.0,0.0,0.0,0.0,0.0,0.0,0.0,0.0,0.0,0.0,0.0,0.0,0.0,0.0,0.0,0.0,0.0,-4.4656,-4.5317,-4.5769,-4.5866,-4.5866,-4.5905,-4.6002,-4.6002,-4.6002,-4.6002,-4.5997,-4.6,-4.5997,-4.5923,-4.5906,-4.59,-4.5821,-4.5807,-4.5807,-4.5807,-4.5807,-4.58,-4.5719,-4.6672,-4.8227,-4.8873,-4.924,-4.949,-5.0269,-5.0616,-5.0683,-5.0623,-5.0572,-5.05,-5.0424,-5.0348,-5.018,-4.9454,-4.9167,-4.8926,-4.8162,-4.7941,-4.796,-4.8056,-4.7349,-4.6642,-4.6644,-4.5908,-4.517,-4.5061,-4.4979,-4.4919,-4.4931,-4.4919,-4.4895,-4.4895,-4.4895,-4.4895,-4.4895,-4.4895,-4.4895,-4.4895,-4.4895,-4.4815,-4.4565,-4.4537,-4.4592,-4.4725,-4.4605,-4.4551,-4.4605,-4.457,-4.4528,-4.4515,-4.4515,-4.4515,-4.4501,-4.4501,-4.4473,-4.4411,-4.3558,-4.2702,-4.1828,-4.1035,-4.0578,0.0,0.0,0.0,0.0,0.0,0.0,-2.7486,-2.7376,0.0,0.0,0.0,0.0,0.0,0.0,0.0,0.0,0.0,0.0,0.0,0.0,0.0,0.0,0.0,0.0,0.0,0.0,-4.3703,-4.3758,-4.3899,-4.4287,-4.5006,-4.5025,-4.5336,-4.5982,-4.6002,-4.6002,-4.6002,-4.5994,-4.6003,-4.5997,-4.5938,-4.5906,-4.59,-4.5821,-4.5807,-4.5807,-4.5807,-4.5807,-4.58,-4.5719,-4.6317,-4.7265,-4.7353,-4.8221,-4.9413,-4.9586,-5.0087,-5.0683,-5.0623,-5.0593,-5.0572,-5.0435,-5.039,-5.034,-5.0122,-4.9614,-4.9071,-4.8888,-4.885,-4.9003,-4.9633,-4.8678,-4.754,-4.7548,-4.6331,-4.5203,-4.5235,-4.5148,-4.5103,-4.5192,-4.5057,-4.4895,-4.4895,-4.4895,-4.4895,-4.4895,-4.4895,-4.4895,-4.4895,-4.4895,-4.487,-4.4821,-4.4821,-4.4821,-4.4858,-4.4833,-4.477,-4.4699,-4.4672,-4.4632,-4.4578,-4.4578,-4.457,-4.4501,-4.4501,-4.4501,-4.4487,-4.419,-4.3594,-4.2739,-4.2518,-4.1711,0.0,0.0,0.0,-2.7895,0.0,0.0,0.0,-2.7255,0.0,0.0,0.0,0.0,0.0,0.0,0.0,0.0,0.0,0.0,0.0,0.0,0.0,0.0,0.0,0.0,0.0,0.0,-4.2488,-4.3372,-4.3449,-4.3643,-4.4076,-4.4095,-4.4478,-4.5332,-4.5351,-4.5545,-4.5958,-4.5941,-4.5943,-4.595,-4.5912,-4.5886,-4.5854,-4.5814,-4.5807,-4.5807,-4.5807,-4.5807,-4.58,-4.5719,-4.5951,-4.6386,-4.6756,-4.7413,-4.8259,-4.9086,-4.9683,-5.0106,-5.05,-5.0623,-5.0582,-5.0478,-5.0435,-5.039,-5.0314,-5.0015,-4.9691,-4.9691,-4.9691,-4.9691,-4.9691,-4.8754,-4.7693,-4.7264,-4.6173,-4.5265,-4.5297,-4.5254,-4.5213,-4.5297,-4.5192,-4.5068,-4.4919,-4.4895,-4.4895,-4.4895,-4.4895,-4.4895,-4.4895,-4.4895,-4.4895,-4.4895,-4.4895,-4.4895,-4.4895,-4.4895,-4.487,-4.4796,-4.4751,-4.4667,-4.4659,-4.4646,-4.4619,-4.4537,-4.4528,-4.4501,-4.4501,-4.443,-4.4162,-4.3685,-4.3169,-4.23,0.0,0.0,0.0,0.0,0.0,-2.7953,0.0,0.0,0.0,0.0,0.0,0.0,0.0,0.0,0.0,0.0,0.0,0.0,0.0,0.0,0.0,0.0,0.0,0.0,0.0,0.0,-4.0962,-4.2557,-4.2673,-4.2809,-4.3139,-4.3158,-4.3546,-4.4412,-4.4606,-4.5013,-4.5659,-4.5828,-4.5906,-4.59,-4.5893,-4.5854,-4.5807,-4.5807,-4.5807,-4.5807,-4.5807,-4.5807,-4.58,-4.5719,-4.5708,-4.5758,-4.639,-4.6759,-4.7077,-4.8586,-4.926,-4.951,-5.0404,-5.0653,-5.0613,-5.0532,-5.0468,-5.039,-5.0314,-5.0187,-5.0073,-5.0073,-4.9958,-4.9671,-4.9022,-4.82,-4.7368,-4.6672,-4.5889,-4.5307,-4.5307,-4.5307,-4.5307,-4.5307,-4.5307,-4.5224,-4.5003,-4.4986,-4.4955,-4.4907,-4.4895,-4.4895,-4.4895,-4.4895,-4.4895,-4.4895,-4.4895,-4.4895,-4.4895,-4.4895,-4.4895,-4.4895,-4.4815,-4.4719,-4.4725,-4.4712,-4.4672,-4.4605,-4.4556,-4.4515,-4.4501,-4.4501,-4.4468,-4.4393,-4.3629,-4.2838,0.0,0.0,0.0,0.0,-2.9544,0.0,0.0,0.0,0.0,0.0,0.0,0.0,0.0,0.0,0.0,0.0,0.0,0.0,0.0,0.0,0.0,0.0,0.0,0.0,0.0,0.0,0.0,-3.9959,-4.0037,-4.0676,-4.2169,-4.2247,-4.2654,-4.3527,-4.4296,-4.4742,-4.4839,-4.5551,-4.59,-4.59,-4.5847,-4.5807,-4.5807,-4.5807,-4.5807,-4.5807,-4.5807,-4.5807,-4.58,-4.5719,-4.5708,-4.57,-4.5744,-4.622,-4.7,-4.7913,-4.874,-4.951,-5.0404,-5.0702,-5.0692,-5.0613,-5.05,-5.039,-5.0314,-4.9805,-4.9243,-4.9243,-4.8678,-4.8056,-4.796,-4.7302,-4.6615,-4.6519,-4.5889,-4.5307,-4.5307,-4.5307,-4.5307,-4.5307,-4.5307,-4.5297,-4.5265,-4.5246,-4.517,-4.495,-4.4895,-4.4895,-4.4895,-4.4895,-4.4895,-4.4895,-4.4895,-4.4895,-4.4895,-4.4895,-4.4895,-4.4895,-4.4902,-4.4846,-4.4783,-4.4719,-4.4672,-4.4605,-4.4592,-4.4551,-4.4501,-4.4501,-4.4501,-4.4468,-4.4318,-4.3821,0.0,0.0,0.0,0.0,0.0,0.0,-2.9223,0.0,-2.8569,0.0,0.0,0.0,0.0,0.0,0.0,0.0,0.0,0.0,0.0,0.0,0.0,0.0,0.0,0.0,0.0,0.0,0.0,0.0,0.0,-3.9323,-4.0529,-4.0587,-4.1207,-4.2556,-4.2943,-4.3621,-4.4621,-4.4976,-4.5382,-4.5847,-4.5814,-4.5807,-4.5807,-4.5807,-4.5807,-4.5807,-4.5807,-4.5807,-4.58,-4.5719,-4.5708,-4.57,-4.5629,-4.5825,-4.624,-4.7086,-4.7932,-4.8779,-4.9644,-5.0289,-5.0673,-5.0582,-5.0478,-5.039,-5.0314,-4.9729,-4.911,-4.911,-4.8468,-4.7674,-4.7177,-4.6768,-4.6385,-4.5908,-4.5545,-4.5307,-4.5307,-4.5307,-4.5307,-4.5307,-4.5307,-4.5307,-4.5307,-4.5307,-4.5265,-4.5148,-4.5136,-4.5136,-4.5136,-4.5136,-4.5061,-4.4907,-4.4895,-4.4895,-4.4895,-4.4895,-4.4895,-4.4895,-4.4895,-4.4883,-4.4858,-4.4783,-4.4732,-4.4725,-4.4685,-4.4619,-4.457,-4.457,-4.4542,-4.4501,-4.4473,-4.4041,-3.4263,0.0,0.0,0.0,0.0,0.0,0.0,0.0,0.0,0.0,0.0,0.0,0.0,0.0,0.0,0.0,0.0,0.0,0.0,0.0,0.0,0.0,0.0,0.0,0.0,0.0,0.0,0.0,-3.7522,0.0,-3.9094,-3.9365,-4.0062,-4.1274,-4.1757,-4.2609,-4.3866,-4.4362,-4.4891,-4.5471,-4.5691,-4.5807,-4.5807,-4.5807,-4.5807,-4.5807,-4.5807,-4.5807,-4.58,-4.5754,-4.5715,-4.57,-4.5646,-4.5622,-4.571,-4.6586,-4.7413,-4.8221,-4.9106,-4.9971,-5.0673,-5.0572,-5.0478,-5.0424,-5.0348,-4.9587,-4.8735,-4.8735,-4.7952,-4.6978,-4.6347,-4.6175,-4.6023,-4.543,-4.5307,-4.5307,-4.5307,-4.5307,-4.5307,-4.5307,-4.5307,-4.5307,-4.5307,-4.5307,-4.5307,-4.5307,-4.5307,-4.5307,-4.5307,-4.5307,-4.5233,-4.5026,-4.5003,-4.4967,-4.4907,-4.4895,-4.4895,-4.4895,-4.4895,-4.4895,-4.4895,-4.4846,-4.4808,-4.4796,-4.4745,-4.468,-4.4632,-4.4632,-4.4605,-4.4551,-4.4528,-4.4083,0.0,0.0,0.0,-3.2102,0.0,0.0,0.0,0.0,-3.0346,0.0,0.0,0.0,0.0,0.0,-2.665,-2.6689,-2.6665,0.0,0.0,0.0,0.0,0.0,0.0,0.0,0.0,0.0,0.0,0.0,-3.5781,0.0,-3.8154,-3.903,-3.952,-3.9578,-4.1139,-4.2028,-4.2086,-4.3769,-4.4613,-4.4652,-4.5432,-4.5807,-4.5807,-4.5807,-4.5807,-4.5807,-4.5807,-4.5807,-4.58,-4.5803,-4.5765,-4.57,-4.5698,-4.5648,-4.571,-4.6586,-4.7413,-4.8221,-4.9106,-4.9971,-5.0702,-5.0613,-5.0542,-5.0489,-5.0424,-4.9201,-4.7845,-4.7845,-4.6653,-4.5373,-4.5345,-4.5345,-4.5326,-4.5307,-4.5307,-4.5307,-4.5307,-4.5307,-4.5307,-4.5307,-4.5307,-4.5307,-4.5307,-4.5307,-4.5307,-4.5307,-4.5307,-4.5307,-4.5307,-4.5307,-4.5297,-4.5297,-4.5297,-4.5181,-4.4919,-4.4895,-4.4895,-4.4895,-4.4895,-4.4895,-4.4895,-4.4895,-4.4858,-4.4796,-4.4815,-4.4757,-4.4699,-4.4699,-4.4699,-4.4699,-4.4551,-4.4083,0.0,0.0,-3.3923,-3.2782,0.0,0.0,0.0,0.0,0.0,0.0,0.0,0.0,0.0,-2.9025,-2.8088,-2.7554,-2.6982,-2.641,0.0,0.0,0.0,0.0,0.0,0.0,0.0,0.0,0.0,-3.3938,-3.4505,-3.5342,0.0,-3.7328,-3.8321,-3.9462,-4.0042,-4.0874,-4.199,-4.2589,-4.346,-4.4594,-4.4891,-4.5278,-4.5807,-4.5807,-4.5807,-4.5807,-4.5807,-4.5807,-4.58,-4.5803,-4.5765,-4.57,-4.5698,-4.5657,-4.5633,-4.5932,-4.6586,-4.7509,-4.8913,-4.9971,-5.0702,-5.0623,-5.0582,-5.0542,-5.0489,-4.9248,-4.7865,-4.7865,-4.6628,-4.5307,-4.5307,-4.5307,-4.5307,-4.5307,-4.5307,-4.5307,-4.5307,-4.5307,-4.5307,-4.5307,-4.5307,-4.5307,-4.5307,-4.5307,-4.5307,-4.5307,-4.5307,-4.5307,-4.5307,-4.5307,-4.5307,-4.5307,-4.5307,-4.5256,-4.517,-4.5133,-4.5099,-4.5099,-4.5057,-4.5003,-4.4955,-4.4974,-4.4931,-4.4858,-4.4877,-4.4821,-4.4776,-4.4776,-4.4732,-4.4693,-4.4113,-4.3664,-3.5631,-3.5123,0.0,0.0,-3.3005,0.0,-3.1157,0.0,0.0,0.0,0.0,0.0,0.0,0.0,-2.8838,-2.803,-2.7178,-2.6288,0.0,-2.5789,0.0,0.0,0.0,0.0,0.0,0.0,-3.2304,-3.2604,-3.317,-3.3982,0.0,0.0,-3.7251,-3.8972,-3.9346,-4.0178,-4.1564,-4.1854,-4.2725,-4.413,-4.4439,-4.5026,-4.5807,-4.5807,-4.5807,-4.5807,-4.5807,-4.5807,-4.58,-4.5798,-4.5761,-4.5723,-4.5703,-4.5673,-4.5631,-4.5622,-4.6144,-4.7144,-4.8817,-4.976,-5.0279,-5.0547,-5.0613,-5.0593,-5.0542,-4.933,-4.7937,-4.7897,-4.6659,-4.5328,-4.5307,-4.5307,-4.5307,-4.5307,-4.5307,-4.5307,-4.5307,-4.5307,-4.5307,-4.5307,-4.5307,-4.5307,-4.5307,-4.5307,-4.5307,-4.5307,-4.5307,-4.5307,-4.5307,-4.5307,-4.5307,-4.5307,-4.5307,-4.5286,-4.5284,-4.523,-4.5186,-4.5174,-4.5114,-4.5091,-4.5045,-4.5045,-4.4991,-4.4931,-4.495,-4.4895,-4.4852,-4.4852,-4.4676,-4.4323,-4.3813,-4.3221]},{"header":{"parameterUnit":"m.s-1","parameterCategory":1,"la1":30.6,"la2":29.2853,"lo1":-89.7004,"lo2":-87.6739,"dy":0.0162,"dx":0.0183,"nx":112,"ny":82,"refTime":"2023-06-30T00:00:00:Z","depth":0,"parameterNumber":3,"parameterNumberName":"V-component_of_WINDS"},"data":[0.0,0.0,0.0,0.0,0.0,0.0,0.0,0.0,0.0,0.0,0.0,0.0,0.0,0.0,0.0,0.0,0.0,0.0,0.0,0.0,0.0,0.0,0.0,0.0,0.0,0.0,0.0,0.0,0.0,0.0,0.0,0.0,0.0,0.0,0.0,0.0,0.0,0.0,0.0,0.0,0.0,0.0,0.0,0.0,0.0,0.0,0.0,0.0,0.0,0.0,0.0,0.0,0.0,0.0,0.0,0.0,0.0,0.0,0.0,0.0,0.0,0.0,0.0,0.0,0.0,0.0,0.0,0.0,0.0,0.0,0.0,0.0,0.0,0.0,0.0,0.0,0.0,0.0,0.0,0.0,0.0,0.0,0.0,0.0,0.0,0.0,0.0,0.0,0.0,0.0,0.0,-1.1031,-1.211,-1.2739,-1.2718,-1.2449,-1.1974,-1.121,0.0,0.0,0.0,0.0,0.0,0.0,0.0,0.0,0.0,0.0,0.0,0.0,0.0,0.0,0.0,0.0,0.0,0.0,0.0,0.0,0.0,0.0,0.0,0.0,0.0,0.0,0.0,0.0,0.0,0.0,0.0,0.0,0.0,0.0,0.0,0.0,0.0,0.0,0.0,0.0,0.0,0.0,0.0,0.0,0.0,0.0,0.0,0.0,0.0,0.0,0.0,0.0,0.0,0.0,0.0,0.0,0.0,0.0,0.0,0.0,0.0,0.0,0.0,0.0,0.0,0.0,0.0,0.0,0.0,0.0,0.0,0.0,0.0,0.0,0.0,0.0,0.0,0.0,0.0,0.0,0.0,0.0,0.0,0.0,0.0,0.0,0.0,0.0,0.0,0.0,0.0,0.0,0.0,0.0,0.0,0.0,0.0,0.0,0.0,0.0,0.0,0.0,0.0,0.0,-1.0891,-1.2567,-1.3164,-1.3385,-1.322,-1.315,-1.264,-1.1518,0.0,0.0,0.0,0.0,0.0,0.0,0.0,0.0,0.0,0.0,0.0,0.0,0.0,0.0,0.0,0.0,0.0,0.0,0.0,0.0,0.0,0.0,0.0,0.0,0.0,0.0,0.0,0.0,0.0,0.0,0.0,0.0,0.0,0.0,0.0,0.0,0.0,0.0,0.0,0.0,0.0,0.0,0.0,0.0,0.0,0.0,0.0,0.0,0.0,0.0,0.0,0.0,0.0,0.0,0.0,0.0,0.0,0.0,0.0,0.0,0.0,0.0,0.0,0.0,0.0,0.0,0.0,0.0,0.0,0.0,0.0,0.0,0.0,0.0,0.0,0.0,0.0,0.0,0.0,0.0,0.0,0.0,0.0,0.0,0.0,0.0,0.0,0.0,0.0,0.0,0.0,0.0,0.0,0.0,0.0,0.0,0.0,0.0,0.0,0.0,0.0,0.0,0.0,-1.0659,-1.1741,-1.3218,-1.3679,-1.3819,-1.3724,-1.3569,-1.298,-1.1853,-1.0698,0.0,0.0,0.0,0.0,0.0,0.0,0.0,0.0,0.0,0.0,0.0,0.0,0.0,0.0,0.0,0.0,0.0,0.0,0.0,0.0,0.0,0.0,0.0,0.0,0.0,0.0,0.0,0.0,0.0,0.0,0.0,0.0,0.0,0.0,0.0,0.0,0.0,0.0,0.0,0.0,0.0,0.0,0.0,0.0,0.0,0.0,0.0,0.0,0.0,0.0,0.0,0.0,0.0,0.0,0.0,0.0,0.0,0.0,0.0,0.0,0.0,0.0,0.0,0.0,0.0,0.0,0.0,0.0,0.0,0.0,0.0,0.0,0.0,0.0,0.0,0.0,0.0,0.0,0.0,0.0,0.0,0.0,0.0,0.0,0.0,0.0,0.0,0.0,0.0,0.0,0.0,0.0,0.0,0.0,0.0,0.0,0.0,0.0,0.0,0.0,0.0,0.0,-1.1537,-1.2397,-1.3481,-1.3974,-1.4204,-1.4117,-1.3783,-1.3132,-1.2053,-1.1069,0.0,0.0,0.0,0.0,0.0,0.0,0.0,0.0,0.0,0.0,0.0,0.0,0.0,0.0,0.0,0.0,0.0,0.0,0.0,0.0,0.0,0.0,0.0,0.0,0.0,0.0,0.0,0.0,0.0,0.0,0.0,0.0,0.0,0.0,0.0,0.0,0.0,0.0,0.0,0.0,0.0,0.0,0.0,0.0,0.0,0.0,0.0,0.0,0.0,0.0,0.0,0.0,0.0,0.0,0.0,0.0,0.0,0.0,0.0,0.0,0.0,0.0,0.0,0.0,0.0,0.0,0.0,0.0,0.0,0.0,0.0,0.0,0.0,0.0,0.0,0.0,0.0,0.0,0.0,0.0,0.0,0.0,0.0,0.0,0.0,0.0,0.0,0.0,0.0,0.0,0.0,0.0,0.0,0.0,0.0,0.0,0.0,0.0,0.0,0.0,0.0,0.0,-1.2024,-1.2829,-1.3505,-1.4196,-1.4431,-1.414,-1.3783,-1.3132,-1.2053,-1.1069,0.0,0.0,0.0,0.0,0.0,0.0,0.0,0.0,0.0,0.0,0.0,0.0,0.0,0.0,0.0,0.0,0.0,0.0,0.0,0.0,0.0,0.0,0.0,0.0,0.0,0.0,0.0,0.0,0.0,0.0,0.0,0.0,0.0,0.0,0.0,0.0,0.0,0.0,0.0,0.0,0.0,0.0,0.0,0.0,0.0,0.0,0.0,0.0,0.0,0.0,0.0,0.0,0.0,0.0,0.0,0.0,0.0,0.0,0.0,0.0,0.0,0.0,0.0,0.0,0.0,0.0,0.0,0.0,0.0,0.0,0.0,0.0,0.0,0.0,0.0,0.0,0.0,0.0,0.0,0.0,0.0,0.0,0.0,0.0,0.0,0.0,0.0,0.0,0.0,0.0,0.0,0.0,0.0,0.0,0.0,0.0,0.0,0.0,0.0,0.0,0.0,0.0,-1.2115,-1.2853,0.0,-1.422,-1.455,-1.4415,-1.391,-1.3267,-1.2439,0.0,0.0,0.0,0.0,0.0,0.0,0.0,0.0,0.0,0.0,0.0,0.0,0.0,0.0,0.0,0.0,0.0,0.0,0.0,0.0,0.0,0.0,0.0,0.0,0.0,0.0,0.0,0.0,0.0,0.0,0.0,0.0,0.0,0.0,0.0,0.0,0.0,0.0,0.0,0.0,0.0,0.0,0.0,0.0,0.0,0.0,0.0,0.0,0.0,0.0,0.0,0.0,0.0,0.0,0.0,0.0,0.0,0.0,0.0,0.0,0.0,0.0,0.0,0.0,0.0,0.0,0.0,0.0,0.0,0.0,0.0,0.0,0.0,0.0,0.0,0.0,0.0,0.0,0.0,0.0,0.0,0.0,0.0,0.0,0.0,0.0,0.0,0.0,0.0,0.0,0.0,0.0,0.0,0.0,0.0,0.0,0.0,0.0,0.0,0.0,0.0,0.0,-1.132,-1.2248,-1.2981,0.0,-1.422,-1.4605,-1.4605,-1.3989,-1.3323,-1.2638,0.0,0.0,0.0,0.0,0.0,0.0,0.0,0.0,0.0,0.0,0.0,0.0,0.0,0.0,0.0,0.0,0.0,0.0,0.0,0.0,0.0,0.0,0.0,0.0,0.0,0.0,0.0,0.0,0.0,0.0,0.0,0.0,0.0,0.0,0.0,0.0,0.0,0.0,0.0,0.0,0.0,0.0,0.0,0.0,0.0,0.0,0.0,0.0,0.0,0.0,0.0,0.0,0.0,0.0,0.0,0.0,0.0,0.0,0.0,0.0,0.0,0.0,0.0,0.0,0.0,0.0,0.0,0.0,0.0,0.0,0.0,0.0,0.0,0.0,0.0,0.0,0.0,0.0,0.0,0.0,0.0,0.0,0.0,0.0,0.0,0.0,0.0,0.0,0.0,0.0,0.0,0.0,0.0,0.0,0.0,0.0,0.0,0.0,0.0,0.0,0.0,0.0,-1.136,-1.2432,-1.3219,-1.3545,-1.422,-1.4605,-1.4605,-1.3989,-1.3323,0.0,0.0,0.0,0.0,0.0,0.0,0.0,0.0,0.0,0.0,0.0,0.0,0.0,0.0,0.0,0.0,0.0,0.0,0.0,0.0,0.0,0.0,0.0,0.0,0.0,0.0,0.0,0.0,0.0,0.0,0.0,0.0,0.0,0.0,0.0,0.0,0.0,0.0,0.0,0.0,0.0,0.0,0.0,0.0,0.0,0.0,0.0,0.0,0.0,0.0,0.0,0.0,0.0,0.0,0.0,0.0,0.0,0.0,0.0,0.0,0.0,0.0,0.0,0.0,0.0,0.0,0.0,0.0,0.0,0.0,0.0,0.0,0.0,0.0,0.0,0.0,0.0,0.0,0.0,0.0,0.0,0.0,0.0,0.0,0.0,0.0,0.0,0.0,0.0,0.0,0.0,0.0,0.0,0.0,0.0,0.0,0.0,0.0,0.0,0.0,0.0,0.0,0.0,-1.136,-1.2432,-1.3219,-1.3545,-1.422,-1.4605,-1.4605,-1.3989,-1.3323,-1.2638,0.0,0.0,0.0,0.0,0.0,0.0,0.0,0.0,0.0,0.0,0.0,0.0,0.0,0.0,0.0,0.0,0.0,0.0,0.0,0.0,0.0,0.0,0.0,0.0,0.0,0.0,0.0,0.0,0.0,0.0,0.0,0.0,0.0,0.0,0.0,0.0,0.0,0.0,0.0,0.0,0.0,0.0,0.0,0.0,0.0,0.0,0.0,0.0,0.0,0.0,0.0,0.0,0.0,0.0,0.0,0.0,0.0,0.0,0.0,0.0,0.0,0.0,0.0,0.0,0.0,0.0,0.0,0.0,0.0,0.0,0.0,0.0,0.0,0.0,0.0,0.0,0.0,0.0,0.0,0.0,0.0,0.0,0.0,0.0,0.0,0.0,0.0,0.0,0.0,0.0,0.0,0.0,0.0,0.0,0.0,0.0,0.0,0.0,0.0,0.0,0.0,0.0,-1.1376,-1.2536,-1.3362,-1.3594,-1.422,-1.4605,-1.4605,-1.3989,-1.3387,-1.2837,0.0,0.0,0.0,0.0,0.0,0.0,0.0,0.0,0.0,0.0,0.0,0.0,0.0,0.0,0.0,0.0,0.0,0.0,0.0,0.0,0.0,0.0,0.0,0.0,0.0,0.0,0.0,0.0,0.0,0.0,0.0,0.0,0.0,0.0,0.0,0.0,0.0,0.0,0.0,0.0,0.0,0.0,0.0,0.0,0.0,0.0,0.0,0.0,0.0,0.0,0.0,0.0,0.0,0.0,0.0,0.0,0.0,0.0,0.0,0.0,0.0,0.0,0.0,0.0,0.0,0.0,0.0,0.0,0.0,0.0,0.0,0.0,0.0,0.0,0.0,0.0,0.0,0.0,0.0,0.0,0.0,0.0,0.0,0.0,0.0,0.0,0.0,0.0,0.0,0.0,0.0,0.0,0.0,0.0,0.0,0.0,0.0,0.0,0.0,0.0,0.0,0.0,-1.1447,-1.2734,-1.3592,-1.3624,-1.4236,-1.4605,-1.4605,-1.4021,-1.3514,-1.3148,0.0,0.0,0.0,0.0,0.0,0.0,0.0,0.0,0.0,0.0,0.0,0.0,0.0,0.0,0.0,0.0,0.0,0.0,0.0,0.0,0.0,0.0,0.0,0.0,0.0,0.0,0.0,0.0,0.0,0.0,0.0,0.0,0.0,0.0,0.0,0.0,0.0,0.0,0.0,0.0,0.0,0.0,0.0,0.0,0.0,0.0,0.0,0.0,0.0,0.0,0.0,0.0,0.0,0.0,0.0,0.0,0.0,0.0,0.0,0.0,-0.8684,0.0,0.0,0.0,0.0,0.0,0.0,0.0,0.0,0.0,0.0,0.0,0.0,0.0,0.0,0.0,0.0,0.0,0.0,0.0,0.0,0.0,0.0,0.0,0.0,0.0,0.0,0.0,0.0,0.0,0.0,0.0,0.0,0.0,0.0,0.0,0.0,0.0,0.0,0.0,0.0,0.0,-1.1821,-1.2885,-1.3688,-1.3974,-1.4351,-1.4605,-1.4605,-1.4356,-1.3945,-1.3292,0.0,0.0,0.0,0.0,0.0,0.0,0.0,0.0,0.0,0.0,0.0,0.0,0.0,0.0,0.0,0.0,0.0,0.0,0.0,0.0,0.0,0.0,0.0,0.0,0.0,0.0,0.0,0.0,0.0,0.0,0.0,0.0,0.0,0.0,0.0,0.0,0.0,0.0,0.0,0.0,0.0,0.0,0.0,0.0,0.0,0.0,0.0,0.0,0.0,0.0,0.0,0.0,0.0,0.0,0.0,0.0,0.0,0.0,0.0,0.0,0.0,-0.919,0.0,0.0,0.0,0.0,0.0,0.0,0.0,0.0,0.0,0.0,0.0,0.0,0.0,0.0,0.0,0.0,0.0,0.0,0.0,0.0,0.0,0.0,0.0,0.0,0.0,0.0,0.0,0.0,0.0,0.0,0.0,0.0,0.0,0.0,0.0,0.0,0.0,0.0,0.0,0.0,-1.217,-1.3076,-1.3719,-1.4069,-1.4391,-1.4641,-1.4748,-1.4533,-1.4208,-1.3721,-1.3324,0.0,0.0,0.0,0.0,0.0,0.0,0.0,0.0,0.0,0.0,0.0,0.0,0.0,0.0,0.0,0.0,0.0,0.0,0.0,0.0,0.0,0.0,0.0,0.0,0.0,0.0,0.0,0.0,0.0,0.0,0.0,0.0,0.0,0.0,0.0,0.0,0.0,0.0,0.0,0.0,0.0,0.0,0.0,0.0,0.0,0.0,0.0,0.0,0.0,0.0,0.0,0.0,0.0,0.0,0.0,-1.1552,-1.1552,-1.1552,-1.1509,-1.0762,-1.032,-1.0131,0.0,0.0,0.0,0.0,0.0,0.0,0.0,0.0,0.0,0.0,0.0,0.0,0.0,0.0,0.0,0.0,0.0,0.0,0.0,0.0,0.0,0.0,0.0,0.0,0.0,-1.0731,-1.068,0.0,0.0,0.0,0.0,0.0,0.0,0.0,0.0,0.0,0.0,0.0,0.0,-1.2566,-1.3283,-1.3815,-1.4164,-1.4431,-1.4677,-1.4872,-1.466,-1.4439,-1.4239,-1.3707,-1.2875,0.0,0.0,0.0,0.0,0.0,0.0,0.0,0.0,0.0,0.0,0.0,0.0,0.0,0.0,0.0,0.0,0.0,0.0,0.0,0.0,0.0,0.0,0.0,0.0,0.0,0.0,0.0,0.0,0.0,0.0,0.0,0.0,-0.6183,-0.6577,0.0,0.0,0.0,0.0,0.0,0.0,0.0,0.0,0.0,0.0,0.0,0.0,0.0,0.0,-1.0499,-1.1179,-1.1633,-1.1905,-1.2336,-1.2591,-1.2624,-1.2624,-1.2624,-1.2618,-1.2489,0.0,-1.1118,-1.1118,0.0,0.0,0.0,0.0,0.0,0.0,0.0,0.0,0.0,0.0,0.0,0.0,0.0,0.0,0.0,0.0,0.0,0.0,0.0,0.0,0.0,0.0,-1.144,-1.1655,-1.1891,-1.2042,0.0,-1.1346,-1.0833,-1.0659,0.0,0.0,0.0,0.0,0.0,0.0,0.0,0.0,-1.2996,-1.3616,-1.418,-1.4502,-1.4573,-1.4677,-1.4872,-1.5029,-1.5008,-1.4806,-1.4587,-1.4098,-1.3263,-1.2229,0.0,0.0,0.0,0.0,0.0,0.0,0.0,0.0,0.0,0.0,0.0,0.0,0.0,0.0,0.0,0.0,0.0,0.0,0.0,0.0,0.0,0.0,0.0,0.0,0.0,0.0,0.0,0.0,0.0,-0.5962,-0.6572,-0.7224,-0.7377,-0.7615,0.0,0.0,0.0,0.0,0.0,0.0,0.0,0.0,0.0,-1.0022,-1.075,-1.133,-1.1823,-1.2407,-1.289,-1.3263,-1.3467,-1.3566,-1.3566,-1.3566,-1.3566,-1.3566,-1.3566,-1.3254,-1.2646,-1.212,-1.1741,-1.1418,0.0,0.0,0.0,0.0,0.0,-1.1079,-1.1213,0.0,0.0,0.0,0.0,0.0,0.0,0.0,0.0,0.0,0.0,0.0,0.0,0.0,0.0,-1.2579,-1.2719,-1.2849,-1.3054,-1.2856,-1.2382,0.0,-1.1408,-1.1348,-1.1195,0.0,0.0,0.0,0.0,0.0,-1.3592,-1.3926,-1.4217,-1.4565,-1.4721,-1.4856,-1.5034,-1.5248,-1.5293,-1.5095,-1.4993,-1.4538,-1.3545,-1.3011,-1.2378,0.0,0.0,0.0,0.0,0.0,0.0,0.0,0.0,0.0,0.0,0.0,0.0,0.0,0.0,0.0,0.0,0.0,0.0,0.0,0.0,0.0,0.0,0.0,0.0,0.0,0.0,0.0,0.0,-0.6393,-0.6979,-0.7792,-0.8009,-0.8308,0.0,0.0,0.0,0.0,0.0,0.0,-0.9912,-1.0556,-1.0891,-1.0891,-1.1742,-1.2455,-1.2953,-1.343,-1.3906,-1.4369,-1.4369,-1.4369,-1.4369,-1.4369,-1.4369,-1.4369,-1.4369,-1.4266,-1.4024,-1.3136,-1.2592,-1.2348,-1.2129,-1.1914,0.0,-1.16,-1.1789,-1.2075,-1.2161,-1.24,-1.2651,-1.2523,0.0,-1.1986,-1.1754,0.0,0.0,0.0,0.0,-1.2011,-1.2498,0.0,-1.3072,-1.3267,-1.338,-1.3527,-1.3877,-1.3936,-1.3628,0.0,-1.2366,-1.2273,-1.2017,0.0,0.0,0.0,0.0,-1.3568,-1.413,-1.4331,-1.4522,-1.4863,-1.5057,-1.5207,-1.5317,-1.5532,-1.5559,-1.5351,-1.5266,-1.4838,-1.3982,-1.3665,-1.3088,-1.2259,0.0,0.0,0.0,0.0,0.0,0.0,0.0,0.0,0.0,0.0,0.0,0.0,0.0,0.0,0.0,0.0,0.0,0.0,0.0,0.0,0.0,0.0,0.0,0.0,0.0,0.0,0.0,0.0,0.0,-0.8046,-0.8608,0.0,0.0,0.0,0.0,-1.0236,-1.0441,-1.0603,-1.082,-1.142,-1.1756,-1.1756,-1.2423,-1.3029,-1.3648,-1.3925,-1.4322,-1.4848,-1.4848,-1.4848,-1.4848,-1.4848,-1.4848,-1.4848,-1.4848,-1.4842,-1.4772,-1.4046,-1.3475,-1.305,-1.3039,-1.2894,-1.271,-1.2447,-1.2631,-1.3007,-1.282,-1.3064,-1.339,-1.3125,-1.2723,-1.2288,-1.2276,-1.2048,0.0,0.0,-1.2408,-1.2612,-1.2824,-1.3226,-1.356,-1.358,-1.3834,-1.4087,-1.4246,-1.4258,-1.4189,0.0,-1.3631,-1.3316,-1.2994,0.0,-1.3068,-1.3083,-1.3616,-1.4196,-1.4526,-1.4919,-1.5253,-1.5594,-1.5817,-1.5878,-1.5675,-1.5925,-1.5965,-1.5797,-1.542,-1.5155,-1.5129,-1.4084,-1.3485,-1.3425,-1.2336,0.0,0.0,0.0,0.0,0.0,0.0,0.0,0.0,0.0,0.0,0.0,0.0,0.0,0.0,0.0,0.0,0.0,0.0,0.0,0.0,0.0,0.0,0.0,0.0,0.0,0.0,0.0,0.0,-0.8763,-0.9177,0.0,0.0,-1.0518,-1.0702,-1.1047,-1.126,-1.1468,-1.1685,-1.2162,-1.2432,-1.2432,-1.2974,-1.352,-1.4,-1.4518,-1.4997,-1.5495,-1.568,-1.572,-1.5628,-1.5628,-1.5488,-1.5343,-1.5343,-1.5262,-1.5043,-1.4786,-1.4369,-1.3787,-1.3626,-1.3427,-1.3261,-1.313,-1.3435,-1.3859,-1.3773,-1.3988,-1.422,-1.3773,-1.3381,-1.3085,-1.3085,-1.3019,-1.299,-1.3417,-1.359,-1.3719,-1.4163,-1.4372,-1.4496,-1.4496,-1.4576,-1.4798,-1.5109,-1.5014,-1.4944,-1.5187,-1.4626,-1.4122,-1.4005,-1.4186,-1.4399,-1.4399,-1.4825,-1.5165,-1.5292,-1.5419,-1.5585,-1.5704,-1.5996,-1.6147,-1.6091,-1.6158,-1.622,-1.6201,-1.5797,-1.548,-1.5223,-1.4821,-1.4256,-1.3519,-1.3088,-1.2612,0.0,0.0,0.0,0.0,0.0,0.0,0.0,0.0,0.0,0.0,0.0,0.0,0.0,0.0,0.0,0.0,0.0,0.0,0.0,0.0,0.0,0.0,0.0,0.0,0.0,0.0,-0.8375,-0.9216,-0.9679,-1.02,-1.0877,-1.1182,-1.1458,-1.1803,-1.202,-1.2228,-1.2441,-1.2852,-1.3079,-1.3079,-1.3519,-1.398,-1.4387,-1.4806,-1.5258,-1.5805,-1.6058,-1.6102,-1.607,-1.607,-1.5941,-1.5715,-1.5715,-1.5585,-1.5306,-1.5306,-1.5047,-1.4525,-1.4277,-1.404,-1.3825,-1.375,-1.4027,-1.4402,-1.452,-1.469,-1.4775,-1.4322,-1.3996,-1.3761,-1.3676,-1.3586,-1.3604,-1.4089,-1.4218,-1.4315,-1.4867,-1.5008,-1.5008,-1.5008,-1.5008,-1.5136,-1.5575,-1.5548,-1.5494,-1.598,-1.5292,-1.4626,-1.4626,-1.4883,-1.5111,-1.5111,-1.5451,-1.576,-1.584,-1.5856,-1.5904,-1.6023,-1.6439,-1.6632,-1.65,-1.6602,-1.661,-1.6398,-1.6158,-1.5814,-1.5429,-1.5283,-1.4822,-1.4101,-1.3708,-1.3202,-1.2586,0.0,0.0,0.0,0.0,0.0,0.0,0.0,0.0,0.0,0.0,0.0,0.0,0.0,0.0,0.0,0.0,0.0,0.0,0.0,0.0,0.0,0.0,0.0,-0.7752,-0.8282,-0.8796,-0.9343,-1.0049,-1.0658,-1.107,-1.1703,-1.218,-1.2391,-1.2663,-1.2932,-1.3136,-1.3476,-1.3703,-1.3707,-1.4099,-1.4442,-1.4765,-1.4827,-1.514,-1.5768,-1.5825,-1.595,-1.6266,-1.6261,-1.6188,-1.6007,-1.6007,-1.5872,-1.5601,-1.5601,-1.5467,-1.5177,-1.4993,-1.4751,-1.4464,-1.4299,-1.4382,-1.4653,-1.5011,-1.5119,-1.5077,-1.4817,-1.4539,-1.4262,-1.4008,-1.3749,-1.3628,-1.4114,-1.4244,-1.434,-1.4894,-1.5035,-1.5035,-1.5035,-1.5035,-1.517,-1.561,-1.5737,-1.5857,-1.6337,-1.5628,-1.4944,-1.4929,-1.5055,-1.5141,-1.5141,-1.5482,0.0,-1.6174,-1.6222,-1.6349,-1.6698,-1.7106,-1.7243,-1.688,-1.7232,-1.7196,-1.6467,-1.6398,-1.6227,-1.5831,-1.5437,-1.5198,-1.5215,-1.411,-1.3374,-1.306,0.0,0.0,0.0,0.0,0.0,0.0,0.0,0.0,0.0,0.0,0.0,0.0,0.0,0.0,0.0,0.0,0.0,0.0,0.0,0.0,0.0,0.0,-0.7628,-0.8096,-0.8495,-0.9021,-0.9759,-1.033,-1.0919,-1.166,-1.2075,-1.2507,-1.2866,-1.3098,-1.3306,-1.3509,-1.3773,-1.3991,-1.4133,-1.4251,-1.4383,-1.4671,-1.492,-1.5189,-1.5609,-1.5856,-1.5898,-1.5808,-1.6055,-1.596,-1.5587,-1.5885,-1.5872,-1.5601,-1.5601,-1.5564,-1.5483,-1.5241,-1.4999,-1.4778,-1.4719,-1.4928,-1.5198,-1.5338,-1.539,-1.5348,-1.5083,-1.4817,-1.4588,-1.4515,-1.4304,-1.4175,-1.4706,-1.4848,-1.4935,-1.5451,-1.5591,-1.5591,-1.5591,-1.5591,-1.5731,-1.6237,-1.6155,-1.613,-1.6673,-1.6316,-1.5949,-1.5876,-1.582,-1.5886,-1.604,0.0,0.0,-1.6531,-1.6547,-1.6668,-1.696,-1.7229,-1.7432,-1.7436,-1.7463,-1.742,0.0,-1.669,-1.6338,-1.6154,-1.5831,-1.5506,-1.5223,-1.4649,-1.4316,0.0,0.0,0.0,0.0,0.0,0.0,0.0,0.0,0.0,0.0,0.0,0.0,0.0,0.0,0.0,0.0,0.0,0.0,0.0,0.0,0.0,0.0,-0.7612,-0.8184,-0.8783,-0.9027,-0.938,-0.9996,-1.0574,-1.1199,-1.1863,-1.2377,-1.2843,-1.3178,-1.348,-1.3703,-1.3816,-1.4109,-1.4326,-1.4444,-1.4529,-1.4633,-1.4692,-1.4945,-1.5206,-1.5468,-1.5724,-1.5779,-1.5782,-1.5969,-1.5782,0.0,-1.5729,-1.5721,-1.5418,-1.5537,-1.5601,0.0,0.0,0.0,0.0,0.0,-1.5149,-1.541,-1.5494,-1.5563,-1.562,-1.5354,-1.5167,-1.5004,-1.4781,-1.4606,-1.4546,-1.4971,-1.5083,-1.5226,-1.5689,-1.5784,-1.5784,-1.5784,-1.5784,-1.5967,-1.6487,-1.6441,-1.6455,-1.6963,0.0,0.0,-1.6763,-1.6528,-1.6385,-1.657,-1.666,-1.6689,0.0,-1.6689,-1.6812,-1.7049,-1.727,-1.7473,-1.77,-1.7706,0.0,0.0,0.0,-1.6785,-1.6547,-1.6342,0.0,0.0,0.0,-1.5412,0.0,0.0,0.0,0.0,-1.5044,-1.5357,0.0,0.0,0.0,0.0,0.0,0.0,0.0,0.0,0.0,0.0,0.0,0.0,0.0,0.0,0.0,0.0,-0.8178,-0.8743,-0.9509,-0.9643,-0.9835,-1.0156,-1.0833,-1.1472,-1.1919,-1.2643,-1.3202,-1.3443,-1.3802,-1.4033,-1.4081,0.0,0.0,0.0,0.0,-1.4866,-1.4866,-1.4866,-1.5066,-1.5403,-1.5403,-1.5593,-1.5904,-1.5909,-1.5677,-1.5275,-1.5628,-1.5498,-1.5093,-1.5429,-1.5601,-1.5601,-1.5601,-1.5472,-1.5235,-1.5126,-1.521,0.0,0.0,0.0,0.0,-1.562,-1.5523,-1.5409,-1.4944,-1.4787,-1.4801,-1.5017,-1.5127,-1.5265,-1.5648,-1.5784,-1.5784,-1.5784,-1.5825,-1.5974,-1.6487,-1.6629,-1.677,-1.7192,-1.7099,-1.7091,-1.7591,-1.7087,-1.6722,-1.6923,-1.6826,0.0,-1.6697,-1.6689,-1.6812,-1.7098,0.0,0.0,-1.77,-1.791,-1.7854,-1.7591,-1.7531,-1.7304,-1.6935,-1.688,-1.688,-1.688,-1.6622,-1.645,-1.645,-1.6405,-1.6588,-1.7053,-1.6315,-1.6388,0.0,0.0,0.0,0.0,0.0,0.0,0.0,0.0,0.0,0.0,0.0,0.0,0.0,0.0,0.0,-0.8117,-0.8548,-0.9049,-0.9752,-1.0091,-1.0253,-1.0375,-1.0804,-1.1389,-1.2056,-1.2619,-1.3185,-1.3863,-1.3967,-1.4156,-1.4496,-1.4591,0.0,-1.487,-1.4847,-1.4866,-1.4866,-1.4866,-1.4931,-1.5001,0.0,0.0,-1.5127,-1.5463,-1.5445,-1.512,-1.532,-1.5278,-1.5018,-1.5134,-1.5359,-1.5601,-1.5601,-1.5569,-1.5558,-1.5555,-1.5608,-1.563,-1.571,-1.5802,-1.5879,-1.5831,-1.5674,-1.5481,-1.5378,-1.5197,0.0,-1.5097,-1.5267,-1.546,-1.551,-1.5683,-1.5784,-1.5784,-1.5981,-1.6218,-1.6541,-1.6784,-1.7019,-1.7239,-1.7274,-1.7377,-1.7895,-1.7467,-1.7062,-1.7191,-1.7215,-1.7064,-1.6729,-1.6689,-1.6861,-1.731,-1.7392,-1.7554,-1.7919,-1.8,-1.7965,-1.7897,-1.7638,-1.7304,-1.6935,-1.688,-1.688,-1.688,-1.685,-1.6807,-1.6807,-1.6807,-1.6995,-1.7406,-1.7246,-1.7404,0.0,0.0,0.0,0.0,0.0,0.0,0.0,0.0,0.0,0.0,0.0,-0.6437,0.0,0.0,-0.7677,-0.8594,-0.9036,-0.9486,-1.0096,-1.0391,-1.053,-1.0391,-1.0887,-1.1436,-1.1888,-1.2503,-1.3141,-1.3732,-1.3981,-1.4298,-1.4551,-1.4728,-1.4827,-1.4931,-1.4866,-1.4866,-1.4866,-1.4866,-1.4866,-1.4866,-1.4866,-1.4866,-1.4931,-1.5132,-1.5082,-1.487,-1.4968,-1.4933,-1.4775,-1.503,-1.5294,-1.5601,-1.5601,-1.5601,-1.5569,-1.5507,-1.5497,-1.5536,-1.5559,-1.5633,-1.5737,-1.5838,-1.5801,-1.5674,-1.5535,-1.5409,-1.5297,-1.5319,-1.5494,-1.5686,-1.5703,-1.5866,-1.6012,-1.5818,-1.5981,-1.6265,-1.6541,-1.6831,-1.7066,-1.7239,-1.7279,-1.7473,-1.7986,-1.7804,-1.7648,-1.7799,-1.7493,-1.7215,-1.7032,-1.6808,-1.6861,-1.7221,-1.7351,-1.7514,-1.7821,-1.7951,-1.8,-1.8,-1.786,-1.7672,-1.7453,-1.7436,-1.7436,-1.7436,-1.7436,-1.7436,-1.7436,-1.7663,-1.7956,-1.8399,-1.8554,-1.8569,0.0,0.0,0.0,0.0,0.0,0.0,0.0,0.0,-0.6515,-0.677,-0.6854,-0.7041,-0.7587,-0.7804,-0.8195,-0.9068,-0.9448,-0.9793,-1.0373,-1.0603,-1.0651,-1.055,-1.1044,-1.1484,-1.1722,-1.2381,-1.2957,-1.3419,-1.3906,-1.4295,-1.4547,-1.4776,-1.4866,-1.4866,-1.4866,-1.4866,-1.4866,-1.4866,-1.4866,-1.4866,-1.4866,-1.4866,-1.4866,-1.4866,-1.4781,-1.4676,-1.4678,-1.4628,-1.4526,-1.485,-1.5175,-1.5537,-1.5601,-1.5601,-1.5575,-1.5386,-1.5306,-1.531,-1.5444,-1.5456,-1.5535,-1.5785,-1.5891,-1.5849,-1.5638,-1.5572,-1.5569,-1.5501,-1.5726,-1.5979,-1.5903,-1.6121,-1.6279,-1.5985,-1.6109,-1.6381,-1.6555,-1.6831,-1.7113,-1.7286,-1.7279,-1.7473,-1.7986,-1.8087,-1.8157,-1.8261,-1.7826,-1.7429,-1.7337,-1.7024,-1.6892,-1.7066,-1.727,-1.7514,-1.774,-1.791,-1.8,-1.8,-1.8,-1.8,-1.8,-1.8,-1.8034,-1.8102,-1.8102,-1.8145,-1.8222,-1.8554,-1.8958,-1.9392,-1.9669,-1.9513,-0.499,-0.5322,-0.5691,-0.5842,-0.6179,-0.6474,0.0,0.0,-0.6939,-0.7234,-0.7404,-0.76,-0.788,-0.8116,-0.8522,-0.9405,-0.9594,-0.9835,-1.0585,-1.068,-1.0745,-1.0891,-1.1078,-1.1438,-1.1921,-1.2162,-1.2543,-1.33,-1.3667,-1.4034,-1.4418,-1.4721,-1.4866,-1.4866,-1.4866,-1.4866,-1.4866,-1.4866,-1.4866,-1.4866,-1.4866,-1.4866,-1.4866,-1.4866,-1.4922,-1.4879,-1.4482,-1.4437,-1.4526,-1.462,-1.4823,-1.5175,-1.5477,-1.5601,-1.5596,-1.5569,-1.5447,-1.5338,-1.5592,-1.5612,-1.5535,-1.5785,-1.5891,-1.5885,-1.5855,-1.5849,-1.5789,-1.5575,-1.5865,-1.6208,-1.5935,-1.626,-1.6587,-1.6293,-1.6607,-1.6869,-1.6644,-1.6958,-1.7286,-1.7279,-1.7279,-1.7473,-1.7986,-1.8087,-1.8157,-1.8261,-1.8232,-1.7969,-1.7358,-1.7247,-1.7213,-1.7131,-1.727,-1.7554,-1.791,-1.7991,-1.8,-1.8,-1.8,-1.8,-1.8,-1.8,-1.8153,-1.8519,-1.8528,-1.8699,-1.9093,-1.9093,-1.9324,-1.9749,-1.9793,-1.9994,-0.5617,-0.5996,0.0,0.0,-0.6709,-0.6902,-0.7054,-0.7275,-0.7502,-0.7716,-0.7882,-0.8079,-0.8374,-0.8482,-0.8754,0.0,-0.9603,-0.9898,-1.041,-1.0582,-1.0798,-1.1082,-1.1179,-1.1351,-1.1661,-1.2013,-1.239,-1.2951,-1.3299,-1.3662,-1.4119,-1.4272,-1.4338,-1.4338,-1.4539,-1.4604,-1.4604,-1.48,-1.4866,-1.4866,-1.4866,-1.4866,-1.4866,-1.4866,-1.487,-1.4742,-1.444,-1.4375,-1.447,-1.438,-1.465,-1.5116,-1.5235,-1.5418,-1.5601,-1.5601,-1.5353,-1.5112,-1.5394,-1.5353,-1.5256,-1.5583,-1.5791,-1.5891,-1.5891,-1.5891,-1.5867,-1.5759,-1.6144,-1.6495,-1.6221,-1.6553,-1.6847,-1.6429,-1.6655,-1.6904,-1.6651,-1.6958,-1.7279,-1.7279,-1.7279,-1.7473,-1.7986,-1.8087,-1.8226,-1.8537,-1.843,-1.82,-1.7906,-1.7525,-1.7261,-1.709,-1.727,-1.7514,-1.7781,-1.791,-1.8,-1.8,-1.8,-1.8094,-1.8348,-1.8357,-1.8537,-1.8922,-1.893,-1.905,-1.9213,-1.9401,-1.9722,-2.0208,-2.0421,-2.0738,-0.6176,0.0,0.0,-0.6916,-0.7085,-0.7316,-0.7512,-0.7723,-0.7929,-0.8119,-0.8282,-0.8459,-0.8672,-0.8747,-0.8917,-0.9306,-0.9544,-0.9816,-1.0257,-1.0516,-1.0767,-1.1187,-1.1269,-1.137,-1.1557,-1.1867,-1.2273,-1.2645,-1.2985,-1.3343,-1.3731,-1.3879,-1.3875,-1.3875,-1.4141,-1.4272,-1.4272,-1.4469,-1.467,-1.4735,-1.4735,-1.48,-1.4866,-1.4866,-1.4786,-1.464,-1.4492,-1.4404,-1.4435,-1.4348,-1.452,-1.4878,-1.5056,-1.5235,-1.5477,-1.5601,-1.5338,-1.5029,-1.5252,-1.5177,-1.5084,-1.5398,-1.5636,-1.5791,-1.5891,-1.5891,-1.5891,-1.5891,-1.6311,-1.6685,-1.6482,-1.6853,-1.7172,-1.6533,-1.6736,-1.6967,-1.6672,-1.6911,-1.7239,-1.7286,-1.7279,-1.7473,-1.79,-1.804,-1.8226,-1.8651,-1.8567,-1.8406,-1.8311,-1.7699,-1.7259,-1.7236,-1.7286,-1.7383,-1.7578,-1.7789,-1.7953,-1.8063,-1.8145,-1.8357,-1.8733,-1.8793,-1.893,-1.9324,-1.9333,-1.9384,-1.9487,-1.9761,-2.0111,-2.0651,-2.0873,-2.1266,-0.6572,-0.6862,-0.7085,-0.7088,-0.736,-0.7662,-0.7904,-0.7975,-0.8066,-0.8408,-0.8591,-0.8699,-0.871,-0.8832,-0.8989,-0.9323,-0.9434,-0.9599,-1.0202,-1.0404,-1.0685,-1.1142,-1.1382,-1.1565,0.0,-1.1772,-1.1922,-1.228,-1.2611,-1.2961,-1.3416,-1.3752,-1.3875,-1.3875,-1.394,-1.3945,-1.3945,-1.394,-1.4076,-1.4403,-1.4403,-1.4604,-1.4866,-1.4866,-1.4931,-1.4847,-1.4709,-1.4501,-1.4346,-1.444,-1.4418,-1.4291,-1.4878,-1.5116,-1.5175,-1.5477,-1.5445,-1.5203,-1.5256,-1.5183,-1.5048,-1.5402,-1.5482,-1.5535,-1.5838,-1.5891,-1.5891,-1.5891,-1.6311,-1.6677,-1.667,-1.714,-1.7422,-1.6834,-1.69,-1.6992,-1.6667,-1.6831,-1.7073,-1.7239,-1.7279,-1.738,-1.7675,-1.7955,-1.8187,-1.8481,-1.8689,-1.8684,-1.8343,-1.7699,-1.7355,-1.7576,-1.7301,-1.718,-1.7392,-1.7578,-1.79,-1.8271,-1.8455,-1.8751,-1.9187,-1.9196,-1.9333,-1.9674,-1.9683,-1.9862,-2.0257,-2.0266,-2.0538,-2.0979,-2.0988,-2.1266,-0.6883,-0.7139,-0.7339,-0.7536,-0.7692,-0.7943,-0.8147,-0.8265,-0.836,-0.8462,-0.8523,-0.856,-0.856,-0.8682,-0.8788,-0.8896,-0.9201,-0.9489,-0.9655,-1.0185,-1.0636,-1.0916,-1.1269,0.0,0.0,0.0,0.0,-1.228,-1.243,-1.265,-1.2951,-1.3095,-1.3161,-1.3161,-1.3428,-1.356,-1.356,-1.3814,-1.3945,-1.4076,-1.4076,-1.4272,-1.4539,-1.4539,-1.467,-1.4856,-1.4723,-1.4511,-1.4293,-1.4213,-1.4186,-1.4232,-1.4411,-1.4764,-1.5116,-1.5235,-1.537,-1.5424,-1.514,-1.5015,-1.5005,-1.4905,-1.5154,-1.5535,-1.5583,-1.5737,-1.5891,-1.5891,-1.6158,-1.6477,-1.6624,-1.7008,-1.7232,-1.6797,-1.6914,-1.6999,-1.6674,-1.6831,-1.7066,-1.7239,-1.7279,-1.738,-1.7628,-1.79,-1.8226,-1.8651,-1.8743,-1.87,-1.8343,-1.8097,-1.7902,-1.7749,-1.775,-1.7813,-1.7855,-1.8059,-1.8278,-1.859,-1.8684,-1.8981,-1.9495,-1.9512,-1.9727,-2.0095,-2.0103,-2.0163,-2.0292,-2.0292,-2.0555,-2.0997,-2.0997,-2.1266,-0.7156,-0.7373,-0.7587,-0.7831,-0.8007,-0.8163,-0.8313,-0.8418,-0.8482,-0.8482,-0.8482,-0.8482,-0.8482,-0.8564,-0.8648,-0.8703,-0.8954,-0.9205,-0.9372,-0.9898,-1.036,-1.0578,-1.1091,0.0,0.0,0.0,0.0,-1.2284,-1.2365,-1.2527,-1.2824,-1.277,-1.277,-1.277,-1.3038,-1.3169,-1.3169,-1.3424,-1.3555,-1.3752,-1.3814,-1.401,-1.4207,-1.4207,-1.4338,-1.453,-1.4535,-1.4385,-1.411,-1.4108,-1.407,-1.4052,-1.4172,-1.4471,-1.4818,-1.4997,-1.5235,-1.5365,-1.5092,-1.4972,-1.4961,-1.4767,-1.5007,-1.5315,-1.5482,-1.569,-1.5891,-1.5891,-1.6105,-1.6377,-1.6624,-1.6955,-1.7134,-1.6797,-1.6814,-1.69,-1.6674,-1.6737,-1.6925,-1.7239,-1.7279,-1.7333,-1.7527,-1.7854,-1.8226,-1.8651,-1.8735,-1.8694,-1.8518,-1.8375,-1.8208,-1.7985,-1.7981,-1.7996,-1.7996,-1.8162,-1.8444,-1.8723,-1.8898,-1.924,-1.9745,-1.9851,-2.0052,-2.0283,-2.0292,-2.0292,-2.0292,-2.0292,-2.0555,-2.0997,-2.0997,-2.1266,-0.735,-0.7597,-0.7848,-0.7961,-0.8163,-0.8357,-0.8452,-0.8476,-0.8469,-0.8462,-0.8455,-0.8445,0.0,0.0,-0.8506,-0.8652,-0.8696,-0.8869,-0.9292,-0.9699,-1.0015,0.0,0.0,0.0,0.0,0.0,0.0,-1.2241,0.0,-1.2645,-1.2762,-1.277,-1.277,-1.277,-1.277,-1.277,-1.277,-1.277,-1.2972,-1.3367,-1.3687,-1.3875,-1.3879,-1.3879,-1.3879,-1.3945,-1.4272,-1.4185,-1.382,-1.4124,-1.4071,-1.3767,-1.4057,-1.4172,-1.4291,-1.4818,-1.5056,-1.5084,-1.5168,-1.5043,-1.4904,-1.4955,-1.498,-1.5041,-1.5374,-1.5684,-1.5891,-1.5891,-1.6105,-1.6324,-1.663,-1.6942,-1.7062,-1.6746,-1.6693,-1.6675,-1.6572,-1.6581,-1.6723,-1.7192,-1.7279,-1.7279,-1.7333,-1.7753,-1.8187,-1.8481,-1.8651,-1.8781,-1.8781,-1.8533,-1.8327,-1.8327,-1.8025,-1.787,-1.787,-1.8053,-1.8293,-1.8694,-1.914,-1.9558,-1.9874,-2.0155,-2.0292,-2.0292,-2.0292,-2.0292,-2.0292,-2.0292,-2.0555,-2.0997,-2.0997,-2.123,-0.7597,-0.7753,-0.7875,-0.8143,-0.8241,-0.8357,-0.8452,-0.8401,-0.8292,-0.8177,-0.8062,-0.795,0.0,0.0,0.0,-0.8153,-0.8492,0.0,-0.8872,-0.9462,0.0,-1.0015,0.0,-1.1117,-1.1097,-1.1637,0.0,0.0,-1.2407,-1.2645,-1.2762,-1.277,-1.277,-1.277,-1.277,-1.277,-1.277,-1.277,-1.2836,-1.2968,-1.3034,-1.3231,-1.3564,-1.3564,-1.3687,-1.3875,-1.4006,-1.4003,-1.4025,-1.3933,-1.3908,-1.3915,-1.387,-1.3992,-1.4232,-1.4351,-1.4704,-1.5105,-1.5107,-1.5056,-1.4842,-1.4666,-1.4647,-1.4767,-1.5041,-1.5369,-1.5636,-1.5838,-1.5945,-1.6051,-1.6318,-1.6485,-1.6497,-1.6403,-1.6398,-1.6377,-1.63,-1.6447,-1.6683,-1.7019,-1.72,-1.738,-1.7574,-1.7721,-1.7955,-1.8435,-1.8527,-1.8612,-1.8781,-1.8748,-1.8692,-1.8692,-1.8613,-1.8557,-1.8557,-1.8603,-1.8734,-1.905,-1.9393,-1.9662,-1.9882,-2.0155,-2.0292,-2.0292,-2.0292,-2.0292,-2.0292,-2.0292,-2.0464,-2.0781,-2.0907,-2.1186,-0.7743,-0.7909,-0.8055,-0.8228,-0.8371,-0.8367,-0.8384,-0.8275,-0.8126,-0.797,-0.7821,0.0,-0.7614,0.0,0.0,0.0,0.0,0.0,-0.8693,-0.9265,-0.9696,0.0,-1.0361,0.0,-1.0987,-1.1483,-1.1816,0.0,-1.2421,-1.2726,-1.2832,-1.277,-1.277,-1.277,-1.277,-1.277,-1.277,-1.277,-1.277,-1.277,-1.277,-1.2902,-1.3169,-1.3169,-1.3231,-1.3424,0.0,-1.3644,-1.3653,-1.3861,-1.3899,-1.375,-1.3817,-1.3894,-1.3992,-1.4172,-1.4411,-1.4764,-1.4997,-1.4935,-1.47,-1.4673,-1.462,-1.4659,-1.4928,-1.5208,-1.5535,-1.5838,-1.5891,-1.5914,-1.607,-1.6183,-1.6266,-1.6171,-1.6196,-1.6289,-1.6191,-1.64,-1.673,-1.7059,-1.7239,-1.7333,-1.7481,-1.7628,-1.7815,-1.8102,-1.8342,-1.8527,-1.8658,-1.8743,-1.8781,-1.8781,-1.8781,-1.8781,-1.8781,-1.8781,-1.8874,-1.9004,-1.9396,-1.9633,-1.9754,-2.011,-2.0292,-2.0292,-2.0292,-2.0292,-2.0292,-2.0292,-2.0428,-2.0699,-2.0826,-2.106,-0.7738,-0.7949,-0.8166,-0.8166,-0.826,-0.831,-0.8221,-0.8019,-0.7861,-0.7691,0.0,-0.7446,-0.7493,-0.7493,-0.7591,-0.7884,0.0,-0.8343,-0.8638,-0.9066,-0.9415,-0.9588,-1.0131,-1.0566,-1.0916,-1.1221,-1.1555,-1.1703,-1.2309,-1.2638,-1.2638,-1.2704,-1.277,-1.277,-1.277,-1.277,-1.277,-1.277,-1.277,-1.277,-1.277,-1.277,-1.277,-1.277,-1.277,-1.2836,0.0,0.0,-1.3113,-1.3735,-1.383,-1.3551,-1.3896,-1.3882,-1.3748,-1.4052,-1.4172,-1.4291,-1.4818,-1.4765,-1.4442,-1.4772,-1.4729,-1.4606,-1.4934,-1.5208,-1.5476,-1.5785,-1.5891,-1.5884,-1.5839,-1.6039,-1.6132,-1.5901,-1.6044,-1.6194,-1.6137,-1.64,-1.673,-1.7192,-1.7279,-1.7279,-1.7279,-1.7481,-1.7675,-1.7675,-1.8102,-1.8435,-1.8481,-1.8697,-1.8781,-1.8781,-1.8781,-1.8781,-1.8781,-1.8781,-1.8781,-1.8781,-1.9258,-1.9541,-1.9587,-2.0027,-2.0246,-2.0292,-2.0292,-2.0292,-2.0292,-2.0292,-2.0428,-2.0654,-2.0699,-2.0934,-0.7273,-0.7421,-0.7545,-0.7651,-0.7615,-0.7545,-0.7507,-0.7365,0.0,0.0,-0.6781,-0.6729,-0.6911,-0.6959,-0.7099,-0.758,0.0,0.0,0.0,0.0,-0.9354,0.0,0.0,0.0,0.0,0.0,0.0,0.0,0.0,0.0,-1.1978,-1.2243,-1.2507,-1.277,-1.277,-1.277,-1.277,-1.277,-1.277,-1.277,-1.277,-1.277,-1.277,-1.277,-1.277,-1.277,0.0,0.0,-1.3373,-1.3599,-1.3716,-1.3738,-1.3953,-1.3882,-1.3688,-1.3748,-1.3933,-1.4237,-1.459,-1.4537,-1.4442,-1.4772,-1.4623,-1.4347,-1.4826,-1.5041,-1.5202,-1.5731,-1.5891,-1.5831,-1.5618,-1.5587,-1.5639,-1.5566,-1.5603,-1.5701,-1.5845,-1.6251,-1.6683,-1.6972,-1.72,-1.7279,-1.7279,-1.7333,-1.7426,-1.7675,-1.7776,-1.8009,-1.8435,-1.8697,-1.8781,-1.8781,-1.8781,-1.8781,-1.8781,-1.8781,-1.8781,-1.8781,-1.9104,-1.9387,-1.9587,-1.9845,-2.0065,-2.0292,-2.0292,-2.0292,-2.0292,-2.0292,-2.0337,-2.0382,-2.0609,-2.0744,-0.7152,-0.7339,-0.7428,-0.7354,-0.7391,-0.7388,-0.723,0.0,0.0,0.0,-0.647,-0.6399,-0.6414,-0.6504,0.0,-0.7102,-0.7492,0.0,0.0,0.0,0.0,0.0,0.0,0.0,0.0,0.0,0.0,0.0,0.0,0.0,-1.178,-1.1978,-1.2111,-1.2243,-1.2309,-1.2309,-1.2309,-1.2309,-1.2375,-1.2572,-1.2572,-1.2638,-1.277,-1.277,-1.277,-1.277,0.0,0.0,-1.3095,-1.34,-1.3512,-1.3542,-1.3826,-1.385,-1.3688,-1.3688,-1.3808,-1.3992,-1.4296,-1.4303,-1.4215,-1.4551,-1.4462,-1.4245,-1.4665,-1.4874,-1.5095,-1.5577,-1.5785,-1.5801,-1.5396,-1.5395,-1.5438,-1.5333,-1.546,-1.5737,-1.5974,-1.6218,-1.6501,-1.6932,-1.7066,-1.72,-1.7279,-1.7279,-1.7333,-1.7481,-1.7628,-1.7776,-1.8055,-1.8427,-1.8697,-1.8781,-1.8781,-1.8781,-1.8781,-1.8781,-1.8781,-1.8781,-1.905,-1.9333,-1.9587,-1.9799,-2.0019,-2.0292,-2.0292,-2.0292,-2.0292,-2.0292,-2.0292,-2.0292,-2.0428,-2.0564,-0.697,-0.7166,-0.7256,-0.7071,-0.7169,-0.7178,-0.6958,-0.6729,0.0,-0.6308,-0.6177,-0.6045,-0.6008,-0.606,-0.626,0.0,-0.7055,-0.7498,0.0,0.0,0.0,0.0,0.0,0.0,0.0,0.0,0.0,0.0,0.0,0.0,0.0,-1.1648,-1.1714,-1.178,-1.178,-1.178,-1.178,-1.178,-1.1912,-1.2177,-1.2177,-1.2375,-1.2704,-1.2704,-1.2704,-1.277,0.0,0.0,0.0,-1.3235,-1.3337,-1.3362,-1.3681,-1.3745,-1.3688,-1.3688,-1.3688,-1.3748,-1.4052,-1.4064,-1.3982,-1.4272,-1.4301,-1.4245,-1.4498,-1.4767,-1.5095,-1.5428,-1.5684,-1.5771,-1.5246,-1.5253,-1.5363,-1.5168,-1.541,-1.5832,-1.6076,-1.6177,-1.6319,-1.6744,-1.6932,-1.7073,-1.7192,-1.7286,-1.7279,-1.7279,-1.7481,-1.7628,-1.7675,-1.8055,-1.8427,-1.8643,-1.8735,-1.8781,-1.8781,-1.8781,-1.8781,-1.8781,-1.9012,-1.9242,-1.9487,-1.9708,-1.9982,-2.0201,-2.0292,-2.0292,-2.0292,-2.0292,-2.0292,-2.0292,-2.0292,-2.0428,-0.6379,-0.6548,-0.664,-0.6517,-0.6495,-0.644,-0.625,0.0,-0.5772,-0.5638,-0.5424,-0.5374,-0.5687,-0.5662,-0.5788,-0.6414,-0.6659,-0.6904,0.0,0.0,0.0,0.0,0.0,0.0,0.0,0.0,0.0,0.0,0.0,0.0,0.0,-1.1247,-1.1446,-1.178,-1.178,-1.178,-1.178,-1.178,-1.1846,-1.1846,-1.1846,-1.2045,-1.2375,-1.2375,-1.2507,-1.277,0.0,0.0,0.0,-1.3235,-1.3337,-1.3362,-1.3681,-1.3745,-1.3688,-1.3688,-1.3688,-1.3748,-1.4052,-1.4064,-1.3982,-1.4272,-1.4301,-1.4245,-1.4498,-1.4767,-1.5095,-1.5428,-1.5684,-1.5771,-1.5246,-1.5107,-1.5125,-1.512,-1.5309,-1.5588,-1.5784,-1.6028,-1.6224,-1.6272,-1.665,-1.7026,-1.7026,-1.72,-1.7279,-1.7279,-1.7326,-1.7426,-1.7675,-1.7721,-1.7861,-1.8133,-1.855,-1.8781,-1.8781,-1.8781,-1.8781,-1.8781,-1.8827,-1.8966,-1.9242,-1.9487,-1.9716,-1.9928,-2.0201,-2.0292,-2.0292,-2.0292,-2.0292,-2.0292,-2.0292,-2.0292,-0.6276,-0.6336,-0.6396,-0.6347,-0.6336,-0.6274,-0.6032,0.0,-0.5634,-0.5483,-0.5306,-0.5221,-0.5282,-0.5296,-0.5464,-0.5944,-0.6201,-0.6523,-0.7116,0.0,0.0,0.0,0.0,0.0,0.0,0.0,0.0,0.0,0.0,0.0,0.0,0.0,-1.0986,-1.1118,-1.1118,-1.1118,-1.1118,-1.1118,-1.1251,-1.1449,-1.1449,-1.1648,-1.1978,-1.2243,-1.2375,-1.2507,0.0,0.0,0.0,-1.2968,-1.3076,-1.3144,-1.3406,-1.3513,-1.356,-1.3676,-1.3688,-1.3748,-1.3868,-1.3771,-1.3697,-1.3982,-1.4018,-1.397,-1.4293,-1.4665,-1.5035,-1.5148,-1.5517,-1.5771,-1.5246,-1.4965,-1.4863,-1.484,-1.5166,-1.554,-1.5588,-1.5784,-1.6028,-1.6177,-1.6366,-1.6602,-1.6932,-1.7073,-1.7153,-1.7279,-1.7279,-1.7333,-1.7426,-1.7621,-1.7721,-1.7861,-1.8326,-1.8612,-1.8612,-1.8743,-1.8781,-1.8781,-1.8781,-1.892,-1.9188,-1.9288,-1.9525,-1.9882,-2.0019,-2.0155,-2.0292,-2.0292,-2.0292,-2.0292,-2.0292,-2.0292,-0.6064,-0.6162,-0.6265,-0.6265,-0.6187,-0.6108,0.0,0.0,-0.5567,-0.5358,-0.5219,-0.511,-0.5031,-0.5083,-0.5229,-0.5554,-0.58,-0.6116,-0.6739,-0.7235,0.0,0.0,0.0,0.0,0.0,0.0,0.0,0.0,0.0,0.0,0.0,0.0,-1.0721,-1.0721,-1.0721,-1.0721,-1.0721,-1.0721,-1.0853,-1.1049,-1.1049,-1.1247,-1.1648,-1.1846,-1.2111,0.0,0.0,0.0,0.0,-1.277,-1.2857,-1.2994,-1.3125,-1.3314,-1.3491,-1.3528,-1.3629,-1.3688,-1.3688,-1.359,-1.3526,-1.3811,-1.379,-1.3753,-1.4083,-1.4509,-1.4874,-1.4987,-1.5299,-1.5572,-1.5203,-1.4857,-1.4592,-1.4688,-1.4975,-1.5302,-1.5493,-1.5588,-1.5784,-1.6028,-1.617,-1.6319,-1.6697,-1.6885,-1.7073,-1.72,-1.7239,-1.7279,-1.7279,-1.7481,-1.7574,-1.7574,-1.8009,-1.8342,-1.8481,-1.8612,-1.8743,-1.8781,-1.8781,-1.8874,-1.905,-1.9142,-1.9371,-1.97,-1.9754,-1.9891,-2.0073,-2.0073,-2.0119,-2.0201,-2.0201,-2.0201,-0.5694,-0.5909,-0.6086,-0.6086,-0.5996,-0.5877,0.0,-0.5548,-0.538,-0.5214,-0.5097,-0.5018,-0.5018,-0.5018,-0.5097,-0.5372,-0.5472,-0.5634,-0.6037,0.0,0.0,0.0,0.0,0.0,0.0,0.0,0.0,0.0,0.0,0.0,0.0,0.0,-1.0721,-1.0721,-1.0721,-1.0721,-1.0721,-1.0721,-1.0721,-1.0721,-1.0721,-1.085,-1.1181,-1.1181,0.0,0.0,0.0,0.0,0.0,-1.277,-1.2857,-1.2994,-1.2881,-1.3069,-1.3491,-1.3282,-1.3449,-1.3688,-1.3688,-1.359,-1.3526,-1.3811,-1.379,-1.3753,-1.4083,-1.4401,-1.4659,-1.4928,-1.5048,-1.5113,-1.5107,-1.4702,-1.4394,-1.464,-1.4688,-1.4831,-1.5397,-1.5493,-1.554,-1.5778,-1.6028,-1.6224,-1.6224,-1.665,-1.6979,-1.6979,-1.7153,-1.7279,-1.7279,-1.7279,-1.7279,-1.7279,-1.7527,-1.7916,-1.8435,-1.8481,-1.8566,-1.8781,-1.8781,-1.8781,-1.8781,-1.905,-1.9188,-1.9188,-1.9487,-1.9587,-1.9587,-1.9587,-1.9716,-1.9882,-1.9882,-2.0065,-0.5543,-0.553,-0.5494,-0.5494,-0.5336,-0.5195,-0.5042,-0.4944,-0.4829,-0.4794,-0.4696,-0.4621,-0.4779,-0.4779,-0.4933,-0.533,-0.5472,-0.5632,0.0,0.0,0.0,0.0,0.0,0.0,0.0,0.0,0.0,0.0,0.0,0.0,0.0,0.0,0.0,-1.0721,-1.0721,-1.0721,-1.0721,-1.0721,-1.0721,-1.0721,-1.0721,-1.0787,-1.0853,0.0,0.0,0.0,0.0,0.0,0.0,-1.2441,-1.2606,-1.2849,-1.2804,-1.3022,-1.3359,-1.3267,-1.3389,-1.3688,-1.3688,-1.3473,-1.3298,-1.3526,-1.3512,-1.3483,-1.3753,-1.4234,-1.4659,-1.4928,-1.4937,-1.4847,-1.4847,-1.4554,-1.4346,-1.4394,-1.4592,-1.4736,-1.4927,-1.5261,-1.554,-1.5588,-1.5784,-1.5974,-1.6177,-1.6501,-1.6784,-1.6979,-1.7153,-1.7279,-1.7279,-1.7279,-1.7279,-1.7279,-1.738,-1.7621,-1.8187,-1.8381,-1.8566,-1.8781,-1.8781,-1.8781,-1.8781,-1.8874,-1.9004,-1.9188,-1.9288,-1.9433,-1.9587,-1.9604,-1.9612,-1.9696,-1.9679,-1.9799,-0.5233,-0.5151,-0.5012,-0.5012,-0.4929,0.0,-0.4668,-0.4632,-0.4572,-0.4531,-0.4469,-0.4423,-0.4582,-0.4582,-0.4733,-0.5204,-0.5342,0.0,0.0,0.0,0.0,0.0,0.0,0.0,0.0,0.0,0.0,0.0,0.0,0.0,0.0,0.0,0.0,-1.0326,-1.0588,-1.0721,-1.0721,-1.0721,-1.0721,-1.0721,-1.0721,-1.0721,-1.0721,0.0,0.0,0.0,0.0,0.0,0.0,-1.2243,-1.2441,-1.2602,-1.2638,-1.2809,-1.3067,-1.3047,-1.3204,-1.3504,-1.3688,-1.3414,-1.3122,-1.3407,-1.3456,-1.3478,-1.364,-1.4126,-1.4654,-1.4821,-1.4722,-1.4536,-1.4536,-1.4356,-1.416,-1.416,-1.4352,-1.4592,-1.4694,-1.4975,-1.5255,-1.5445,-1.5588,-1.5784,-1.6028,-1.6265,-1.6501,-1.665,-1.6972,-1.72,-1.72,-1.7239,-1.7279,-1.7279,-1.7279,-1.7473,-1.79,-1.8187,-1.8473,-1.8651,-1.8743,-1.8781,-1.8781,-1.8781,-1.8874,-1.9058,-1.9058,-1.915,-1.9304,-1.9404,-1.9458,-1.9458,-1.9558,-1.9687,0.0,-0.4755,-0.4629,-0.4638,0.0,-0.4612,-0.4556,-0.4532,0.0,-0.4364,-0.4345,-0.4345,-0.4384,-0.4392,-0.4542,-0.4994,0.0,0.0,0.0,0.0,0.0,0.0,0.0,0.0,0.0,0.0,0.0,0.0,0.0,0.0,0.0,0.0,0.0,0.0,-1.0256,-1.0654,-1.0654,-1.0654,-1.0654,-1.0721,-1.0721,-1.0721,-1.0721,0.0,0.0,0.0,0.0,0.0,0.0,-1.2111,-1.2301,-1.2258,-1.2314,-1.2489,-1.275,-1.2678,-1.29,-1.326,-1.355,-1.3405,-1.3117,-1.3373,-1.3542,-1.364,-1.3694,-1.4126,-1.4552,-1.4552,-1.4408,-1.4282,-1.4282,-1.4065,-1.3883,-1.3883,-1.4112,-1.4346,-1.4592,-1.4688,-1.4831,-1.535,-1.5493,-1.554,-1.5784,-1.6028,-1.6224,-1.6224,-1.665,-1.6979,-1.6979,-1.7153,-1.7279,-1.7279,-1.7279,-1.738,-1.7628,-1.79,-1.8187,-1.8435,-1.8651,-1.8781,-1.8781,-1.8781,-1.8781,-1.8781,-1.8781,-1.8781,-1.8781,-1.905,-1.9188,-1.9188,-1.9412,-1.9566,-0.4068,0.0,-0.4128,-0.4207,-0.4106,-0.4018,0.0,-0.3992,-0.3984,-0.3962,-0.3958,-0.3997,-0.4155,-0.4218,-0.4351,-0.4721,0.0,0.0,0.0,0.0,0.0,0.0,0.0,0.0,0.0,0.0,0.0,0.0,0.0,0.0,0.0,0.0,0.0,0.0,-0.9724,-1.006,-1.0326,-1.0326,-1.0455,-1.0721,-1.0721,-1.0721,0.0,0.0,0.0,0.0,0.0,0.0,0.0,-1.178,-1.1964,-1.2087,-1.2262,-1.2407,-1.2564,-1.2383,-1.2719,-1.3181,-1.3095,-1.3112,-1.307,-1.3029,-1.3073,-1.3152,-1.3586,-1.397,-1.4293,-1.4293,-1.4162,-1.3987,-1.3987,-1.3823,-1.3636,-1.3835,-1.3931,-1.407,-1.4346,-1.4544,-1.479,-1.5124,-1.5356,-1.554,-1.5784,-1.6028,-1.6224,-1.6224,-1.6501,-1.6784,-1.6979,-1.7019,-1.7106,-1.7279,-1.7279,-1.7326,-1.738,-1.7621,-1.7908,-1.8179,-1.8427,-1.8566,-1.8566,-1.8743,-1.8781,-1.8781,-1.8781,-1.8781,-1.8781,-1.8874,-1.8874,-1.892,-1.8974,-1.909,-0.3723,-0.3715,-0.374,-0.3832,-0.3778,-0.3712,-0.3793,-0.3802,-0.3802,-0.3802,-0.3802,-0.3841,-0.396,-0.4,-0.4188,0.0,0.0,0.0,0.0,0.0,0.0,0.0,0.0,0.0,0.0,0.0,0.0,0.0,0.0,0.0,0.0,0.0,0.0,0.0,0.0,-0.9458,-0.9994,-1.0127,-1.0256,-1.0455,-1.0654,-1.0721,-1.0721,0.0,0.0,0.0,0.0,0.0,-1.0982,-1.138,-1.1614,-1.177,-1.1992,-1.2128,-1.2254,-1.2245,-1.2367,-1.2698,-1.2831,-1.2952,-1.2932,-1.2714,-1.2772,-1.2935,-1.3261,-1.3645,-1.3975,-1.4142,-1.3957,-1.3737,-1.3737,-1.3524,-1.3394,-1.3636,-1.3786,-1.3973,-1.425,-1.4394,-1.4592,-1.4838,-1.5124,-1.5404,-1.5635,-1.5879,-1.6028,-1.6028,-1.6265,-1.6454,-1.6602,-1.6737,-1.6925,-1.7153,-1.7153,-1.72,-1.7286,-1.7426,-1.7621,-1.7908,-1.8187,-1.8334,-1.8334,-1.8419,-1.855,-1.8651,-1.8651,-1.8697,-1.8781,-1.8781,-1.8781,-1.8781,-1.8781,-1.8889,-0.3621,-0.3538,-0.3485,-0.356,-0.3588,-0.365,-0.3781,-0.3802,-0.3802,-0.3802,-0.3814,-0.3824,-0.3824,-0.3871,0.0,0.0,0.0,0.0,0.0,0.0,0.0,0.0,0.0,0.0,0.0,0.0,0.0,0.0,0.0,0.0,0.0,0.0,0.0,0.0,0.0,0.0,-0.9498,-0.9848,-1.0057,-1.0193,-1.0522,-1.0654,-1.0721,-1.0721,0.0,0.0,0.0,0.0,-1.0721,-1.1052,-1.1272,-1.1475,-1.1726,-1.1866,-1.1971,-1.2116,-1.2069,-1.2081,-1.261,-1.2751,-1.2631,-1.2443,-1.2604,-1.2827,-1.2881,-1.3207,-1.3635,-1.3986,-1.382,-1.348,-1.348,-1.3269,-1.3098,-1.3394,-1.3636,-1.3925,-1.416,-1.425,-1.4394,-1.464,-1.4885,-1.5124,-1.5445,-1.5635,-1.5778,-1.5784,-1.5981,-1.617,-1.6177,-1.6407,-1.6636,-1.6925,-1.6979,-1.7066,-1.7239,-1.7279,-1.738,-1.7628,-1.79,-1.804,-1.8087,-1.8087,-1.8234,-1.8435,-1.8435,-1.852,-1.8735,-1.8735,-1.8781,-1.8781,-1.8781,-1.8781,-0.3527,-0.3394,-0.3291,-0.353,-0.3588,-0.365,-0.3781,-0.3802,-0.3802,-0.3802,-0.3866,-0.3879,-0.3879,-0.4018,-0.4206,0.0,0.0,0.0,0.0,0.0,0.0,0.0,0.0,0.0,0.0,0.0,0.0,0.0,0.0,0.0,0.0,0.0,0.0,0.0,0.0,0.0,0.0,-0.9068,-0.9585,-1.0193,-1.0256,-1.0455,-1.0721,-1.0721,-1.0721,0.0,0.0,0.0,-1.0721,-1.1052,-1.121,-1.1262,-1.168,-1.1794,-1.1813,-1.1845,-1.1898,-1.2047,-1.2297,-1.2251,-1.2156,-1.2341,-1.2436,-1.255,-1.2827,-1.2935,-1.3112,-1.3455,-1.3529,-1.348,-1.348,-1.3175,-1.291,-1.3098,-1.3394,-1.3636,-1.3883,-1.416,-1.4394,-1.464,-1.4736,-1.4927,-1.5397,-1.554,-1.5588,-1.5784,-1.5832,-1.5927,-1.6177,-1.6224,-1.6359,-1.6636,-1.6878,-1.7026,-1.7019,-1.72,-1.7333,-1.738,-1.7621,-1.7861,-1.8087,-1.8087,-1.8133,-1.8179,-1.8179,-1.828,-1.8574,-1.8574,-1.8612,-1.8781,-1.8781,-1.8781,-0.3438,-0.329,-0.3247,-0.3501,-0.3558,-0.3593,-0.3771,-0.3841,-0.3836,-0.3836,-0.391,-0.3973,-0.3973,0.0,-0.4316,-0.4551,0.0,0.0,0.0,0.0,0.0,0.0,0.0,0.0,0.0,0.0,0.0,0.0,0.0,0.0,0.0,0.0,0.0,0.0,0.0,0.0,0.0,-0.8499,-0.9052,-0.9927,-1.0127,-1.0389,-1.0721,-1.0721,-1.0721,0.0,0.0,-1.0721,-1.0714,-1.0761,-1.0858,-1.1031,-1.1254,-1.1441,-1.1503,-1.149,-1.1537,-1.1691,-1.1638,-1.1808,-1.2001,-1.2164,-1.2278,-1.2436,-1.2604,-1.2695,-1.2797,-1.3107,-1.3237,-1.3238,-1.3257,-1.3017,-1.2861,-1.305,-1.3298,-1.3588,-1.3835,-1.4112,-1.4346,-1.4442,-1.4592,-1.4783,-1.5022,-1.5302,-1.554,-1.5635,-1.573,-1.5832,-1.5981,-1.5974,-1.6076,-1.6359,-1.6501,-1.6643,-1.6784,-1.7012,-1.72,-1.7279,-1.7265,-1.7314,-1.7445,-1.7273,-1.7311,-1.7629,-1.759,-1.7819,-1.828,-1.8435,-1.8574,-1.8658,-1.8735,-1.8781,-0.3407,-0.3289,-0.3237,-0.3454,-0.3499,-0.3552,-0.3789,-0.3848,-0.3906,-0.3926,-0.4004,-0.4031,0.0,-0.4259,0.0,0.0,0.0,0.0,0.0,0.0,0.0,0.0,0.0,0.0,0.0,0.0,0.0,0.0,0.0,0.0,0.0,0.0,0.0,0.0,0.0,0.0,0.0,-0.8193,-0.8621,-0.95,-0.9861,-1.0204,-1.0538,-1.0638,-1.0721,-1.0721,-1.0721,-1.07,-1.0656,-1.0541,-1.0581,-1.078,-1.0904,-1.1157,-1.1359,-1.1221,-1.1228,-1.1276,-1.1139,-1.14,-1.1782,-1.1951,-1.2114,-1.2332,-1.2382,-1.2461,-1.2505,-1.2753,-1.2842,-1.2888,-1.3052,-1.2931,-1.2861,-1.3007,-1.3249,-1.3545,-1.3738,-1.407,-1.4298,-1.4298,-1.4496,-1.464,-1.4688,-1.5022,-1.535,-1.5493,-1.5635,-1.5737,-1.5778,-1.5784,-1.5879,-1.6076,-1.6177,-1.6312,-1.6588,-1.6784,-1.6972,-1.7145,-1.6987,-1.6903,-1.6903,-1.6587,-1.658,-1.7011,-1.7093,-1.7393,-1.788,-1.8156,-1.8334,-1.8427,-1.8651,-1.8735,-0.355,-0.339,-0.3237,-0.3454,-0.3499,-0.3569,-0.383,-0.3893,-0.3924,-0.3966,-0.4099,-0.4187,0.0,-0.4498,0.0,0.0,0.0,0.0,0.0,0.0,0.0,0.0,0.0,0.0,0.0,0.0,0.0,0.0,0.0,0.0,0.0,0.0,0.0,0.0,0.0,0.0,-0.813,-0.813,-0.8385,-0.8901,-0.9346,-0.9729,-1.0058,-1.0524,-1.0721,-1.0721,-1.0721,-1.0639,-1.0507,-1.0497,-1.0515,-1.056,-1.0856,-1.121,-1.1433,-1.1293,-1.1114,-1.1056,-1.1084,-1.1126,-1.124,-1.1841,-1.2005,-1.206,-1.2332,-1.2299,-1.2149,-1.221,-1.2307,-1.249,-1.2965,-1.2931,-1.2813,-1.2813,-1.3152,-1.3491,-1.3539,-1.3919,-1.4298,-1.4298,-1.4298,-1.4394,-1.464,-1.4736,-1.4927,-1.5445,-1.5493,-1.5588,-1.5784,-1.5784,-1.5832,-1.5832,-1.6028,-1.6312,-1.6588,-1.6636,-1.6636,-1.6629,-1.6803,-1.6903,-1.6903,-1.6587,-1.6419,-1.6448,-1.6749,-1.7054,-1.7258,-1.7618,-1.7908,-1.8133,-1.8381,-1.8504,-0.3499,-0.3441,-0.3408,-0.349,-0.354,-0.3634,-0.385,-0.3944,-0.4026,-0.4169,-0.4273,-0.4381,-0.4526,0.0,0.0,0.0,0.0,0.0,0.0,0.0,0.0,0.0,0.0,0.0,0.0,0.0,0.0,0.0,0.0,0.0,0.0,0.0,0.0,0.0,0.0,0.0,0.0,-0.8002,-0.8085,-0.8259,-0.8779,-0.9328,-0.9906,-1.009,-1.0249,-1.0446,-1.0446,-1.0415,-1.0351,-1.0256,-1.0214,-1.0225,-1.0681,-1.1044,-1.1317,-1.1248,-1.1041,-1.0841,-1.0826,-1.0962,-1.1181,-1.1623,-1.1841,-1.2037,-1.2182,-1.2053,-1.1945,-1.1996,-1.2084,-1.2205,-1.255,-1.2731,-1.2813,-1.2813,-1.3055,-1.3298,-1.3443,-1.3781,-1.4118,-1.425,-1.4298,-1.4346,-1.4442,-1.4592,-1.4783,-1.4975,-1.5302,-1.554,-1.5588,-1.5737,-1.5784,-1.5784,-1.5879,-1.6069,-1.6312,-1.6359,-1.6407,-1.6588,-1.6625,-1.6543,-1.6348,-1.6169,-1.6089,-1.6089,-1.6441,-1.6742,-1.6994,-1.7472,-1.7768,-1.7861,-1.8141,-1.8319,-0.3543,-0.3499,-0.3545,-0.3566,-0.3622,-0.3718,-0.3899,-0.4034,-0.4161,-0.4312,-0.4436,-0.4561,-0.4685,0.0,0.0,0.0,0.0,0.0,0.0,0.0,0.0,0.0,0.0,0.0,0.0,0.0,0.0,0.0,0.0,0.0,0.0,0.0,0.0,0.0,0.0,0.0,0.0,-0.7872,-0.7872,-0.7933,-0.8287,-0.8833,-0.944,-0.9548,-0.9825,-1.0149,-1.0149,-1.0186,-1.0198,-1.0031,-1.0022,-1.0146,-1.0536,-1.0839,-1.1043,-1.1106,-1.0952,-1.0692,-1.0692,-1.0802,-1.1021,-1.1459,-1.1732,-1.1914,-1.204,-1.1935,-1.1775,-1.1779,-1.1811,-1.1932,-1.2224,-1.2521,-1.2813,-1.2813,-1.2953,-1.3147,-1.3346,-1.3588,-1.3835,-1.4112,-1.416,-1.4208,-1.4298,-1.4442,-1.4592,-1.4688,-1.5022,-1.5302,-1.5493,-1.5635,-1.573,-1.5778,-1.5784,-1.5879,-1.6076,-1.6076,-1.6163,-1.6353,-1.6399,-1.6278,-1.605,-1.5871,-1.5777,-1.5777,-1.617,-1.6521,-1.6749,-1.732,-1.7574,-1.7574,-1.7861,-1.8048,-0.3699,-0.3645,-0.3624,-0.3759,-0.3818,-0.3851,-0.3954,-0.4173,-0.4324,-0.4372,-0.4583,-0.471,-0.471,-0.4779,0.0,0.0,0.0,0.0,0.0,0.0,0.0,0.0,0.0,0.0,0.0,0.0,0.0,0.0,0.0,0.0,0.0,0.0,0.0,0.0,0.0,0.0,0.0,-0.775,-0.7872,-0.7872,-0.7869,-0.8116,-0.8616,-0.9058,-0.95,-0.9818,-0.9818,-0.9866,-0.9984,-0.9984,-1.0142,-1.029,-1.0435,-1.0567,-1.0739,-1.092,-1.085,-1.0692,-1.0692,-1.0692,-1.0802,-1.1404,-1.1623,-1.1642,-1.1982,-1.1987,-1.1775,-1.1572,-1.1558,-1.1683,-1.1932,-1.237,-1.2813,-1.2813,-1.2953,-1.3098,-1.3098,-1.3298,-1.3588,-1.3835,-1.3883,-1.3979,-1.425,-1.4298,-1.4394,-1.464,-1.4688,-1.4879,-1.5445,-1.5493,-1.5588,-1.5784,-1.5784,-1.5784,-1.5784,-1.5784,-1.5784,-1.5784,-1.6028,-1.6175,-1.6088,-1.5715,-1.5519,-1.5512,-1.6082,-1.6419,-1.6419,-1.7018,-1.7279,-1.7333,-1.7574,-1.7675,-0.373,-0.3846,-0.3996,-0.3882,-0.3996,-0.4087,-0.4208,-0.4261,-0.4361,-0.4583,-0.4718,-0.4746,-0.4746,0.0,0.0,0.0,0.0,0.0,0.0,0.0,0.0,0.0,0.0,0.0,0.0,0.0,0.0,0.0,0.0,0.0,0.0,0.0,0.0,0.0,0.0,0.0,0.0,0.0,-0.7689,-0.7869,-0.779,-0.7997,-0.8485,-0.8585,-0.885,-0.9156,-0.9338,-0.95,-0.9522,-0.9767,-1.0042,-1.029,-1.0435,-1.0567,-1.0739,-1.092,-1.085,-1.0692,-1.0692,-1.0692,-1.0802,-1.1404,-1.1623,-1.1615,-1.181,-1.1869,-1.1742,-1.1387,-1.1442,-1.1639,-1.1688,-1.2127,-1.257,-1.2764,-1.2861,-1.291,-1.305,-1.3147,-1.3298,-1.3588,-1.3786,-1.3931,-1.4022,-1.416,-1.4346,-1.4394,-1.4592,-1.4838,-1.5172,-1.5356,-1.554,-1.5588,-1.5737,-1.5784,-1.5784,-1.5784,-1.5784,-1.5784,-1.5879,-1.5886,-1.5826,-1.5906,-1.5883,-1.5847,-1.6244,-1.6583,-1.6756,-1.7128,-1.7279,-1.7279,-1.738,-1.7527,-0.3786,-0.4007,-0.4239,-0.4152,-0.4184,-0.4283,-0.4383,-0.4436,-0.4518,0.0,-0.475,-0.4784,-0.4784,0.0,0.0,0.0,0.0,0.0,0.0,0.0,0.0,0.0,0.0,0.0,0.0,0.0,0.0,0.0,0.0,0.0,0.0,0.0,0.0,0.0,0.0,0.0,0.0,0.0,0.0,-0.7617,-0.7625,-0.7787,-0.8039,-0.809,-0.8294,-0.8657,-0.9131,-0.9275,-0.9332,-0.958,-0.9858,-1.0017,-1.0211,-1.0355,-1.0471,-1.0755,-1.0789,-1.0692,-1.0692,-1.0692,-1.0802,-1.1404,-1.1623,-1.1602,-1.1736,-1.1817,-1.1732,-1.1312,-1.134,-1.1487,-1.159,-1.1834,-1.2175,-1.2565,-1.2716,-1.2813,-1.2953,-1.3001,-1.305,-1.3292,-1.3491,-1.3636,-1.3738,-1.3973,-1.416,-1.416,-1.4448,-1.4742,-1.4933,-1.5172,-1.5356,-1.5356,-1.5547,-1.5683,-1.5683,-1.5737,-1.5784,-1.5784,-1.5784,-1.5799,-1.5718,-1.5874,-1.5906,-1.5861,-1.627,-1.6591,-1.6721,-1.7125,-1.7279,-1.7279,-1.7279,-1.738,-0.39,-0.4115,-0.4349,-0.4475,-0.4414,-0.4413,-0.4587,-0.4643,-0.4732,-0.4766,0.0,-0.4784,0.0,0.0,0.0,0.0,0.0,0.0,0.0,0.0,0.0,0.0,0.0,0.0,0.0,0.0,0.0,0.0,0.0,0.0,0.0,0.0,0.0,0.0,0.0,0.0,0.0,0.0,0.0,0.0,-0.7381,-0.7444,-0.7505,-0.7627,-0.7861,-0.8224,-0.8941,-0.9236,-0.929,-0.9523,-0.9588,-0.962,-0.9903,-1.0009,-1.0047,-1.054,-1.0692,-1.0692,-1.0692,-1.0692,-1.0802,-1.1404,-1.1623,-1.1602,-1.1736,-1.1817,-1.1732,-1.1312,-1.1194,-1.1247,-1.1487,-1.1585,-1.1731,-1.2224,-1.2565,-1.2764,-1.2813,-1.2813,-1.2861,-1.305,-1.3098,-1.3195,-1.3443,-1.369,-1.3883,-1.3883,-1.431,-1.464,-1.464,-1.4885,-1.5083,-1.5035,-1.5261,-1.5445,-1.5493,-1.5642,-1.5784,-1.5784,-1.5778,-1.5784,-1.5784,-1.5718,-1.5715,-1.5761,-1.6221,-1.6497,-1.6504,-1.7008,-1.7286,-1.7286,-1.7286,-1.7279,-0.3878,-0.4183,-0.4479,-0.4627,-0.4673,-0.4708,-0.4817,-0.4785,-0.4732,-0.4766,-0.4784,0.0,0.0,0.0,0.0,0.0,0.0,0.0,0.0,0.0,0.0,0.0,0.0,0.0,0.0,0.0,0.0,0.0,0.0,0.0,0.0,0.0,0.0,0.0,0.0,0.0,-0.618,-0.6276,-0.6615,0.0,-0.703,-0.7148,-0.7323,-0.7502,-0.7733,-0.8084,-0.846,-0.8769,-0.9007,-0.9325,-0.9432,-0.947,-0.9859,-1.0009,-1.0047,-1.054,-1.0692,-1.0692,-1.0692,-1.0692,-1.0802,-1.1404,-1.1623,-1.1602,-1.1736,-1.1817,-1.1732,-1.1312,-1.1194,-1.1194,-1.1292,-1.1438,-1.1634,-1.1731,-1.2127,-1.2516,-1.2764,-1.2813,-1.2813,-1.2861,-1.3007,-1.3098,-1.3195,-1.3394,-1.3642,-1.3883,-1.3979,-1.4166,-1.4346,-1.4694,-1.4742,-1.4496,-1.4736,-1.5077,-1.5309,-1.5499,-1.554,-1.554,-1.573,-1.5784,-1.5784,-1.5772,-1.5886,-1.6075,-1.6223,-1.6357,-1.6584,-1.6889,-1.7066,-1.7066,-1.7239,-1.7279,-0.3901,-0.4197,-0.455,-0.4789,-0.4951,-0.5034,-0.4995,-0.4942,-0.4914,-0.4961,0.0,0.0,0.0,0.0,0.0,0.0,0.0,0.0,0.0,0.0,0.0,0.0,0.0,0.0,0.0,0.0,0.0,0.0,0.0,0.0,0.0,0.0,0.0,0.0,0.0,0.0,-0.5881,-0.6013,-0.6218,-0.6561,-0.6742,-0.6971,-0.7252,-0.7375,-0.7519,-0.7807,-0.8209,-0.85,-0.8674,-0.9127,-0.933,-0.9316,-0.9616,-0.9779,-0.9935,-1.0343,-1.0582,-1.0692,-1.0692,-1.0692,-1.0747,-1.124,-1.1459,-1.1607,-1.1631,-1.1714,-1.1732,-1.1312,-1.1194,-1.1194,-1.1194,-1.1292,-1.1438,-1.159,-1.1927,-1.2273,-1.2565,-1.2619,-1.2667,-1.2764,-1.2856,-1.2958,-1.2958,-1.3147,-1.3443,-1.3781,-1.3835,-1.3973,-1.425,-1.4448,-1.4496,-1.4298,-1.4448,-1.464,-1.4831,-1.5118,-1.5356,-1.5404,-1.5499,-1.5594,-1.5635,-1.5642,-1.5784,-1.5981,-1.613,-1.6272,-1.6407,-1.669,-1.6831,-1.6831,-1.6918,-1.6958,-0.3925,-0.423,-0.4596,-0.4937,-0.5162,0.0,-0.5163,-0.5103,-0.51,0.0,0.0,0.0,0.0,0.0,0.0,0.0,0.0,0.0,0.0,0.0,0.0,0.0,0.0,0.0,0.0,0.0,0.0,0.0,0.0,0.0,0.0,0.0,0.0,0.0,0.0,-0.554,-0.554,-0.5813,-0.5945,-0.5945,-0.6478,-0.6824,-0.7102,-0.7258,-0.7361,-0.7456,-0.8086,-0.8314,-0.8366,-0.8937,-0.9173,-0.9159,-0.9318,-0.9544,-0.9816,-1.0202,-1.0476,-1.0692,-1.0692,-1.0692,-1.0747,-1.1017,-1.1291,-1.1494,-1.1422,-1.1559,-1.1681,-1.1312,-1.1194,-1.1194,-1.1194,-1.1194,-1.1247,-1.1487,-1.1683,-1.1932,-1.2273,-1.2322,-1.2419,-1.2619,-1.2716,-1.2764,-1.2813,-1.2953,-1.3195,-1.363,-1.3684,-1.3775,-1.425,-1.4298,-1.4298,-1.4298,-1.4298,-1.4298,-1.4298,-1.4694,-1.5029,-1.5118,-1.5172,-1.5261,-1.535,-1.5404,-1.5499,-1.5689,-1.5981,-1.613,-1.613,-1.64,-1.6541,-1.6541,-1.6588,-1.6588,-0.3949,-0.4327,-0.4736,0.0,-0.5113,-0.5208,0.0,0.0,0.0,0.0,0.0,0.0,0.0,0.0,0.0,0.0,0.0,0.0,0.0,0.0,0.0,0.0,0.0,0.0,0.0,0.0,0.0,0.0,0.0,0.0,0.0,0.0,-0.5416,-0.5416,-0.5416,0.0,-0.5416,-0.5462,-0.5622,-0.5841,-0.6442,-0.6715,-0.6771,-0.7062,-0.7243,-0.7259,-0.7818,-0.8041,-0.8097,-0.8696,-0.8967,-0.8964,-0.9275,-0.9544,-0.9816,-1.0202,-1.0476,-1.0692,-1.0692,-1.0692,-1.0747,-1.1017,-1.1126,-1.1222,-1.1369,-1.1455,-1.1424,-1.1262,-1.1194,-1.1194,-1.1194,-1.1194,-1.1194,-1.1243,-1.1292,-1.1438,-1.1932,-1.2029,-1.2073,-1.2078,-1.2273,-1.2516,-1.2764,-1.2813,-1.2953,-1.3335,-1.3098,-1.3244,-1.4202,-1.4298,-1.4298,-1.4298,-1.4298,-1.4298,-1.4298,-1.4394,-1.4394,-1.4442,-1.4694,-1.4892,-1.4892,-1.5077,-1.5178,-1.5178,-1.5642,-1.5832,-1.5832,-1.6123,-1.6265,-1.6265,-1.6494,-1.6588,-0.4273,-0.4457,-0.4683,0.0,-0.5132,-0.5152,-0.5353,0.0,0.0,0.0,0.0,0.0,0.0,0.0,0.0,0.0,0.0,0.0,0.0,0.0,0.0,0.0,0.0,0.0,0.0,0.0,0.0,0.0,0.0,0.0,0.0,-0.5382,-0.5382,-0.5382,-0.5382,0.0,-0.5382,-0.5382,-0.5547,-0.5822,-0.627,-0.655,-0.6715,-0.7043,-0.721,-0.721,-0.7604,-0.7878,-0.8045,-0.8488,-0.8768,-0.894,-0.9047,-0.9323,-0.9599,-0.9926,-1.0198,-1.0472,-1.0637,-1.0692,-1.0692,-1.0857,-1.0966,-1.1059,-1.1002,-1.1045,-1.1167,-1.1015,-1.1002,-1.0998,-1.1145,-1.1194,-1.1194,-1.1194,-1.1194,-1.1243,-1.1487,-1.1683,-1.1829,-1.198,-1.217,-1.2316,-1.2462,-1.2662,-1.2861,-1.3001,-1.2905,-1.2958,-1.3389,-1.3485,-1.3673,-1.425,-1.4298,-1.4298,-1.4298,-1.4298,-1.4298,-1.4298,-1.4448,-1.4598,-1.4742,-1.4838,-1.4939,-1.5083,-1.5452,-1.5635,-1.5635,-1.5718,-1.5731,-1.5731,-1.5865,-1.5911,-0.4414,0.0,-0.4644,-0.506,-0.5114,-0.5125,0.0,0.0,0.0,0.0,0.0,0.0,0.0,0.0,0.0,0.0,0.0,0.0,0.0,0.0,0.0,0.0,0.0,0.0,0.0,0.0,0.0,0.0,0.0,0.0,-0.5382,-0.5382,-0.5382,-0.5382,-0.5382,-0.5382,-0.5382,-0.5382,-0.5491,-0.5712,-0.6105,-0.6383,-0.6604,-0.699,-0.721,-0.721,-0.7493,-0.7771,-0.8045,-0.8374,-0.8654,-0.8885,-0.8885,-0.9103,-0.9434,-0.9651,-0.9981,-1.0312,-1.0527,-1.0637,-1.0692,-1.0692,-1.0857,-1.095,-1.0687,-1.0733,-1.0858,-1.0721,-1.0708,-1.0752,-1.1047,-1.11,-1.1096,-1.1194,-1.1194,-1.1194,-1.1194,-1.134,-1.159,-1.1883,-1.1975,-1.2068,-1.2116,-1.2516,-1.2813,-1.2813,-1.2813,-1.2813,-1.2813,-1.2813,-1.3098,-1.3817,-1.3913,-1.401,-1.4298,-1.4298,-1.4298,-1.4298,-1.4298,-1.4394,-1.4592,-1.4592,-1.4688,-1.4885,-1.5166,-1.5309,-1.5404,-1.5258,-1.5252,-1.5299,-1.5226,-1.5278,-0.4181,-0.4398,0.0,-0.4797,-0.5071,0.0,0.0,0.0,0.0,0.0,0.0,0.0,0.0,0.0,0.0,0.0,0.0,0.0,0.0,0.0,0.0,0.0,0.0,0.0,0.0,0.0,0.0,0.0,0.0,0.0,-0.5382,-0.5382,-0.5382,-0.5382,-0.5382,-0.5382,-0.5382,-0.5382,-0.5382,-0.5437,-0.5996,-0.633,-0.633,-0.6935,-0.721,-0.721,-0.7493,-0.7771,-0.8045,-0.8374,-0.8654,-0.8885,-0.8885,-0.9103,-0.9379,-0.9434,-0.9816,-1.0312,-1.0312,-1.0472,-1.0692,-1.0692,-1.0692,-1.0736,-1.0638,-1.0629,-1.06,-1.0473,-1.0408,-1.0462,-1.0752,-1.0801,-1.09,-1.1149,-1.1194,-1.1194,-1.1194,-1.1194,-1.134,-1.1644,-1.1736,-1.1785,-1.198,-1.2467,-1.2813,-1.2813,-1.2813,-1.2813,-1.2813,-1.2813,-1.2813,-1.2861,-1.2856,-1.3244,-1.4202,-1.4298,-1.4298,-1.4298,-1.4298,-1.4298,-1.4346,-1.4346,-1.4346,-1.4346,-1.4592,-1.4885,-1.5131,-1.4878,-1.483,-1.5008,-1.4734,-1.4897,0.0,0.0,0.0,-0.4843,-0.4937,-0.5003,0.0,0.0,0.0,0.0,0.0,0.0,0.0,0.0,0.0,0.0,0.0,0.0,0.0,0.0,0.0,0.0,0.0,0.0,0.0,0.0,0.0,0.0,0.0,0.0,-0.5294,-0.5349,-0.5382,-0.5382,-0.5382,-0.5382,-0.5382,-0.5382,-0.5382,-0.5382,-0.5996,-0.6274,-0.6328,-0.6864,-0.7046,-0.7098,-0.7072,-0.7345,-0.7771,-0.8045,-0.8377,-0.8654,-0.8826,-0.8995,-0.9103,-0.9323,-0.9651,-1.0036,-1.0257,-1.0476,-1.0692,-1.0692,-1.0692,-1.0682,-1.0428,-1.0316,-1.0346,-1.0174,-1.0117,-1.0216,-1.0462,-1.0654,-1.085,-1.1149,-1.1194,-1.1194,-1.1194,-1.1194,-1.1243,-1.1345,-1.1394,-1.1394,-1.1487,-1.1639,-1.2029,-1.2716,-1.2813,-1.2813,-1.2813,-1.2813,-1.2813,-1.2813,-1.2813,-1.2953,-1.3292,-1.334,-1.334,-1.334,-1.3528,-1.3721,-1.3775,-1.3775,-1.3871,-1.4022,-1.4118,-1.4406,-1.4838,-1.4507,-1.4416,-1.4501,-1.4218,-1.4192,-0.4334,-0.445,-0.4552,0.0,0.0,-0.4895,0.0,0.0,0.0,0.0,0.0,0.0,0.0,0.0,0.0,0.0,0.0,0.0,0.0,0.0,0.0,0.0,0.0,0.0,0.0,0.0,0.0,0.0,0.0,0.0,-0.5144,-0.5257,-0.529,-0.529,-0.529,-0.529,-0.529,-0.529,-0.529,-0.529,-0.5893,-0.6222,-0.622,-0.6691,-0.6923,-0.6918,-0.6836,-0.7076,-0.7541,-0.7868,-0.8167,-0.854,-0.8771,-0.8885,-0.8937,-0.9158,-0.9434,-0.9706,-1.0036,-1.0312,-1.0582,-1.0692,-1.0692,-1.0627,-1.0322,-1.0212,-1.0139,-0.9925,-0.9871,-0.992,-1.0216,-1.0458,-1.0708,-1.0998,-1.1047,-1.1096,-1.1194,-1.1194,-1.1194,-1.1194,-1.1194,-1.1194,-1.1194,-1.1194,-1.1438,-1.2175,-1.257,-1.2813,-1.2813,-1.2813,-1.2813,-1.2813,-1.2813,-1.2813,-1.2813,-1.2813,-1.2861,-1.2953,-1.319,-1.3383,-1.3491,-1.3491,-1.3588,-1.3738,-1.3786,-1.3979,-1.4454,-1.4136,-1.3999,-1.4083,-1.3711,-1.3629,0.0,0.0,0.0,0.0,0.0,0.0,0.0,0.0,0.0,0.0,0.0,0.0,0.0,0.0,0.0,0.0,0.0,0.0,0.0,0.0,0.0,0.0,0.0,0.0,0.0,0.0,0.0,0.0,0.0,-0.5104,-0.5104,-0.5106,-0.5108,-0.5108,-0.5108,-0.5108,-0.5108,-0.5108,-0.5108,-0.5108,-0.5691,-0.6008,-0.6008,-0.6534,-0.6796,-0.6796,-0.6793,-0.7018,-0.7402,-0.7726,-0.8134,-0.8533,-0.8764,-0.8878,-0.8885,-0.8885,-0.9103,-0.9434,-0.9706,-1.0036,-1.0366,-1.0637,-1.0692,-1.0627,-1.0331,-1.0216,-1.0143,-0.9734,-0.9587,-0.9686,-0.9937,-1.0229,-1.0466,-1.0717,-1.0806,-1.085,-1.1145,-1.1194,-1.1194,-1.1194,-1.1194,-1.1194,-1.1194,-1.1194,-1.1194,-1.1194,-1.2078,-1.2764,-1.2764,-1.2759,-1.2813,-1.2813,-1.2813,-1.2813,-1.2813,-1.2813,-1.2953,-1.3281,-1.3286,-1.3335,-1.3491,-1.3491,-1.3491,-1.3491,-1.3491,-1.3636,-1.3883,-1.3646,-1.3616,-1.3888,-1.3368,-1.3329,-0.4197,0.0,0.0,0.0,0.0,0.0,0.0,0.0,0.0,0.0,0.0,0.0,0.0,0.0,0.0,0.0,0.0,0.0,0.0,0.0,0.0,0.0,0.0,0.0,0.0,0.0,0.0,0.0,0.0,-0.501,-0.501,-0.5073,-0.5108,-0.5108,-0.5108,-0.5108,-0.5108,-0.5108,-0.5108,-0.5108,-0.5691,-0.6008,-0.6006,-0.6451,-0.6671,-0.6665,-0.6575,-0.6605,-0.6884,-0.7449,-0.7833,-0.8116,-0.8553,-0.8842,-0.8885,-0.8885,-0.9103,-0.9434,-0.9706,-1.0036,-1.0366,-1.0637,-1.0692,-1.0651,-1.0428,-1.0266,-1.0163,-0.988,-0.9815,-0.9894,-1.0335,-1.0374,-1.0381,-1.0678,-1.0762,-1.0801,-1.085,-1.1047,-1.1194,-1.1194,-1.1194,-1.1194,-1.1194,-1.1194,-1.1194,-1.1194,-1.1438,-1.1634,-1.1634,-1.2322,-1.2813,-1.2813,-1.2813,-1.2813,-1.2813,-1.2813,-1.2856,-1.2953,-1.2953,-1.2953,-1.3007,-1.3007,-1.3055,-1.3195,-1.3195,-1.3346,-1.3588,-1.3543,-1.3658,-1.3878,-1.3343,-1.307,-0.4405,-0.4446,-0.4511,0.0,0.0,0.0,0.0,-0.4893,0.0,0.0,0.0,0.0,0.0,0.0,0.0,0.0,0.0,0.0,0.0,0.0,0.0,0.0,0.0,0.0,0.0,0.0,0.0,0.0,-0.4865,-0.4914,-0.4914,-0.4965,-0.4994,-0.4994,-0.4994,-0.4994,-0.4994,-0.4994,-0.5048,-0.5151,-0.5615,-0.5876,-0.6029,-0.6371,-0.6492,-0.6489,-0.6416,-0.6427,-0.6548,-0.7186,-0.7589,-0.782,-0.8471,-0.8764,-0.8797,-0.8861,-0.9051,-0.9213,-0.9541,-0.9816,-1.0147,-1.0417,-1.0637,-1.066,-1.0485,-1.0363,-1.0237,-1.0054,-1.0053,-1.0077,-1.0339,-1.0283,-1.0201,-1.0458,-1.0508,-1.0507,-1.065,-1.0949,-1.1194,-1.1194,-1.1194,-1.1194,-1.1194,-1.1194,-1.1194,-1.1194,-1.1194,-1.1194,-1.1194,-1.1731,-1.2322,-1.2764,-1.2813,-1.271,-1.2467,-1.2662,-1.2764,-1.2613,-1.2764,-1.2813,-1.2813,-1.2813,-1.2861,-1.2953,-1.2953,-1.3104,-1.3346,-1.3324,-1.3421,-1.3546,-1.3231,-1.3037,-0.4714,-0.4644,-0.4542,0.0,0.0,0.0,-0.4711,-0.4789,0.0,0.0,0.0,0.0,0.0,0.0,0.0,0.0,0.0,0.0,0.0,0.0,0.0,0.0,0.0,0.0,0.0,0.0,0.0,-0.4694,-0.4763,-0.476,-0.477,-0.477,-0.4774,-0.4784,-0.4784,-0.4784,-0.4784,-0.4834,-0.4987,-0.519,-0.5486,-0.5789,-0.5992,-0.6287,-0.6387,-0.6387,-0.6387,-0.6387,-0.6437,-0.6986,-0.734,-0.7638,-0.8398,-0.8682,-0.8726,-0.8807,-0.8868,-0.8937,-0.9268,-0.9544,-0.9816,-1.0202,-1.0472,-1.0609,-1.0455,-1.0395,-1.04,-1.0237,-1.0245,-1.0249,-1.0269,-1.0118,-0.9967,-1.0234,-1.0125,-1.0117,-1.0507,-1.085,-1.1096,-1.1047,-1.1096,-1.1194,-1.1194,-1.1194,-1.1194,-1.1194,-1.1194,-1.1194,-1.1194,-1.1194,-1.159,-1.2516,-1.2613,-1.2419,-1.1932,-1.237,-1.2565,-1.237,-1.257,-1.2716,-1.2764,-1.2764,-1.2764,-1.2813,-1.2813,-1.291,-1.305,-1.311,-1.3106,-1.3088,-1.3135,-1.3087,0.0,0.0,0.0,0.0,0.0,0.0,-0.4847,-0.4796,0.0,0.0,0.0,0.0,0.0,0.0,0.0,0.0,0.0,0.0,0.0,0.0,0.0,0.0,0.0,0.0,0.0,0.0,-0.4786,-0.4647,-0.4614,-0.4655,-0.473,-0.4732,-0.4765,-0.4782,-0.4784,-0.4784,-0.4784,-0.5037,-0.514,-0.519,-0.5691,-0.5942,-0.5992,-0.6287,-0.6387,-0.6387,-0.6387,-0.6387,-0.6437,-0.6986,-0.7336,-0.7592,-0.8137,-0.8503,-0.8713,-0.8743,-0.8832,-0.8937,-0.9268,-0.9434,-0.9544,-1.0147,-1.0366,-1.0414,-1.0597,-1.0546,-1.0375,-1.0391,-1.0383,-1.0416,-1.055,-1.0347,-1.0159,-1.0215,-1.0112,-0.9969,-0.9821,-1.0216,-1.0413,-1.0019,-1.0609,-1.1194,-1.1194,-1.1194,-1.1194,-1.1194,-1.1194,-1.1194,-1.1194,-1.1194,-1.1292,-1.1487,-1.1487,-1.1487,-1.134,-1.1438,-1.1683,-1.2029,-1.2127,-1.2273,-1.2467,-1.2467,-1.257,-1.2813,-1.2813,-1.2813,-1.2861,-1.3247,-1.3328,-1.3118,-1.3304,-1.3201,0.0,0.0,0.0,-0.4887,0.0,0.0,0.0,-0.4806,0.0,0.0,0.0,0.0,0.0,0.0,0.0,0.0,0.0,0.0,0.0,0.0,0.0,0.0,0.0,0.0,0.0,0.0,-0.4935,-0.4942,-0.495,-0.4973,-0.4973,-0.4975,-0.5068,-0.5165,-0.5167,-0.5189,-0.5186,-0.5336,-0.5489,-0.5591,-0.5892,-0.6092,-0.6189,-0.6337,-0.6387,-0.6387,-0.6387,-0.6387,-0.6437,-0.6986,-0.7278,-0.7399,-0.8034,-0.836,-0.8509,-0.8655,-0.876,-0.8835,-0.9075,-0.9268,-0.9489,-0.9926,-1.0147,-1.0366,-1.0637,-1.0631,-1.0562,-1.0562,-1.0562,-1.0562,-1.0562,-1.0363,-1.0192,-1.0046,-0.992,-0.9776,-0.9628,-0.9826,-0.992,-0.9628,-1.0019,-1.056,-1.1096,-1.1194,-1.1194,-1.1194,-1.1194,-1.1194,-1.1194,-1.1194,-1.1194,-1.1194,-1.1194,-1.1194,-1.1194,-1.1194,-1.1292,-1.1585,-1.1834,-1.2073,-1.2175,-1.2224,-1.2322,-1.2613,-1.2716,-1.2813,-1.2813,-1.3055,-1.3134,-1.3096,-1.3249,-1.3084,0.0,0.0,0.0,0.0,0.0,-0.4897,0.0,0.0,0.0,0.0,0.0,0.0,0.0,0.0,0.0,0.0,0.0,0.0,0.0,0.0,0.0,0.0,0.0,0.0,0.0,0.0,-0.5029,-0.5178,-0.5192,-0.5209,-0.5249,-0.5251,-0.5299,-0.5453,-0.5477,-0.5527,-0.5556,-0.5627,-0.5789,-0.5992,-0.6042,-0.6189,-0.6387,-0.6387,-0.6387,-0.6387,-0.6387,-0.6387,-0.6437,-0.6986,-0.7188,-0.7247,-0.7971,-0.8245,-0.8354,-0.8567,-0.8686,-0.873,-0.8831,-0.9103,-0.9323,-0.9651,-0.9981,-1.0366,-1.0637,-1.0668,-1.0643,-1.0643,-1.0619,-1.0558,-1.042,-1.0245,-1.0122,-0.992,-0.9754,-0.9579,-0.9579,-0.9579,-0.9579,-0.9579,-0.9579,-0.9871,-1.0752,-1.0904,-1.0949,-1.1145,-1.1194,-1.1194,-1.1194,-1.1194,-1.1194,-1.1194,-1.1194,-1.1194,-1.1194,-1.1194,-1.1194,-1.1194,-1.159,-1.1878,-1.1932,-1.198,-1.2127,-1.237,-1.2619,-1.2764,-1.2813,-1.2813,-1.2856,-1.3044,-1.3079,-1.2995,0.0,0.0,0.0,0.0,-0.5209,0.0,0.0,0.0,0.0,0.0,0.0,0.0,0.0,0.0,0.0,0.0,0.0,0.0,0.0,0.0,0.0,0.0,0.0,0.0,0.0,0.0,0.0,-0.4862,-0.4872,-0.4949,-0.5131,-0.514,-0.519,-0.5296,-0.5439,-0.5494,-0.5506,-0.5795,-0.5992,-0.5992,-0.6239,-0.6387,-0.6387,-0.6387,-0.6387,-0.6387,-0.6387,-0.6387,-0.6437,-0.6986,-0.7188,-0.7238,-0.7809,-0.815,-0.834,-0.8448,-0.8594,-0.873,-0.8831,-0.894,-0.8995,-0.9323,-0.9816,-1.0366,-1.0637,-1.0586,-1.0411,-1.0411,-1.0347,-1.0269,-1.0249,-1.0054,-0.9908,-0.9888,-0.9754,-0.9579,-0.9579,-0.9579,-0.9579,-0.9579,-0.9579,-0.9628,-0.9776,-0.9772,-1.0117,-1.1051,-1.1194,-1.1194,-1.1194,-1.1194,-1.1194,-1.1194,-1.1194,-1.1194,-1.1194,-1.1194,-1.1194,-1.1194,-1.1247,-1.1389,-1.1634,-1.1878,-1.2127,-1.237,-1.2419,-1.2565,-1.2813,-1.2813,-1.2813,-1.2856,-1.3022,-1.298,0.0,0.0,0.0,0.0,0.0,0.0,-0.512,0.0,-0.5005,0.0,0.0,0.0,0.0,0.0,0.0,0.0,0.0,0.0,0.0,0.0,0.0,0.0,0.0,0.0,0.0,0.0,0.0,0.0,0.0,-0.5221,-0.5336,-0.5343,-0.5425,-0.565,-0.5701,-0.5791,-0.5974,-0.6121,-0.6176,-0.6239,-0.6337,-0.6387,-0.6387,-0.6387,-0.6387,-0.6387,-0.6387,-0.6387,-0.6437,-0.6986,-0.7188,-0.7238,-0.7789,-0.8029,-0.8153,-0.8303,-0.8452,-0.8601,-0.8754,-0.8811,-0.8992,-0.9489,-0.9926,-1.0366,-1.0637,-1.057,-1.0383,-1.0383,-1.0302,-1.0188,-1.0082,-0.9941,-0.986,-0.9758,-0.9681,-0.9579,-0.9579,-0.9579,-0.9579,-0.9579,-0.9579,-0.9579,-0.9579,-0.9579,-0.9776,-1.0216,-1.0265,-1.0265,-1.0265,-1.0265,-1.0507,-1.1145,-1.1194,-1.1194,-1.1194,-1.1194,-1.1194,-1.1194,-1.1194,-1.1243,-1.134,-1.1634,-1.1829,-1.1932,-1.2078,-1.2322,-1.257,-1.257,-1.2667,-1.2813,-1.291,-1.2785,-0.6003,0.0,0.0,0.0,0.0,0.0,0.0,0.0,0.0,0.0,0.0,0.0,0.0,0.0,0.0,0.0,0.0,0.0,0.0,0.0,0.0,0.0,0.0,0.0,0.0,0.0,0.0,0.0,-0.5273,0.0,-0.5451,-0.5489,-0.5586,-0.5801,-0.5869,-0.5988,-0.6165,-0.6284,-0.6309,-0.6391,-0.6371,-0.6387,-0.6387,-0.6387,-0.6387,-0.6387,-0.6387,-0.6387,-0.6437,-0.6889,-0.7138,-0.7238,-0.769,-0.7942,-0.8008,-0.8214,-0.836,-0.8503,-0.8659,-0.8811,-0.8992,-0.9544,-0.9926,-1.0202,-1.0472,-1.0484,-1.0359,-1.0359,-1.0193,-0.9985,-0.9851,-0.9815,-0.9782,-0.9657,-0.9579,-0.9579,-0.9579,-0.9579,-0.9579,-0.9579,-0.9579,-0.9579,-0.9579,-0.9579,-0.9579,-0.9579,-0.9579,-0.9579,-0.9579,-0.9579,-0.9924,-1.0654,-1.0752,-1.09,-1.1145,-1.1194,-1.1194,-1.1194,-1.1194,-1.1194,-1.1194,-1.1389,-1.1536,-1.1585,-1.178,-1.2024,-1.2273,-1.2273,-1.237,-1.2565,-1.2716,-1.2641,0.0,0.0,0.0,-0.5661,0.0,0.0,0.0,0.0,-0.5385,0.0,0.0,0.0,0.0,0.0,-0.4639,-0.4526,-0.4432,0.0,0.0,0.0,0.0,0.0,0.0,0.0,0.0,0.0,0.0,0.0,-0.5029,0.0,-0.5405,-0.5485,-0.551,-0.5518,-0.5782,-0.5907,-0.5915,-0.6151,-0.632,-0.6325,-0.6385,-0.6387,-0.6387,-0.6387,-0.6387,-0.6387,-0.6387,-0.6387,-0.6437,-0.6692,-0.6942,-0.7238,-0.7494,-0.7793,-0.8008,-0.8214,-0.836,-0.8503,-0.8659,-0.8811,-0.894,-0.9323,-0.9596,-0.9871,-1.0202,-1.0234,-1.0224,-1.0224,-0.9916,-0.9644,-0.9587,-0.9587,-0.9583,-0.9579,-0.9579,-0.9579,-0.9579,-0.9579,-0.9579,-0.9579,-0.9579,-0.9579,-0.9579,-0.9579,-0.9579,-0.9579,-0.9579,-0.9579,-0.9579,-0.9579,-0.9628,-0.9628,-0.9628,-1.0068,-1.1096,-1.1194,-1.1194,-1.1194,-1.1194,-1.1194,-1.1194,-1.1194,-1.134,-1.1585,-1.159,-1.1731,-1.2029,-1.2029,-1.2029,-1.2029,-1.2565,-1.2641,0.0,0.0,-0.5791,-0.5743,0.0,0.0,0.0,0.0,0.0,0.0,0.0,0.0,0.0,-0.5118,-0.4921,-0.4797,-0.4667,-0.4538,0.0,0.0,0.0,0.0,0.0,0.0,0.0,0.0,0.0,-0.4807,-0.4849,-0.4928,0.0,-0.5246,-0.5343,-0.5502,-0.5583,-0.5699,-0.5901,-0.5986,-0.6108,-0.6317,-0.6309,-0.6363,-0.6387,-0.6387,-0.6387,-0.6387,-0.6387,-0.6387,-0.6437,-0.6692,-0.6942,-0.7238,-0.7494,-0.7743,-0.7995,-0.8099,-0.8214,-0.8377,-0.8625,-0.8811,-0.894,-0.9268,-0.9489,-0.9596,-0.9871,-0.9908,-0.9847,-0.9847,-0.9752,-0.9579,-0.9579,-0.9579,-0.9579,-0.9579,-0.9579,-0.9579,-0.9579,-0.9579,-0.9579,-0.9579,-0.9579,-0.9579,-0.9579,-0.9579,-0.9579,-0.9579,-0.9579,-0.9579,-0.9579,-0.9579,-0.9579,-0.9579,-0.9579,-0.9723,-1.0117,-1.0368,-1.0516,-1.0516,-1.0609,-1.0752,-1.0949,-1.0953,-1.1047,-1.134,-1.1345,-1.1487,-1.1736,-1.1736,-1.1829,-1.1975,-1.2026,-1.2109,-0.5763,-0.572,0.0,0.0,-0.5597,0.0,-0.5284,0.0,0.0,0.0,0.0,0.0,0.0,0.0,-0.5052,-0.4911,-0.4792,-0.4665,0.0,-0.446,0.0,0.0,0.0,0.0,0.0,0.0,-0.4648,-0.4618,-0.4662,-0.4776,0.0,0.0,-0.5235,-0.5477,-0.5486,-0.5602,-0.5841,-0.5882,-0.6005,-0.6251,-0.6295,-0.6328,-0.6387,-0.6387,-0.6387,-0.6387,-0.6387,-0.6387,-0.6437,-0.6589,-0.6839,-0.7089,-0.7341,-0.7643,-0.7892,-0.7942,-0.8136,-0.8313,-0.8608,-0.8774,-0.8866,-0.914,-0.9323,-0.9434,-0.9596,-0.9589,-0.959,-0.969,-0.9599,-0.948,-0.9579,-0.9579,-0.9579,-0.9579,-0.9579,-0.9579,-0.9579,-0.9579,-0.9579,-0.9579,-0.9579,-0.9579,-0.9579,-0.9579,-0.9579,-0.9579,-0.9579,-0.9579,-0.9579,-0.9579,-0.9579,-0.9579,-0.9579,-0.9677,-0.978,-1.0027,-1.0224,-1.0274,-1.0364,-1.0462,-1.0659,-1.0659,-1.0801,-1.1047,-1.1051,-1.1194,-1.1443,-1.1443,-1.1502,-1.1618,-1.1484,-1.143]}]]